[[{"header":{"parameterUnit":"m.s-1","parameterCategory":1,"la1":30.6,"la2":28.766,"lo1":-90.7593,"lo2":-88.6598,"dy":0.0162,"dx":0.0183,"nx":116,"ny":114,"refTime":"2023-07-18T12:00:00:Z","depth":0,"parameterNumber":2,"parameterNumberName":"U-component_of_WINDS"},"data":[0.0,0.0,0.0,0.0,0.0,0.0,0.0,0.0,0.0,0.0,0.0,0.0,0.0,0.0,0.0,0.0,0.0,0.0,0.0,0.0,0.0,0.0,0.0,0.0,0.0,0.0,0.0,0.0,0.0,0.0,0.0,0.0,0.0,0.0,0.0,0.0,0.0,0.0,0.0,0.0,0.0,0.0,0.0,0.0,0.0,0.0,0.0,0.0,0.0,0.0,0.0,0.0,0.0,0.0,0.0,0.0,0.0,0.0,0.0,0.0,0.0,0.0,0.0,0.0,0.0,0.0,0.0,0.0,0.0,0.0,0.0,0.0,0.0,0.0,0.0,0.0,0.0,0.0,0.0,0.0,0.0,0.0,0.0,0.0,0.0,0.0,0.0,0.0,0.0,0.0,0.0,0.0,0.0,0.0,0.0,0.0,0.0,0.0,0.0,0.0,0.0,0.0,0.0,0.0,0.0,0.0,0.0,0.0,0.0,0.0,0.0,0.0,0.0,0.0,0.0,0.0,0.0,0.0,0.0,0.0,0.0,0.0,0.0,0.0,0.0,0.0,0.0,0.0,0.0,0.0,0.0,0.0,0.0,0.0,0.0,0.0,0.0,0.0,0.0,0.0,0.0,0.0,0.0,0.0,0.0,0.0,0.0,0.0,0.0,0.0,0.0,0.0,0.0,0.0,0.0,0.0,0.0,0.0,0.0,0.0,0.0,0.0,0.0,0.0,0.0,0.0,0.0,0.0,0.0,0.0,0.0,0.0,0.0,0.0,0.0,0.0,0.0,0.0,0.0,0.0,0.0,0.0,0.0,0.0,0.0,0.0,0.0,0.0,0.0,0.0,0.0,0.0,0.0,0.0,0.0,0.0,0.0,0.0,0.0,0.0,0.0,0.0,0.0,0.0,0.0,0.0,0.0,0.0,0.0,0.0,0.0,0.0,0.0,0.0,0.0,0.0,0.0,0.0,0.0,0.0,0.0,0.0,0.0,0.0,0.0,0.0,0.0,0.0,0.0,0.0,0.0,0.0,0.0,0.0,0.0,0.0,0.0,0.0,0.0,0.0,0.0,0.0,0.0,0.0,0.0,0.0,0.0,0.0,0.0,0.0,0.0,0.0,0.0,0.0,0.0,0.0,0.0,0.0,0.0,0.0,0.0,0.0,0.0,0.0,0.0,0.0,0.0,0.0,0.0,0.0,0.0,0.0,0.0,0.0,0.0,0.0,0.0,0.0,0.0,0.0,0.0,0.0,0.0,0.0,0.0,0.0,0.0,0.0,0.0,0.0,0.0,0.0,0.0,0.0,0.0,0.0,0.0,0.0,0.0,0.0,0.0,0.0,0.0,0.0,0.0,0.0,0.0,0.0,0.0,0.0,0.0,0.0,0.0,0.0,0.0,0.0,0.0,0.0,0.0,0.0,0.0,0.0,0.0,0.0,0.0,0.0,0.0,0.0,0.0,0.0,0.0,0.0,0.0,0.0,0.0,0.0,0.0,0.0,0.0,0.0,0.0,0.0,0.0,0.0,0.0,0.0,0.0,0.0,0.0,0.0,0.0,0.0,0.0,0.0,0.0,0.0,0.0,0.0,0.0,0.0,0.0,0.0,0.0,0.0,0.0,0.0,0.0,0.0,0.0,0.0,0.0,0.0,0.0,0.0,0.0,0.0,0.0,0.0,0.0,0.0,0.0,0.0,0.0,0.0,0.0,0.0,0.0,0.0,0.0,0.0,0.0,0.0,0.0,0.0,0.0,0.0,0.0,0.0,0.0,0.0,0.0,0.0,0.0,0.0,0.0,0.0,0.0,0.0,0.0,0.0,0.0,0.0,0.0,0.0,0.0,0.0,0.0,0.0,0.0,0.0,0.0,0.0,0.0,0.0,0.0,0.0,0.0,0.0,0.0,0.0,0.0,0.0,0.0,0.0,0.0,0.0,0.0,0.0,0.0,0.0,0.0,0.0,0.0,0.0,0.0,0.0,0.0,0.0,0.0,0.0,0.0,0.0,0.0,0.0,0.0,0.0,0.0,0.0,0.0,0.0,0.0,0.0,0.0,0.0,0.0,0.0,0.0,0.0,0.0,0.0,0.0,0.0,0.0,0.0,0.0,0.0,0.0,0.0,0.0,0.0,0.0,0.0,0.0,0.0,0.0,0.0,0.0,0.0,0.0,0.0,0.0,0.0,0.0,0.0,0.0,0.0,0.0,0.0,0.0,0.0,0.0,0.0,0.0,0.0,0.0,0.0,0.0,0.0,0.0,0.0,0.0,0.0,0.0,0.0,0.0,0.0,0.0,0.0,0.0,0.0,0.0,0.0,0.0,0.0,0.0,0.0,0.0,0.0,0.0,0.0,0.0,0.0,0.0,0.0,0.0,0.0,0.0,0.0,0.0,0.0,0.0,0.0,0.0,0.0,0.0,0.0,0.0,0.0,0.0,0.0,0.0,0.0,0.0,0.0,0.0,0.0,0.0,0.0,0.0,0.0,0.0,0.0,0.0,0.0,0.0,0.0,0.0,0.0,0.0,0.0,0.0,0.0,0.0,0.0,0.0,0.0,0.0,0.0,0.0,0.0,0.0,0.0,0.0,0.0,0.0,0.0,0.0,0.0,0.0,0.0,0.0,0.0,0.0,0.0,0.0,0.0,0.0,0.0,0.0,0.0,0.0,0.0,0.0,0.0,0.0,0.0,0.0,0.0,0.0,0.0,0.0,0.0,0.0,0.0,0.0,0.0,0.0,0.0,0.0,0.0,0.0,0.0,0.0,0.0,0.0,0.0,0.0,0.0,0.0,0.0,0.0,0.0,0.0,0.0,0.0,0.0,0.0,0.0,0.0,0.0,0.0,0.0,0.0,0.0,0.0,0.0,0.0,0.0,0.0,0.0,0.0,0.0,0.0,0.0,0.0,0.0,0.0,0.0,0.0,0.0,0.0,0.0,0.0,0.0,0.0,0.0,0.0,0.0,0.0,0.0,0.0,0.0,0.0,0.0,0.0,0.0,0.0,0.0,0.0,0.0,0.0,0.0,0.0,0.0,0.0,0.0,0.0,0.0,0.0,0.0,0.0,0.0,0.0,0.0,0.0,0.0,0.0,0.0,0.0,0.0,0.0,0.0,0.0,0.0,0.0,0.0,0.0,0.0,0.0,0.0,0.0,0.0,0.0,0.0,0.0,0.0,0.0,0.0,0.0,0.0,0.0,0.0,0.0,0.0,0.0,0.0,0.0,0.0,0.0,0.0,0.0,0.0,0.0,0.0,0.0,0.0,0.0,0.0,0.0,0.0,0.0,0.0,0.0,0.0,0.0,0.0,0.0,0.0,0.0,0.0,0.0,0.0,0.0,0.0,0.0,0.0,0.0,0.0,0.0,0.0,0.0,0.0,0.0,0.0,0.0,0.0,0.0,0.0,0.0,0.0,0.0,0.0,0.0,0.0,0.0,0.0,0.0,0.0,0.0,0.0,0.0,0.0,0.0,0.0,0.0,0.0,0.0,0.0,0.0,0.0,0.0,0.0,0.0,0.0,0.0,0.0,0.0,0.0,0.0,0.0,0.0,0.0,0.0,0.0,0.0,0.0,0.0,0.0,0.0,0.0,0.0,0.0,0.0,0.0,0.0,0.0,0.0,0.0,0.0,0.0,0.0,0.0,0.0,0.0,0.0,0.0,0.0,0.0,0.0,0.0,0.0,0.0,0.0,0.0,0.0,0.0,0.0,0.0,0.0,0.0,0.0,0.0,0.0,0.0,0.0,0.0,0.0,0.0,0.0,0.0,0.0,0.0,0.0,0.0,0.0,0.0,0.0,0.0,0.0,0.0,0.0,0.0,0.0,0.0,0.0,0.0,0.0,0.0,0.0,0.0,0.0,0.0,0.0,0.0,0.0,0.0,0.0,0.0,0.0,0.0,0.0,0.0,0.0,0.0,0.0,0.0,0.0,0.0,0.0,0.0,0.0,0.0,0.0,0.0,0.0,0.0,0.0,0.0,0.0,0.0,0.0,0.0,0.0,0.0,0.0,0.0,0.0,0.0,0.0,0.0,0.0,0.0,0.0,0.0,0.0,0.0,0.0,0.0,0.0,0.0,0.0,0.0,0.0,0.0,0.0,0.0,0.0,0.0,0.0,0.0,0.0,0.0,0.0,0.0,0.0,0.0,0.0,0.0,0.0,0.0,0.0,0.0,0.0,0.0,0.0,0.0,0.0,0.0,0.0,0.0,0.0,0.0,0.0,0.0,0.0,0.0,0.0,0.0,0.0,0.0,0.0,0.0,0.0,0.0,0.0,0.0,0.0,0.0,0.0,0.0,0.0,0.0,0.0,0.0,0.0,0.0,0.0,0.0,0.0,0.0,0.0,0.0,0.0,0.0,0.0,0.0,0.0,0.0,0.0,0.0,0.0,0.0,0.0,0.0,0.0,0.0,0.0,0.0,0.0,0.0,0.0,0.0,0.0,0.0,0.0,0.0,0.0,0.0,0.0,0.0,0.0,0.0,0.0,0.0,0.0,0.0,0.0,0.0,0.0,0.0,0.0,0.0,0.0,0.0,0.0,0.0,0.0,0.0,0.0,0.0,0.0,0.0,0.0,0.0,0.0,0.0,0.0,0.0,0.0,0.0,0.0,0.0,0.0,0.0,0.0,0.0,0.0,0.0,0.0,0.0,0.0,0.0,0.0,0.0,0.0,0.0,0.0,0.0,0.0,0.0,0.0,0.0,0.0,0.0,0.0,0.0,0.0,0.0,0.0,0.0,0.0,0.0,0.0,0.0,0.0,0.0,0.0,0.0,0.0,0.0,0.0,0.0,0.0,0.0,0.0,0.0,0.0,0.0,0.0,0.0,0.0,0.0,0.0,0.0,0.0,0.0,0.0,0.0,0.0,0.0,0.0,0.0,0.0,0.0,0.0,0.0,0.0,0.0,0.0,0.0,0.0,0.0,0.0,0.0,0.0,0.0,0.0,0.0,0.0,0.0,0.0,0.0,0.0,0.0,0.0,0.0,0.0,0.0,0.0,0.0,0.0,0.0,0.0,0.0,0.0,0.0,0.0,0.0,0.0,0.0,0.0,0.0,0.0,0.0,0.0,0.0,0.0,0.0,0.0,0.0,0.0,0.0,0.0,0.0,0.0,0.0,0.0,0.0,0.0,0.0,0.0,0.0,0.0,0.0,0.0,0.0,0.0,0.0,0.0,0.0,0.0,0.0,0.0,0.0,0.0,0.0,0.0,0.0,0.0,0.0,0.0,0.0,0.0,0.0,0.0,0.0,0.0,0.0,0.0,0.0,0.0,0.0,0.0,0.0,0.0,0.0,0.0,0.0,0.0,0.0,0.0,0.0,0.0,0.0,0.0,0.0,0.0,0.0,0.0,0.0,0.0,0.0,0.0,0.0,0.0,0.0,0.0,0.0,0.0,0.0,0.0,0.0,0.0,0.0,0.0,0.0,0.0,0.0,0.0,0.0,0.0,0.0,0.0,0.0,0.0,0.0,0.0,0.0,0.0,0.0,0.0,0.0,0.0,0.0,0.0,0.0,0.0,0.0,0.0,0.0,0.0,0.0,0.0,0.0,0.0,0.0,0.0,0.0,0.0,0.0,0.0,0.0,0.0,0.0,0.0,0.0,0.0,0.0,0.0,0.0,0.0,0.0,0.0,0.0,0.0,0.0,0.0,0.0,0.0,0.0,0.0,0.0,0.0,0.0,0.0,0.0,0.0,0.0,0.0,0.0,0.0,0.0,0.0,0.0,0.0,0.0,0.0,0.0,0.0,0.0,0.0,0.0,0.0,0.0,0.0,0.0,0.0,0.0,0.0,0.0,0.0,0.0,0.0,0.0,0.0,0.0,0.0,0.0,0.0,0.0,0.0,0.0,0.0,0.0,0.0,0.0,0.0,0.0,0.0,0.0,0.0,0.0,0.0,0.0,0.0,0.0,0.0,0.0,0.0,0.0,0.0,0.0,0.0,0.0,0.0,0.0,0.0,0.0,0.0,0.0,0.0,0.0,0.0,0.0,0.0,0.0,0.0,0.0,0.0,0.0,0.0,0.0,0.0,0.0,0.0,0.0,0.0,0.0,0.0,0.0,0.0,0.0,0.0,0.0,0.0,0.0,0.0,0.0,0.0,0.0,-1.7576,0.0,0.0,0.0,0.0,0.0,0.0,0.0,0.0,0.0,0.0,0.0,0.0,0.0,0.0,0.0,0.0,0.0,0.0,0.0,0.0,0.0,0.0,0.0,0.0,0.0,0.0,0.0,0.0,0.0,0.0,0.0,0.0,0.0,0.0,0.0,0.0,0.0,0.0,0.0,0.0,0.0,0.0,0.0,0.0,0.0,0.0,0.0,0.0,0.0,0.0,0.0,0.0,0.0,0.0,0.0,0.0,0.0,0.0,0.0,0.0,0.0,0.0,0.0,0.0,0.0,0.0,0.0,0.0,0.0,0.0,0.0,0.0,0.0,0.0,0.0,0.0,0.0,0.0,0.0,0.0,0.0,0.0,0.0,0.0,0.0,0.0,0.0,0.0,0.0,0.0,0.0,0.0,0.0,0.0,0.0,0.0,0.0,0.0,0.0,0.0,0.0,0.0,0.0,0.0,0.0,0.0,0.0,0.0,0.0,0.0,0.0,0.0,0.0,0.0,0.0,0.0,-1.8179,0.0,0.0,0.0,0.0,0.0,0.0,0.0,0.0,0.0,0.0,0.0,0.0,0.0,0.0,0.0,0.0,0.0,0.0,0.0,0.0,0.0,0.0,0.0,0.0,0.0,0.0,0.0,0.0,0.0,0.0,0.0,0.0,0.0,0.0,0.0,0.0,0.0,0.0,0.0,0.0,0.0,0.0,0.0,0.0,0.0,0.0,0.0,0.0,0.0,0.0,0.0,0.0,0.0,0.0,0.0,0.0,0.0,0.0,0.0,0.0,0.0,0.0,0.0,0.0,0.0,0.0,0.0,0.0,0.0,0.0,0.0,0.0,0.0,0.0,0.0,0.0,0.0,0.0,0.0,0.0,0.0,0.0,0.0,0.0,0.0,0.0,0.0,0.0,0.0,0.0,0.0,0.0,0.0,0.0,0.0,0.0,0.0,0.0,0.0,0.0,0.0,0.0,0.0,0.0,0.0,0.0,0.0,0.0,-2.1056,-2.1609,-2.1945,-2.2498,-2.2799,-2.2774,-2.0838,-1.9848,-1.9547,-1.9158,0.0,0.0,0.0,0.0,0.0,0.0,0.0,0.0,0.0,0.0,0.0,0.0,0.0,0.0,0.0,0.0,0.0,0.0,0.0,0.0,0.0,0.0,0.0,0.0,0.0,0.0,0.0,0.0,0.0,0.0,0.0,0.0,0.0,0.0,0.0,0.0,0.0,0.0,-1.7297,-1.784,-1.8267,-1.8531,-1.7664,0.0,0.0,0.0,0.0,0.0,0.0,0.0,0.0,0.0,0.0,0.0,0.0,0.0,0.0,0.0,0.0,0.0,0.0,0.0,0.0,0.0,0.0,0.0,0.0,0.0,0.0,0.0,0.0,0.0,0.0,0.0,0.0,0.0,0.0,0.0,0.0,0.0,0.0,0.0,0.0,0.0,0.0,0.0,-1.5774,-1.5713,0.0,0.0,0.0,0.0,0.0,0.0,0.0,0.0,0.0,0.0,0.0,0.0,0.0,-1.9874,-2.0941,-2.1942,-2.228,-2.1995,-2.354,-2.4054,-2.369,-2.4243,-2.4732,-2.5121,-2.4349,0.0,-2.1732,-1.9798,0.0,0.0,0.0,0.0,0.0,0.0,0.0,0.0,0.0,0.0,0.0,0.0,0.0,0.0,0.0,0.0,0.0,0.0,0.0,0.0,0.0,0.0,0.0,0.0,0.0,0.0,0.0,0.0,0.0,0.0,0.0,0.0,0.0,0.0,0.0,0.0,-1.6635,-1.7513,-1.8329,-1.9183,-1.9886,-2.0376,-1.961,-1.9284,-1.9284,-1.798,0.0,0.0,0.0,0.0,0.0,0.0,0.0,0.0,0.0,0.0,0.0,0.0,0.0,0.0,0.0,0.0,0.0,0.0,0.0,0.0,0.0,0.0,0.0,0.0,0.0,0.0,0.0,0.0,0.0,0.0,0.0,0.0,0.0,0.0,0.0,0.0,0.0,0.0,0.0,-1.6555,-1.6522,-1.6195,-1.666,-1.6999,0.0,0.0,0.0,0.0,0.0,0.0,0.0,0.0,0.0,-2.0813,-2.1091,-2.1757,-2.2887,-2.369,-2.4268,-2.4657,-2.5699,-2.6239,-2.6314,-2.6565,-2.6967,-2.7431,-2.6904,-2.6251,-2.5347,-2.2481,-2.1265,-2.1117,0.0,0.0,0.0,0.0,-1.9836,-2.0062,0.0,0.0,0.0,0.0,0.0,0.0,0.0,0.0,0.0,0.0,0.0,0.0,0.0,0.0,0.0,-2.012,0.0,0.0,0.0,0.0,0.0,0.0,0.0,0.0,0.0,0.0,0.0,0.0,-1.7921,-1.9014,-1.966,-2.0993,-2.1817,-2.2121,-2.1886,-2.1117,-1.9986,-1.9032,-1.8468,0.0,0.0,0.0,0.0,0.0,0.0,0.0,0.0,0.0,0.0,0.0,0.0,0.0,0.0,0.0,0.0,0.0,0.0,0.0,0.0,0.0,0.0,0.0,0.0,0.0,0.0,0.0,0.0,0.0,0.0,0.0,0.0,0.0,0.0,0.0,0.0,0.0,0.0,-1.6547,-1.6948,-1.6371,-1.7074,-1.7561,0.0,0.0,0.0,0.0,0.0,0.0,-1.981,-2.0916,-2.2049,-2.3125,-2.3288,-2.3916,-2.5034,-2.5565,-2.6276,-2.714,-2.7693,-2.8147,-2.8536,-2.8536,-2.8762,-2.9076,-2.8561,-2.831,-2.8084,-2.4988,-2.3409,-2.2899,-2.2347,-2.2046,-2.1907,-2.1907,-2.1907,-2.1945,0.0,0.0,0.0,0.0,0.0,0.0,0.0,0.0,0.0,0.0,0.0,0.0,0.0,0.0,-1.8802,-2.1365,-2.1023,-2.0895,0.0,0.0,0.0,0.0,0.0,0.0,0.0,0.0,0.0,-1.8078,-1.9368,-2.0457,-2.1421,-2.3251,-2.402,-2.3904,-2.4393,-2.396,-2.2757,-2.0627,-2.0024,-2.039,0.0,0.0,0.0,0.0,0.0,0.0,0.0,0.0,0.0,0.0,0.0,0.0,0.0,0.0,0.0,0.0,0.0,0.0,0.0,0.0,0.0,0.0,0.0,0.0,0.0,0.0,0.0,0.0,0.0,0.0,0.0,0.0,0.0,0.0,0.0,0.0,0.0,0.0,0.0,-1.5806,-1.7174,0.0,0.0,0.0,0.0,-1.9597,-2.069,-2.1568,-2.2121,-2.3213,-2.4318,-2.5398,-2.5996,-2.6826,-2.7883,-2.8411,-2.8712,-2.8775,-2.939,-2.9679,-2.9704,-2.9704,-2.9729,-2.9716,-2.9139,-2.885,-2.8675,-2.6414,-2.5172,-2.4612,-2.4092,-2.354,-2.302,-2.302,-2.302,-2.2945,0.0,0.0,0.0,0.0,0.0,0.0,0.0,0.0,0.0,0.0,0.0,0.0,0.0,-1.9325,-2.0465,-2.2183,-2.1736,-2.1305,-2.119,0.0,0.0,0.0,0.0,0.0,0.0,0.0,-1.7955,-1.8707,-2.1171,-2.2697,-2.3389,-2.5169,-2.5936,-2.5869,-2.5876,-2.5649,-2.5134,-2.2887,-2.1656,-2.1081,-1.9397,-1.8255,0.0,0.0,0.0,0.0,0.0,0.0,0.0,0.0,0.0,0.0,0.0,0.0,0.0,0.0,0.0,0.0,0.0,0.0,0.0,0.0,0.0,0.0,0.0,0.0,0.0,0.0,0.0,0.0,0.0,0.0,0.0,0.0,0.0,0.0,0.0,0.0,0.0,-1.8894,-2.0049,0.0,-2.1039,-2.1089,-2.134,-2.1879,-2.297,-2.3866,-2.4406,-2.5498,-2.6615,-2.7708,-2.7946,-2.8411,-2.9189,-2.9377,-2.9478,-2.949,-2.9691,-2.9792,-2.9792,-2.9792,-2.9792,-2.9779,-2.9578,-2.9478,-2.9428,-2.8624,-2.7544,-2.6314,-2.5385,-2.4908,-2.472,-2.472,-2.4958,-2.5247,0.0,0.0,0.0,0.0,0.0,0.0,0.0,0.0,0.0,0.0,0.0,-1.7385,-1.8267,-1.9634,-2.1177,-2.2862,-2.22,-2.1642,-2.1512,0.0,0.0,0.0,0.0,0.0,0.0,-1.8678,-1.9566,-2.054,-2.3272,-2.4734,-2.502,-2.6729,-2.7271,-2.6797,-2.7306,-2.7341,-2.6987,-2.6149,-2.4429,-2.2209,-2.0727,-1.9885,-1.9434,0.0,0.0,0.0,0.0,0.0,0.0,0.0,0.0,0.0,0.0,0.0,0.0,0.0,0.0,0.0,0.0,0.0,0.0,0.0,0.0,0.0,0.0,0.0,0.0,0.0,0.0,0.0,0.0,0.0,0.0,0.0,0.0,0.0,0.0,0.0,-2.0577,-2.1182,-2.2372,-2.3195,-2.3384,-2.3427,-2.3653,-2.4217,-2.5297,-2.6163,-2.6691,-2.762,-2.8461,-2.9202,-2.9176,-2.9402,-2.9792,-2.9792,-2.9792,-2.9792,-2.9792,-2.9792,-2.9792,-2.9792,-2.9792,-2.9792,-2.9792,-2.9792,-2.9792,-2.9792,-2.9139,-2.8059,-2.7306,-2.6666,-2.6214,-2.6578,-2.6728,-2.6776,0.0,0.0,0.0,0.0,0.0,0.0,0.0,0.0,0.0,0.0,-1.5617,-1.6338,-1.7594,-1.8972,-2.0831,-2.337,-2.2443,-2.1984,-2.2628,-2.0786,0.0,0.0,0.0,0.0,-1.9097,-2.03,-2.1833,-2.3658,-2.5676,-2.6525,-2.6272,-2.8057,-2.8111,-2.6772,-2.8739,-2.9106,-2.8353,-3.022,-2.8395,-2.4135,-2.2951,-2.2417,-2.2056,0.0,0.0,0.0,0.0,0.0,0.0,0.0,0.0,0.0,0.0,0.0,0.0,0.0,0.0,0.0,0.0,0.0,0.0,0.0,0.0,0.0,0.0,0.0,0.0,0.0,0.0,0.0,0.0,0.0,0.0,0.0,0.0,0.0,-1.9171,-2.0564,-2.182,-2.2372,-2.3873,-2.472,-2.4205,-2.5084,-2.5937,-2.6549,-2.7557,-2.8398,-2.8888,-2.949,-2.9792,-2.9792,-2.9792,-2.9792,-2.9792,-2.9792,-2.9792,-2.9792,-2.9792,-2.9792,-2.9792,-2.9792,-2.9792,-2.9792,-2.9792,-2.9792,-2.9792,-2.9792,-2.9792,-2.9792,-2.9754,-2.875,-2.7444,-2.8449,-2.8197,-2.7281,0.0,0.0,0.0,0.0,0.0,0.0,0.0,0.0,0.0,0.0,-1.6248,-1.7505,-1.8326,-2.0483,-2.2343,-2.349,-2.2443,-2.1769,-2.1949,0.0,0.0,0.0,0.0,0.0,-2.1064,-2.1772,-2.3071,-2.497,-2.6944,-2.8369,-2.9254,-3.058,-3.1241,-3.1302,-3.1605,-3.1616,-3.133,-3.12,-3.0559,-2.9435,-2.7047,-2.5132,-2.3509,0.0,0.0,0.0,0.0,0.0,0.0,0.0,0.0,0.0,0.0,0.0,0.0,0.0,0.0,0.0,0.0,0.0,0.0,0.0,0.0,0.0,0.0,0.0,0.0,0.0,0.0,0.0,0.0,0.0,0.0,0.0,0.0,-2.1568,-2.1403,-2.3175,-2.4682,-2.528,-2.644,-2.7306,-2.7509,-2.7833,-2.8247,-2.8837,-2.9164,-2.9402,-2.9553,-2.9704,-2.9792,-2.9792,-2.9792,-2.9792,-2.9792,-2.9792,-2.9792,-2.9792,-2.9792,-2.9792,-2.9792,-2.9792,-2.9792,-2.9792,-2.9792,-2.9792,-2.9792,-2.9792,-2.9792,-2.9716,-2.8888,-2.8285,-2.7871,-2.777,-2.7544,-2.7281,0.0,0.0,0.0,0.0,0.0,0.0,0.0,0.0,0.0,0.0,-1.6323,-1.7743,-1.7848,-2.0004,-2.158,-2.1934,-2.1276,-2.0737,-2.0468,0.0,0.0,0.0,0.0,-2.1332,-2.3055,-2.3861,-2.5201,-2.7117,-2.858,-2.9784,-3.0764,-3.1665,-3.2258,-3.2585,-3.3008,-3.2961,-3.2629,-3.2904,-3.266,-3.2041,-3.0894,-2.9228,-2.7111,-2.4191,-2.3053,-2.2724,-2.0468,-1.9888,-1.9924,-1.8405,0.0,0.0,0.0,0.0,0.0,0.0,0.0,0.0,0.0,0.0,0.0,0.0,0.0,0.0,0.0,0.0,0.0,0.0,0.0,0.0,0.0,0.0,0.0,0.0,-2.2962,-2.4217,-2.4669,-2.5636,-2.6603,-2.7394,-2.8273,-2.8938,-2.9264,-2.9289,-2.9428,-2.9767,-2.9792,-2.9792,-2.9792,-2.9792,-2.9792,-2.9792,-2.9792,-2.9792,-2.9792,-2.9792,-2.9792,-2.9792,-2.9792,-2.9792,-2.9792,-2.9792,-2.9792,-2.9792,-2.9792,-2.9792,-2.9792,-2.9792,-2.9792,0.0,0.0,0.0,0.0,0.0,-2.7632,-2.7632,0.0,0.0,0.0,0.0,0.0,0.0,0.0,0.0,0.0,0.0,0.0,-1.7282,-1.6608,-1.8242,-1.9446,-1.9521,-1.9521,-1.9294,0.0,0.0,0.0,-2.1096,-2.2205,-2.3478,-2.4892,-2.6103,-2.7596,-2.9421,-3.0167,-3.0835,-3.1478,-3.2009,-3.2254,-3.2282,-3.3613,-3.3705,-3.3031,-3.4673,-3.4409,-3.3024,-3.4046,-3.3416,-3.1441,-2.772,-2.6725,-2.6902,-2.4021,-2.2269,-2.1167,-2.0303,0.0,0.0,0.0,0.0,0.0,0.0,0.0,0.0,0.0,0.0,0.0,0.0,0.0,0.0,0.0,0.0,0.0,0.0,0.0,0.0,0.0,0.0,0.0,0.0,-2.5682,-2.709,-2.8222,-2.7908,-2.7934,-2.8875,-2.9478,-2.9792,-2.9792,-2.9792,-2.9792,-2.9792,-2.9792,-2.9792,-2.9792,0.0,0.0,0.0,0.0,-2.9792,-2.9792,-2.9792,-2.9792,-2.9792,-2.9792,-2.9792,-2.9792,-2.9792,-2.9792,-2.9792,-2.9792,-2.9792,-2.9792,-2.9792,-2.9792,-2.9779,-2.9729,-2.9013,-2.8021,-2.8084,-2.8059,-2.8021,0.0,0.0,0.0,0.0,0.0,0.0,0.0,0.0,0.0,-1.4316,-1.5562,-1.6286,-1.557,-1.6738,-1.7838,-1.8436,-1.8434,-1.8486,0.0,0.0,-2.0728,-2.2268,-2.3092,-2.4362,-2.6199,-2.6934,-2.8063,-2.9553,-3.0197,-3.1363,-3.3061,-3.3164,-3.3799,-3.4809,-3.5073,-3.51,-3.492,-3.4461,-3.4543,-3.4872,-3.433,-3.3268,-3.1854,-3.027,-2.9102,-2.7939,-2.5239,-2.4593,-2.4665,-2.2048,-2.2005,-2.2814,-2.1614,0.0,0.0,0.0,0.0,0.0,0.0,0.0,0.0,0.0,0.0,0.0,0.0,0.0,0.0,0.0,0.0,0.0,0.0,0.0,0.0,-2.6289,-2.7293,-2.8335,-2.9917,-2.9654,-2.939,-2.9603,-2.9729,-2.9792,-2.9792,-2.9792,-2.9792,-2.9792,-2.9792,-2.9792,-2.9792,-2.9792,-2.9792,-2.9792,-2.9792,-2.9792,-2.9792,-2.9792,-2.9792,-2.9792,0.0,0.0,-2.9792,-2.9792,-2.9792,-2.9792,-2.9792,-2.9792,-2.9792,-2.9792,-2.9792,-2.9741,-2.9277,-2.8411,-2.7494,-2.7946,-2.7821,-2.7507,0.0,0.0,0.0,0.0,0.0,0.0,0.0,0.0,0.0,0.0,-1.6208,-1.6779,-1.6087,-1.6882,-1.7463,-1.7506,-1.7632,0.0,0.0,-2.0507,-2.1854,-2.3101,-2.4443,-2.5921,-2.7575,-2.7894,-2.8719,-3.0043,-3.0357,-3.1524,-3.3499,-3.3499,-3.4218,-3.5504,-3.5504,-3.5504,-3.5472,-3.4953,-3.5019,-3.5472,-3.4953,-3.4376,-3.3701,-3.2873,-3.1642,-3.0169,-2.851,-2.7352,-2.6418,-2.4898,-2.4397,-2.4283,-2.3883,-2.3028,-2.2144,0.0,0.0,0.0,0.0,0.0,0.0,0.0,0.0,0.0,0.0,0.0,0.0,0.0,0.0,-2.2615,0.0,0.0,-2.6502,-2.7883,-2.8812,-2.9566,-3.0131,-2.9967,-2.9792,-2.9792,-2.9792,-2.9792,-2.9792,-2.9792,-2.9792,-2.9792,-2.9792,-2.9792,-2.9792,-2.9792,-2.9792,-2.9792,-2.9792,-2.9792,-2.9792,-2.9792,-2.9792,-2.9792,-2.9792,-2.9792,-2.9792,-2.9792,-2.9792,-2.9792,-2.9792,-2.9792,-2.9792,-2.9792,-2.9792,-2.9767,-2.9478,-2.9026,-2.8536,-2.8524,-2.8348,-2.8147,0.0,0.0,0.0,0.0,0.0,0.0,0.0,0.0,0.0,0.0,-1.6837,-1.7248,-1.6554,-1.6962,-1.7235,0.0,0.0,0.0,0.0,-2.1579,-2.2897,-2.3759,-2.5719,-2.729,-2.8382,-2.8532,-2.916,-3.0328,-3.0447,-3.1465,-3.3305,-3.344,-3.4143,-3.531,-3.5444,-3.5504,-3.5504,-3.5504,-3.5504,-3.5504,-3.5504,-3.5504,-3.5429,-3.4773,-3.3646,-3.2309,-3.1356,-2.9375,-2.7162,-2.6936,-2.591,-2.4893,-2.5747,-2.5116,-2.3963,-2.3279,-2.2356,0.0,0.0,0.0,0.0,0.0,0.0,0.0,0.0,0.0,-2.2397,-2.2728,-2.3853,-2.5134,-2.6214,-2.7431,-2.8511,-2.9239,-2.9993,-3.0331,-2.9993,-2.9867,-2.9792,-2.9792,-2.9792,-2.9792,-2.9792,-2.9792,-2.9792,-2.9792,-2.9792,-2.9792,-2.9792,-2.9792,-2.9792,-2.9792,-2.9792,-2.9792,-2.9792,-2.9792,-2.9792,-2.9792,-2.9792,-2.9792,-2.9792,-2.9792,-2.9792,-2.9792,-2.9792,-2.9792,-2.9792,-2.9792,-2.9792,-2.9792,-2.9792,-2.9792,-2.9729,-2.9264,-2.8988,-2.8913,0.0,0.0,0.0,0.0,0.0,0.0,0.0,0.0,0.0,0.0,0.0,0.0,0.0,0.0,0.0,0.0,0.0,0.0,-2.0972,-2.1538,-2.2607,-2.441,-2.6408,-2.7555,-2.7705,-2.8293,-2.8951,-2.9711,-3.0238,-3.1225,-3.2632,-3.3215,-3.3888,-3.4653,-3.5235,-3.5504,-3.5504,-3.5504,-3.5504,-3.5504,-3.5504,-3.5504,-3.5429,-3.4773,-3.4037,-3.3105,-3.1122,-2.9073,-2.7072,-2.5701,-2.5147,-2.5204,-2.6674,-2.6218,-2.5031,-2.4525,0.0,-2.0792,-1.9864,-1.9712,-2.0025,-2.0976,-2.1339,-2.2215,0.0,0.0,-2.5552,-2.7042,-2.7519,-2.7996,-2.9114,-2.9063,-2.934,-3.0871,-3.0419,-3.003,-3.0457,-3.0105,-2.9792,-2.9792,-2.9792,-2.9792,-2.9792,-2.9792,-2.9792,-2.9792,-2.9792,-2.9792,-2.9792,-2.9792,-2.9792,-2.9792,-2.9792,-2.9792,-2.9792,-2.9792,-2.9792,-2.9792,-2.9792,-2.9792,-2.9792,-2.9792,-2.9792,-2.9792,-2.9792,-2.9792,-2.9792,-2.9792,-2.9792,-2.9792,-2.9792,-2.9792,-2.9779,-2.9716,-2.9365,-2.8963,0.0,0.0,0.0,0.0,0.0,0.0,0.0,0.0,0.0,0.0,0.0,0.0,0.0,0.0,0.0,0.0,0.0,0.0,-2.0595,-2.1334,-2.2233,-2.3445,-2.5773,-2.7031,-2.7031,-2.8053,-2.8921,-2.9606,-3.0193,-3.1195,-3.2527,-3.2796,-3.3484,-3.4518,-3.4771,-3.513,-3.5504,-3.5504,-3.5504,-3.5504,-3.5504,-3.5265,-3.4831,-3.4158,-3.2796,-3.1107,-3.0214,-2.8613,0.0,0.0,-2.5333,-2.5467,-2.6111,-2.5933,-2.5217,-2.3874,-2.2723,0.0,-2.0566,-2.0763,0.0,0.0,-2.3207,-2.5065,-2.5803,-2.6779,-2.7833,-2.8875,-2.934,-2.9716,-3.0181,-3.0068,-3.003,0.0,-3.0344,-3.0231,-3.0143,-2.9942,-2.9666,-2.9327,-2.9591,-2.9792,-2.9792,-2.9792,-2.9792,-2.9792,-2.9792,-2.9792,-2.9792,-2.9792,-2.9792,-2.9792,-2.9792,-2.9792,-2.9792,-2.9792,-2.9792,-2.9792,-2.9792,-2.9792,-2.9792,-2.9792,-2.9792,-2.9792,-2.9792,-2.9792,-2.9792,-2.9792,-2.9792,-2.9792,-2.9792,-2.9792,-2.9792,-2.9792,-2.9641,-2.9465,0.0,0.0,0.0,0.0,0.0,0.0,0.0,0.0,0.0,0.0,0.0,0.0,0.0,0.0,0.0,0.0,0.0,0.0,0.0,-2.1118,-2.1967,-2.2807,-2.4905,-2.6213,-2.6572,-2.7545,-2.8472,-2.931,-2.9939,-3.0836,-3.1973,-3.2347,-3.3021,-3.3948,-3.4159,-3.4487,-3.4951,-3.4951,-3.4951,-3.4951,-3.4951,-3.4442,-3.3574,-3.2736,-3.0896,-2.8783,-2.8783,-2.7375,0.0,0.0,-2.4522,-2.4597,-2.4941,-2.5061,-2.4731,-2.3169,-2.2181,-2.1453,-2.0667,0.0,0.0,-2.2535,-2.5084,-2.7381,-2.6866,-2.8348,-2.9905,-3.0181,-3.0545,-3.0834,-3.0834,-3.0583,-3.0306,-3.0055,-3.0231,-3.0244,-2.9842,-2.9654,-2.9402,-2.8938,-2.9164,-2.9327,-2.9327,-2.9616,-2.9792,-2.9792,-2.9792,-2.9792,-2.9792,-2.9792,-2.9792,-2.9792,-2.9792,-2.9792,-2.9792,-2.9792,-2.9792,-2.9792,-2.9792,-2.9792,-2.9792,-2.9792,-2.9792,-2.9792,-2.9792,-2.9792,-2.9792,-2.9792,-2.9792,-2.9792,-2.9792,-2.9792,-2.9792,-2.9792,-2.9792,-2.9767,0.0,0.0,0.0,0.0,0.0,0.0,0.0,0.0,0.0,0.0,0.0,0.0,0.0,0.0,0.0,0.0,0.0,0.0,0.0,-2.0966,-2.1877,-2.3125,-2.4128,-2.5262,-2.6557,-2.6632,-2.7305,-2.8622,-2.928,-2.9939,-3.0597,-3.1898,-3.2512,-3.2602,-3.3245,-3.3529,-3.3559,-3.3559,-3.3559,-3.3559,-3.3559,-3.2781,-3.1451,-3.0193,-2.8468,-2.6677,-2.6677,0.0,0.0,0.0,-2.1814,-2.2024,-2.3266,-2.3655,0.0,-2.2897,-2.1014,0.0,0.0,0.0,-2.2146,-2.4808,-2.6791,-2.836,-2.9428,-3.0934,-3.1964,-3.1449,-3.1348,-3.1361,-3.1361,-3.052,-2.9993,-3.0507,-3.0156,-2.9817,-2.9792,-2.9315,-2.8913,-2.8888,-2.8473,-2.816,0.0,-2.9151,-2.9792,-2.9792,-2.9792,-2.9792,-2.9792,-2.9792,-2.9792,-2.9792,-2.9792,-2.9792,-2.9792,-2.9792,-2.9792,-2.9792,-2.9792,-2.9792,-2.9792,-2.9792,-2.9792,-2.9792,-2.9792,-2.9792,-2.9792,-2.9792,-2.9792,-2.9792,-2.9792,-2.9792,-2.9792,-2.9792,-2.9792,-2.9716,0.0,0.0,0.0,0.0,0.0,0.0,0.0,0.0,0.0,0.0,0.0,0.0,0.0,0.0,0.0,0.0,0.0,0.0,0.0,-1.995,-2.0141,-2.1234,-2.2801,-2.3776,-2.4006,-2.5704,-2.6811,-2.726,-2.7944,-2.8378,-2.8603,-2.9052,-2.949,-2.9939,-3.0597,-3.112,-3.1539,-3.1974,-3.2168,-3.2093,-3.124,-3.0372,-2.94,-2.7619,-2.5719,-2.3989,0.0,0.0,0.0,-2.0756,-2.0662,-2.1036,-2.1006,-2.1321,-2.1697,-2.1809,-2.0988,-2.0445,0.0,0.0,-2.5649,-2.6942,-2.9063,-3.0934,-3.1311,-3.1825,-3.2319,-3.2856,-3.1603,-3.0391,-3.019,-2.9132,-2.8363,-2.8384,-2.8561,-2.8938,-2.9679,-2.9628,-2.9227,-2.8473,-2.8499,0.0,0.0,0.0,0.0,-2.9189,-2.9176,-2.939,-2.9779,-2.9792,-2.9792,-2.9792,-2.9792,-2.9792,-2.9792,-2.9792,-2.9792,-2.9792,-2.9792,-2.9792,-2.9792,-2.9792,-2.9792,-2.9792,-2.9792,-2.9792,-2.9792,-2.9792,-2.9792,-2.9792,-2.9792,-2.9792,-2.9792,-2.9792,-2.9553,-2.9189,0.0,0.0,0.0,0.0,0.0,0.0,0.0,0.0,0.0,0.0,0.0,0.0,0.0,0.0,0.0,0.0,0.0,0.0,0.0,0.0,-1.9678,-2.032,-2.1907,-2.2879,-2.3116,-2.4771,-2.5741,-2.5986,-2.6657,-2.6922,-2.6786,-2.6786,-2.6907,-2.72,-2.7619,-2.8038,-2.8442,-2.929,-2.9414,-2.9011,-2.8743,-2.7853,-2.6566,-2.5431,-2.3937,0.0,0.0,0.0,0.0,-2.0197,-2.0197,-2.0464,-1.9882,-2.0007,-2.0444,-2.0756,-2.0878,-2.1488,0.0,-2.605,-2.7645,-2.9189,-3.0909,-3.2286,-3.2648,-3.273,-3.2682,-3.2576,-3.111,-2.9469,-2.8375,-2.7144,-2.6388,-2.6653,-2.6979,-2.767,-2.9001,-2.9189,-2.8988,-2.8461,-2.8499,0.0,0.0,0.0,0.0,-2.9189,-2.9239,-2.9402,-2.9779,-2.9792,-2.9792,-2.9792,-2.9792,-2.9792,-2.9792,-2.9792,-2.9792,-2.9792,-2.9792,-2.9792,-2.9792,-2.9792,-2.9792,-2.9792,-2.9792,-2.9792,-2.9792,-2.9792,-2.9792,-2.9792,-2.9792,-2.9792,-2.9792,-2.9792,-2.9428,-2.8863,0.0,0.0,0.0,0.0,0.0,0.0,0.0,0.0,0.0,0.0,0.0,0.0,0.0,0.0,0.0,0.0,0.0,0.0,0.0,0.0,0.0,-2.0297,-2.1295,-2.244,-2.3684,-2.3761,-2.4125,-2.4799,-2.5428,-2.5571,-2.5182,-2.5182,-2.4939,-2.4477,-2.4552,-2.453,-2.4567,-2.5688,-2.5551,-2.4679,-2.6078,-2.529,-2.3316,-2.3626,0.0,0.0,0.0,0.0,0.0,0.0,0.0,0.0,0.0,0.0,-1.9921,-2.0017,-2.0874,-2.2476,-2.5745,-2.709,-2.8285,-3.1424,-3.2215,-3.244,-3.3416,-3.3553,-3.2893,-3.0875,-2.9824,-2.8541,0.0,0.0,-2.4236,-2.5365,-2.5619,-2.6239,-2.7946,-2.8197,-2.8373,0.0,0.0,0.0,0.0,0.0,0.0,-2.9716,0.0,-2.9767,-2.9792,-2.9792,-2.9792,-2.9792,-2.9792,-2.9792,-2.9792,-2.9792,-2.9792,-2.9792,-2.9792,-2.9792,-2.9792,-2.9792,-2.9792,-2.9792,-2.9792,-2.9792,-2.9792,-2.9792,-2.9792,-2.9792,-2.9792,-2.9792,-2.9792,-2.9792,-2.9402,-2.8775,0.0,0.0,0.0,0.0,0.0,0.0,0.0,0.0,0.0,0.0,0.0,0.0,0.0,0.0,0.0,0.0,0.0,0.0,0.0,0.0,0.0,0.0,0.0,0.0,0.0,0.0,0.0,0.0,0.0,-2.3694,-2.3582,-2.3582,-2.3335,-2.2922,-2.3716,-2.3606,-2.2868,-2.3973,-2.426,-2.3966,0.0,-2.3085,-2.2972,0.0,0.0,0.0,0.0,0.0,0.0,0.0,0.0,0.0,0.0,0.0,-2.1401,-2.3026,-2.4328,-2.5682,-2.7733,-2.9603,-3.116,-3.2001,-3.2215,-3.2339,-3.284,-3.156,-3.0241,-3.0099,-2.8046,-2.5865,0.0,0.0,0.0,-2.4822,-2.5719,0.0,-2.9063,-2.9365,0.0,0.0,0.0,-2.8687,-2.8687,-2.8687,0.0,0.0,-2.939,-2.934,-2.9767,-2.9792,-2.9792,-2.9792,-2.9792,-2.9792,-2.9792,-2.9792,-2.9792,-2.9792,-2.9792,-2.9792,-2.9792,-2.9792,-2.9792,-2.9792,-2.9792,-2.9792,-2.9792,-2.9792,-2.9792,-2.9792,-2.9792,-2.9792,-2.9792,-2.9792,-2.9164,-2.8298,0.0,0.0,0.0,0.0,0.0,0.0,0.0,0.0,0.0,0.0,0.0,0.0,0.0,0.0,0.0,0.0,0.0,0.0,0.0,0.0,0.0,0.0,0.0,0.0,0.0,0.0,0.0,0.0,0.0,0.0,0.0,-2.1924,-2.171,-2.1304,-2.1589,-2.1347,-2.0795,-2.1562,0.0,0.0,0.0,0.0,0.0,0.0,0.0,0.0,0.0,0.0,0.0,0.0,0.0,-2.1358,-2.1607,-2.2273,-2.3341,-2.5266,0.0,-2.7639,-2.9691,-3.1204,-3.2277,-3.2528,-3.2726,-3.2647,-3.1849,-3.0725,-2.9448,-2.7908,-2.5934,0.0,0.0,0.0,0.0,0.0,0.0,0.0,-2.8058,-2.895,-2.939,0.0,-2.9302,0.0,-2.9602,-2.9628,-2.9892,0.0,-2.9754,-2.9453,-2.9779,-2.9792,-2.9792,-2.9792,-2.9792,-2.9792,-2.9792,-2.9792,-2.9792,-2.9792,-2.9792,-2.9792,-2.9792,-2.9792,-2.9792,-2.9792,0.0,-2.9792,-2.9792,-2.9792,-2.9792,-2.9792,-2.9792,-2.9792,-2.9792,-2.9792,-2.9227,-2.8461,0.0,0.0,0.0,0.0,0.0,0.0,0.0,0.0,0.0,0.0,0.0,0.0,0.0,0.0,0.0,0.0,0.0,0.0,0.0,0.0,0.0,0.0,0.0,0.0,0.0,0.0,0.0,0.0,0.0,0.0,0.0,0.0,0.0,0.0,0.0,0.0,0.0,0.0,0.0,0.0,0.0,0.0,0.0,0.0,0.0,0.0,0.0,0.0,0.0,0.0,-2.2286,-2.2632,-2.3418,-2.4508,-2.5818,-2.7397,-2.8204,-2.9159,-3.156,-3.2257,-3.247,-3.3025,-3.3318,-3.2894,-3.0738,-3.0271,-2.9159,-2.518,0.0,0.0,-2.088,0.0,-1.9688,-2.144,0.0,-2.4016,-2.6373,-2.7908,-2.9026,-2.9716,-2.9792,-2.998,-3.0457,-3.0507,-3.0721,-3.1248,-3.0357,-2.9829,-2.9892,-2.9829,-2.9792,-2.9792,-2.9792,-2.9792,-2.9792,-2.9792,-2.9792,-2.9792,-2.9792,-2.9792,-2.9792,-2.9792,-2.9792,-2.9792,-2.9792,0.0,-2.9792,-2.9792,-2.9792,-2.9792,-2.9792,-2.9792,-2.9792,-2.9792,-2.9428,-2.8888,0.0,0.0,0.0,0.0,0.0,0.0,0.0,0.0,0.0,0.0,0.0,0.0,0.0,0.0,0.0,0.0,0.0,0.0,0.0,0.0,0.0,0.0,0.0,0.0,0.0,0.0,0.0,0.0,0.0,0.0,0.0,0.0,0.0,0.0,0.0,0.0,0.0,0.0,0.0,0.0,0.0,0.0,0.0,0.0,0.0,0.0,0.0,0.0,0.0,0.0,-2.3564,-2.4419,-2.6189,-2.7867,-2.9513,-3.1282,-3.1567,-3.1651,-3.308,-3.324,-3.3043,-3.3511,-3.2895,-3.1827,-3.0294,-2.845,0.0,0.0,0.0,-2.0923,-2.0024,-2.0101,0.0,-2.2552,0.0,0.0,0.0,0.0,-2.8637,0.0,0.0,0.0,0.0,0.0,0.0,0.0,0.0,-2.9993,-3.0457,-3.0043,-2.9792,-2.9792,-2.9792,-2.9792,-2.9792,-2.9792,-2.9792,-2.9792,-2.9792,-2.9792,-2.9792,-2.9792,-2.9792,-2.9792,-2.9792,0.0,-2.9792,-2.9792,-2.9792,-2.9792,-2.9792,-2.9792,-2.9792,-2.9792,-2.9428,-2.8888,0.0,0.0,0.0,0.0,0.0,0.0,0.0,0.0,0.0,0.0,0.0,0.0,0.0,0.0,0.0,0.0,0.0,0.0,0.0,0.0,0.0,0.0,0.0,0.0,0.0,0.0,0.0,0.0,0.0,0.0,0.0,0.0,0.0,0.0,0.0,0.0,0.0,0.0,0.0,0.0,0.0,0.0,0.0,0.0,0.0,0.0,0.0,0.0,0.0,0.0,-2.3733,-2.5298,-2.7495,-2.9425,-3.114,-3.2551,-3.3107,-3.3498,-3.4579,-3.4791,-3.4656,-3.4566,-3.3745,-3.2131,-2.9096,0.0,0.0,0.0,0.0,-2.0079,-1.9768,0.0,0.0,0.0,0.0,0.0,0.0,0.0,0.0,0.0,0.0,0.0,0.0,0.0,0.0,0.0,0.0,-3.062,-3.062,-3.0093,-2.9792,-2.9792,-2.9792,-2.9792,-2.9792,-2.9792,-2.9792,-2.9792,-2.9792,-2.9792,-2.9792,-2.9792,-2.9792,-2.9792,-2.9792,0.0,-2.9792,-2.9792,-2.9792,-2.9792,-2.9792,-2.9792,-2.9792,-2.9792,-2.9616,-2.934,0.0,0.0,0.0,0.0,0.0,0.0,0.0,0.0,-1.4805,-1.5573,-1.5363,-1.5039,-1.4822,-1.4099,0.0,0.0,0.0,0.0,0.0,0.0,0.0,0.0,0.0,0.0,0.0,0.0,0.0,0.0,0.0,0.0,0.0,0.0,0.0,0.0,0.0,0.0,0.0,0.0,0.0,0.0,0.0,0.0,0.0,0.0,0.0,0.0,0.0,0.0,0.0,0.0,-2.3007,-2.4887,-2.7016,-2.9362,-3.1551,-3.2472,-3.3482,-3.4528,-3.5604,-3.6038,-3.6071,-3.5572,-3.4447,-3.237,-2.8096,-2.6107,0.0,0.0,-1.9708,-1.9708,-1.9708,0.0,0.0,0.0,0.0,0.0,0.0,0.0,0.0,0.0,0.0,0.0,0.0,0.0,0.0,0.0,0.0,0.0,-3.047,-3.003,-2.9792,-2.9792,-2.9792,-2.9792,-2.9792,-2.9792,-2.9792,-2.9792,-2.9792,-2.9792,-2.9792,-2.9792,-2.9792,-2.9792,-2.9792,0.0,0.0,-2.9792,-2.9792,-2.9792,-2.9792,-2.9792,-2.9792,-2.9792,-2.9792,-2.9729,0.0,0.0,0.0,0.0,0.0,0.0,0.0,0.0,-1.4234,-1.5676,-1.4545,-1.4161,-1.5614,-1.4954,0.0,0.0,0.0,0.0,0.0,0.0,0.0,0.0,0.0,0.0,0.0,0.0,0.0,0.0,0.0,0.0,0.0,0.0,0.0,0.0,0.0,0.0,0.0,0.0,0.0,0.0,0.0,0.0,0.0,0.0,0.0,0.0,0.0,0.0,0.0,0.0,0.0,-2.2274,-2.3651,-2.7079,-3.0743,-3.144,0.0,0.0,-3.5554,-3.6038,-3.6131,-3.5915,-3.3951,-3.1288,-2.8249,0.0,0.0,0.0,-1.9708,-1.9708,-1.9708,-1.9698,0.0,0.0,0.0,0.0,0.0,0.0,0.0,0.0,0.0,0.0,0.0,0.0,0.0,0.0,0.0,0.0,-2.9892,-2.9817,-2.9792,-2.9792,-2.9792,-2.9792,-2.9792,-2.9792,-2.9792,-2.9792,-2.9792,-2.9792,-2.9792,-2.9792,-2.9792,-2.9792,-2.9792,0.0,0.0,-2.9792,-2.9792,-2.9792,-2.9792,-2.9792,-2.9792,-2.9792,-2.9792,-2.9779,0.0,0.0,0.0,0.0,0.0,0.0,0.0,-1.4196,-1.4495,-1.4989,-1.4856,-1.4803,-1.5039,-1.4828,0.0,0.0,0.0,0.0,0.0,0.0,0.0,0.0,0.0,0.0,0.0,0.0,0.0,0.0,0.0,0.0,0.0,0.0,0.0,0.0,0.0,0.0,0.0,0.0,0.0,0.0,0.0,0.0,0.0,0.0,0.0,0.0,0.0,0.0,0.0,0.0,0.0,0.0,-2.0335,-2.231,0.0,0.0,-3.1308,-3.3353,-3.4695,-3.6242,-3.7303,-3.6481,-3.3942,-3.0955,-2.823,0.0,0.0,-2.0082,-1.9708,-1.9708,-1.9708,-1.9708,-1.9601,0.0,0.0,0.0,0.0,0.0,0.0,0.0,0.0,0.0,0.0,0.0,0.0,0.0,0.0,0.0,-2.9804,-2.9792,-2.9792,-2.9792,-2.9792,-2.9792,-2.9792,-2.9792,-2.9792,-2.9792,-2.9792,-2.9792,-2.9792,-2.9792,-2.9792,-2.9792,-2.9792,0.0,0.0,-2.9792,-2.9792,-2.9792,-2.9792,-2.9792,-2.9792,-2.9792,-2.9792,-2.9792,0.0,0.0,0.0,0.0,0.0,0.0,-1.3843,-1.4251,-1.4486,-1.4579,-1.4796,-1.4862,-1.4628,-1.4555,-1.4445,-1.4223,0.0,0.0,0.0,0.0,0.0,0.0,0.0,0.0,0.0,0.0,0.0,0.0,0.0,0.0,0.0,0.0,0.0,0.0,0.0,0.0,0.0,0.0,0.0,0.0,0.0,0.0,0.0,0.0,0.0,0.0,0.0,0.0,0.0,0.0,0.0,0.0,0.0,0.0,0.0,0.0,-2.8697,-3.1375,-3.2886,-3.522,-3.6971,-3.5878,-3.311,-2.9986,0.0,0.0,-2.1081,-1.9947,-1.9708,-1.9708,-1.9708,-1.9708,-1.946,-1.8779,0.0,0.0,0.0,0.0,0.0,0.0,0.0,0.0,0.0,0.0,0.0,0.0,0.0,0.0,-3.0216,-3.0216,-3.0113,-2.9792,-2.9792,-2.9792,-2.9792,-2.9792,-2.9792,-2.9792,-3.0075,-3.0216,-3.0203,-3.0495,-3.0633,-3.0608,-3.0317,0.0,0.0,-3.0037,-2.996,-3.0177,-2.9895,-2.9792,-2.9792,-2.9792,-2.9792,-2.9792,0.0,0.0,0.0,0.0,0.0,0.0,0.0,0.0,-1.3904,-1.4691,-1.399,-1.3778,-1.4701,-1.4276,-1.3994,-1.4182,0.0,0.0,0.0,0.0,0.0,0.0,0.0,0.0,0.0,0.0,0.0,-1.6224,0.0,0.0,0.0,0.0,0.0,0.0,0.0,0.0,0.0,0.0,0.0,0.0,0.0,0.0,0.0,0.0,0.0,0.0,0.0,0.0,0.0,0.0,0.0,0.0,0.0,0.0,0.0,0.0,-2.4575,-2.8079,-3.0013,-3.2497,-3.4384,-3.3694,-3.1061,-2.8098,0.0,0.0,-2.0509,-1.9824,-1.9708,-1.9708,-1.9708,-1.9708,-1.935,-1.8283,-1.8106,0.0,0.0,0.0,0.0,0.0,0.0,0.0,0.0,0.0,0.0,0.0,0.0,0.0,-3.1143,-3.118,-3.0758,-2.983,-2.9792,-2.9792,-2.9792,-2.9792,-2.9792,-2.9792,-3.072,-3.118,-3.1217,-3.2141,-3.2558,0.0,0.0,0.0,0.0,-3.057,-3.0343,-3.1106,-3.0177,-2.9792,-2.9792,-2.9792,-2.9792,-2.9792,0.0,0.0,0.0,0.0,0.0,0.0,0.0,0.0,-1.4002,-1.3978,-1.371,-1.3642,-1.3957,-1.3923,-1.3763,-1.3407,0.0,0.0,0.0,0.0,0.0,0.0,0.0,0.0,0.0,0.0,-1.5567,-1.5511,-1.4972,-1.4678,0.0,0.0,0.0,0.0,0.0,0.0,0.0,0.0,0.0,0.0,0.0,0.0,0.0,0.0,0.0,0.0,0.0,0.0,0.0,0.0,0.0,0.0,0.0,0.0,0.0,0.0,0.0,0.0,-2.6617,-2.8771,-3.0298,-2.9651,-2.7649,-2.5576,-2.4477,0.0,-1.9944,-1.9753,-1.9708,-1.9708,-1.9708,-1.9708,-1.946,-1.8746,-1.8651,0.0,0.0,0.0,0.0,0.0,0.0,0.0,0.0,0.0,0.0,0.0,0.0,0.0,-3.2069,-3.1536,-3.1082,-3.0758,-3.1365,-3.1415,-3.0758,-3.1402,-3.1719,-3.1719,-3.1997,-3.2177,-3.2177,-3.2464,-3.2593,0.0,0.0,0.0,0.0,-3.1974,-3.1901,-3.2141,-3.1829,-3.1719,-3.1719,-3.1719,-3.1719,-3.1642,0.0,0.0,0.0,0.0,0.0,0.0,0.0,0.0,-1.4072,-1.3768,-1.3655,-1.3578,-1.3524,-1.3746,-1.3753,-1.3367,0.0,0.0,0.0,0.0,0.0,0.0,0.0,0.0,0.0,-1.4665,-1.4609,-1.4608,-1.402,-1.3751,-1.3705,-1.283,-1.2415,0.0,0.0,0.0,0.0,0.0,0.0,0.0,0.0,0.0,-1.5105,0.0,0.0,0.0,0.0,0.0,0.0,0.0,0.0,0.0,0.0,0.0,0.0,0.0,-1.8313,0.0,0.0,-2.5211,-2.6617,-2.6207,-2.4971,0.0,0.0,0.0,-1.9708,-1.9708,-1.9708,-1.9708,-1.9708,-1.953,-1.9281,-1.8949,-1.8945,0.0,0.0,0.0,0.0,0.0,0.0,0.0,0.0,0.0,0.0,0.0,0.0,0.0,-3.3066,-3.2558,-3.2249,-3.2249,-3.25,-3.2321,-3.1742,-3.2321,-3.2593,-3.2593,-3.2961,-3.3136,-3.3136,-3.3498,-3.3685,0.0,0.0,0.0,0.0,-3.289,-3.282,-3.3101,-3.2749,-3.2593,-3.2579,-3.2309,-3.2364,-3.251,0.0,0.0,0.0,0.0,0.0,0.0,0.0,0.0,0.0,0.0,0.0,-1.3522,-1.3353,-1.3668,0.0,0.0,0.0,0.0,0.0,0.0,0.0,0.0,0.0,0.0,0.0,-1.3138,-1.316,-1.3536,-1.2681,-1.2453,-1.2786,-1.222,-1.1939,-1.1969,0.0,0.0,0.0,0.0,0.0,0.0,0.0,0.0,0.0,0.0,0.0,0.0,0.0,0.0,0.0,0.0,0.0,0.0,0.0,0.0,0.0,0.0,0.0,0.0,0.0,0.0,0.0,0.0,0.0,0.0,0.0,0.0,0.0,0.0,0.0,-1.9708,-1.9708,-1.9262,-1.8912,-1.8949,0.0,0.0,0.0,0.0,0.0,0.0,0.0,0.0,0.0,0.0,0.0,0.0,0.0,0.0,-3.4061,-3.4027,-3.4027,-3.4095,-3.3241,-3.2784,-3.2713,-3.2784,-3.282,-3.282,-3.3671,-3.4095,-3.4129,-3.5067,-3.5504,0.0,0.0,0.0,0.0,-3.3547,-3.331,-3.4027,-3.3136,-3.2792,-3.2681,-3.2097,-3.2208,-3.2562,0.0,0.0,0.0,0.0,0.0,0.0,0.0,0.0,0.0,0.0,0.0,-1.3369,-1.2771,-1.3418,0.0,0.0,0.0,0.0,0.0,0.0,0.0,0.0,0.0,0.0,0.0,-1.3138,-1.295,-1.2831,-1.2916,-1.2912,-1.2816,-1.3151,-1.3319,-1.3304,-1.2954,0.0,0.0,0.0,0.0,0.0,0.0,0.0,0.0,0.0,0.0,0.0,-1.2651,-1.25,0.0,0.0,0.0,0.0,0.0,0.0,0.0,0.0,-1.55,-1.6248,-1.7339,0.0,-1.9529,-1.9792,0.0,0.0,0.0,0.0,0.0,0.0,0.0,0.0,0.0,0.0,0.0,0.0,0.0,0.0,0.0,0.0,0.0,0.0,0.0,0.0,0.0,0.0,0.0,0.0,0.0,-3.3359,-3.5067,-3.4428,-3.4361,-3.5133,-3.492,-3.4442,-3.3671,-3.4442,-3.482,-3.482,-3.5019,-3.5133,-3.5166,-3.5392,-3.5504,0.0,0.0,0.0,-3.5472,-3.5001,-3.4953,-3.5133,-3.492,-3.4497,-3.4086,-3.4453,-3.4041,-3.3277,0.0,0.0,0.0,0.0,0.0,0.0,0.0,0.0,0.0,0.0,0.0,0.0,0.0,0.0,0.0,0.0,0.0,0.0,0.0,0.0,0.0,0.0,0.0,0.0,-1.3396,-1.3015,-1.2902,-1.3061,-1.3021,-1.3106,-1.3268,-1.3618,-1.3797,-1.3795,-1.3716,0.0,0.0,0.0,0.0,0.0,-1.5308,0.0,0.0,0.0,0.0,0.0,-1.2462,-1.2118,0.0,-1.2622,-1.2594,-1.246,0.0,0.0,0.0,0.0,-1.5263,-1.6128,-1.6623,-1.7348,-1.8077,-1.8588,-1.9067,-1.9379,0.0,0.0,0.0,0.0,0.0,0.0,0.0,0.0,0.0,0.0,0.0,0.0,0.0,0.0,0.0,0.0,0.0,0.0,0.0,0.0,0.0,0.0,0.0,-3.4375,-3.5424,-3.4986,-3.4953,-3.5472,-3.5504,-3.5246,-3.4691,-3.5246,-3.5504,-3.5504,-3.5504,-3.5504,-3.5504,-3.5504,-3.5504,0.0,0.0,0.0,-3.504,-3.504,-3.4861,-3.4607,-3.4921,-3.4622,-3.4099,-3.4442,-3.4113,-3.3455,0.0,0.0,0.0,0.0,0.0,0.0,0.0,0.0,0.0,0.0,0.0,0.0,0.0,0.0,0.0,0.0,0.0,0.0,0.0,0.0,0.0,0.0,0.0,-1.3569,-1.3566,-1.3034,-1.3093,-1.3775,-1.3321,-1.3403,-1.3959,-1.41,-1.4149,-1.4119,-1.4679,-1.5434,0.0,0.0,0.0,0.0,-1.5944,0.0,0.0,0.0,0.0,0.0,0.0,0.0,0.0,-1.2471,-1.234,-1.2029,-1.2505,0.0,0.0,0.0,0.0,0.0,-1.6966,-1.749,-1.7997,-1.8504,-1.917,-1.9703,0.0,0.0,0.0,0.0,0.0,0.0,0.0,0.0,0.0,0.0,0.0,0.0,0.0,0.0,0.0,0.0,0.0,0.0,0.0,0.0,0.0,0.0,0.0,-3.5504,-3.5504,-3.5504,-3.5504,-3.5504,-3.5504,-3.5459,-3.5355,-3.5355,-3.5355,-3.5355,-3.5355,-3.5295,-3.5205,-3.531,-3.5295,-3.519,0.0,0.0,-3.4354,-3.4354,-3.3993,-3.3559,-3.4144,-3.3918,-3.3365,-3.3455,-3.3365,-3.311,0.0,0.0,0.0,0.0,0.0,0.0,0.0,0.0,0.0,0.0,0.0,0.0,0.0,0.0,0.0,0.0,0.0,0.0,0.0,0.0,0.0,0.0,-1.3421,-1.371,-1.4318,-1.374,-1.3802,-1.4532,-1.4516,-1.4556,-1.4676,-1.5515,-1.5754,-1.5507,-1.5834,-1.6093,-1.6276,-1.5809,-1.639,-1.7507,-1.6153,0.0,0.0,0.0,0.0,0.0,0.0,0.0,0.0,-1.191,-1.2265,-1.2576,-1.21,0.0,0.0,0.0,0.0,0.0,-1.8171,-1.8647,-1.8647,-1.8346,-1.9077,-1.9687,0.0,0.0,0.0,0.0,0.0,0.0,0.0,0.0,0.0,0.0,0.0,0.0,0.0,0.0,0.0,0.0,0.0,0.0,0.0,0.0,0.0,0.0,0.0,-3.5504,-3.5504,-3.5504,-3.5504,-3.5504,-3.5504,-3.522,-3.4668,-3.4668,-3.4668,-3.4668,-3.4668,-3.4337,-3.3829,-3.4382,-3.4322,-3.3799,0.0,-3.3739,-3.3649,-3.3649,-3.3589,-3.3499,-3.3604,-3.3245,-3.2736,-3.329,-3.2796,-3.1795,0.0,0.0,0.0,0.0,0.0,0.0,0.0,0.0,0.0,0.0,0.0,0.0,0.0,0.0,0.0,0.0,0.0,0.0,0.0,0.0,0.0,0.0,-1.3396,-1.3557,-1.3904,-1.3557,-1.3804,-1.4651,-1.4753,-1.499,-1.5349,-1.5998,-1.6202,-1.6015,-1.6135,-1.6105,-1.5898,-1.5691,-1.5984,-1.6549,0.0,0.0,0.0,0.0,0.0,0.0,0.0,0.0,0.0,0.0,-1.225,-1.2684,-1.1999,0.0,0.0,0.0,0.0,0.0,-1.7989,-1.8607,-1.8837,-1.858,-1.9327,-1.9948,-1.9366,0.0,0.0,0.0,0.0,0.0,0.0,0.0,0.0,0.0,0.0,0.0,0.0,0.0,0.0,0.0,0.0,0.0,0.0,0.0,0.0,0.0,0.0,0.0,-3.5504,-3.5504,-3.5325,-3.4966,-3.4951,-3.4622,-3.3979,-3.3589,-3.3589,-3.3948,-3.3948,-3.3784,-3.3499,-3.3814,-3.3784,-3.3499,0.0,-3.329,-3.2961,-3.2961,-3.2766,-3.2467,-3.2826,-3.2557,-3.1989,-3.2317,-3.2019,-3.1511,0.0,0.0,0.0,0.0,0.0,0.0,0.0,0.0,0.0,0.0,0.0,0.0,0.0,0.0,0.0,0.0,0.0,0.0,0.0,0.0,-1.354,-1.3405,-1.3337,-1.3506,-1.3912,-1.3729,-1.4169,-1.5238,-1.5173,-1.5455,-1.6039,-1.638,-1.6549,-1.6552,-1.6205,-1.5986,-1.5825,-1.53,-1.5274,-1.5568,0.0,0.0,0.0,0.0,0.0,0.0,0.0,0.0,0.0,0.0,0.0,0.0,0.0,0.0,0.0,-1.5006,-1.5931,-1.7088,-1.7848,-1.8412,-1.8793,-1.8818,0.0,-2.0235,-2.0376,0.0,0.0,0.0,0.0,0.0,0.0,0.0,0.0,0.0,0.0,0.0,0.0,0.0,0.0,0.0,0.0,0.0,0.0,0.0,0.0,0.0,0.0,0.0,-3.504,-3.504,-3.4801,-3.4294,-3.4279,-3.3933,-3.3275,-3.2766,-3.2766,-3.326,-3.326,-3.3185,-3.3036,-3.32,-3.3185,-3.3036,-3.3036,-3.2751,-3.2258,-3.2258,-3.1959,-3.1555,-3.2064,-3.1854,-3.1241,-3.1107,-3.1047,-3.1047,0.0,0.0,0.0,0.0,0.0,0.0,0.0,0.0,0.0,0.0,0.0,0.0,0.0,0.0,0.0,0.0,0.0,0.0,0.0,0.0,-1.354,-1.3405,-1.3156,-1.378,-1.5409,-1.5122,-1.5671,-1.7107,-1.6496,-1.6374,-1.6738,-1.7076,-1.7399,-1.7631,-1.6258,-1.6008,-1.6495,-1.4429,-1.4353,-1.5544,-1.4823,0.0,0.0,0.0,0.0,0.0,0.0,0.0,0.0,0.0,0.0,0.0,0.0,0.0,-1.5326,-1.5643,-1.6458,-1.7493,-1.854,-1.8626,-1.8513,-1.8818,0.0,0.0,-2.2088,-2.2478,0.0,0.0,0.0,0.0,0.0,0.0,0.0,0.0,0.0,0.0,0.0,0.0,0.0,0.0,0.0,0.0,0.0,0.0,0.0,0.0,0.0,0.0,-3.3634,-3.3634,-3.3619,-3.3559,-3.3559,-3.3245,-3.2587,-3.2512,-3.2512,-3.2557,-3.2557,-3.2243,-3.1675,-3.2273,-3.2228,-3.1645,-3.1645,-3.1615,-3.157,-3.157,-3.154,-3.1511,-3.1555,-3.1152,-3.0507,-2.9939,-2.9756,-2.9756,0.0,0.0,0.0,0.0,0.0,0.0,0.0,0.0,0.0,0.0,0.0,0.0,0.0,0.0,0.0,0.0,0.0,0.0,0.0,0.0,-1.3445,-1.3396,-1.3303,-1.3765,-1.4892,-1.4872,-1.5206,-1.5923,-1.6396,-1.646,-1.6192,-1.6729,-1.6689,-1.6158,-1.556,-1.5308,-1.5257,-1.3946,-1.3997,-1.4832,-1.3927,-1.3783,0.0,0.0,0.0,0.0,0.0,0.0,0.0,0.0,-1.2663,-1.3655,0.0,-1.455,-1.6222,-1.6133,-1.6673,-1.7382,-1.7783,-1.8129,-1.8271,-1.798,0.0,0.0,0.0,0.0,0.0,0.0,0.0,0.0,0.0,0.0,0.0,0.0,0.0,0.0,0.0,0.0,0.0,0.0,0.0,0.0,0.0,0.0,0.0,0.0,0.0,0.0,-3.3499,-3.3499,-3.3305,-3.2901,-3.2886,-3.2572,-3.1884,-3.1869,-3.1869,-3.1869,-3.1869,-3.175,-3.1511,-3.1765,-3.1735,-3.1481,-3.1047,-3.1107,-3.1466,-3.1047,-3.1122,-3.1466,-3.1032,-3.0492,-2.9909,-2.9696,-2.9606,-2.9606,0.0,0.0,0.0,0.0,0.0,0.0,0.0,0.0,0.0,0.0,0.0,0.0,0.0,0.0,0.0,0.0,0.0,0.0,0.0,-1.3598,-1.3396,-1.3396,-1.3396,-1.3642,-1.4141,-1.4466,-1.4841,-1.5259,-1.6041,-1.6204,-1.5799,-1.635,-1.6172,-1.5387,-1.5332,-1.5146,-1.4811,-1.3877,-1.3941,-1.4606,-1.3714,-1.379,0.0,0.0,0.0,0.0,0.0,0.0,0.0,0.0,-1.3348,0.0,0.0,0.0,-1.6593,-1.6351,-1.6771,-1.7259,-1.7016,-1.7297,-1.761,0.0,0.0,0.0,0.0,0.0,0.0,0.0,0.0,0.0,0.0,0.0,0.0,0.0,0.0,0.0,0.0,0.0,0.0,0.0,0.0,0.0,0.0,0.0,0.0,0.0,0.0,0.0,0.0,-3.2751,-3.2677,-3.2183,-3.2168,-3.1854,-3.1182,-3.1182,-3.1077,-3.0883,-3.0883,-3.1107,-3.1496,-3.1271,-3.1182,-3.1152,-3.0717,-3.0657,-3.0853,-3.0417,-3.0492,-3.0823,-3.0163,-2.9639,-2.9277,-2.9052,-2.8978,-2.8978,0.0,0.0,0.0,0.0,0.0,0.0,0.0,0.0,0.0,0.0,0.0,0.0,0.0,0.0,0.0,0.0,0.0,0.0,0.0,-1.3598,-1.3396,-1.3396,-1.3396,-1.3396,-1.3396,-1.4124,-1.4858,-1.5595,-1.5595,-1.5666,-1.5795,-1.6061,-1.6049,-1.5783,-1.5731,-1.5695,-1.5627,-1.4206,-1.4201,-1.5068,-1.4384,-1.4552,-1.5213,0.0,0.0,0.0,0.0,0.0,0.0,0.0,-1.4307,-1.4491,0.0,0.0,0.0,-1.6231,-1.6724,-1.7131,-1.6405,-1.6262,0.0,0.0,0.0,0.0,0.0,0.0,0.0,0.0,0.0,0.0,0.0,0.0,0.0,0.0,0.0,0.0,0.0,0.0,0.0,0.0,0.0,0.0,0.0,0.0,0.0,0.0,0.0,0.0,0.0,-3.1122,-3.1496,-3.1496,-3.1496,-3.1167,-3.0507,-3.0492,-3.0193,-2.9606,-2.9592,-3.0253,-3.1466,-3.0806,-3.0492,-3.0492,-3.0492,-3.0148,-2.9606,-2.9606,-2.9606,-2.9532,-2.8861,-2.8607,-2.8502,-2.7839,-2.76,-2.76,0.0,0.0,0.0,0.0,0.0,0.0,0.0,0.0,0.0,0.0,0.0,0.0,0.0,0.0,0.0,0.0,0.0,0.0,0.0,-1.3598,-1.3396,-1.3396,-1.3396,-1.3396,-1.3396,-1.4124,-1.4858,-1.5595,-1.5595,-1.5161,-1.4341,-1.5376,-1.5577,-1.511,-1.5519,-1.5956,-1.6337,-1.5398,-1.5482,-1.6158,-1.5446,-1.5479,-1.5912,0.0,0.0,0.0,0.0,0.0,0.0,0.0,0.0,0.0,0.0,0.0,0.0,-1.7339,-1.7313,-1.7199,-1.6759,-1.6812,0.0,0.0,0.0,0.0,0.0,0.0,0.0,0.0,0.0,0.0,0.0,0.0,0.0,0.0,0.0,0.0,0.0,0.0,0.0,0.0,0.0,0.0,0.0,0.0,0.0,0.0,0.0,0.0,0.0,-3.0702,-3.0806,-3.0806,-3.0806,-3.0507,-2.9864,-2.9864,-2.9786,-2.9606,-2.9116,-2.934,-3.0163,-2.9953,-2.9864,-2.9834,-2.937,-2.9325,-2.9606,-2.9606,-2.931,-2.8876,-2.8682,-2.8308,-2.7884,-2.7675,-2.76,-2.76,0.0,0.0,0.0,0.0,0.0,0.0,0.0,0.0,0.0,0.0,0.0,0.0,0.0,0.0,0.0,0.0,0.0,0.0,0.0,0.0,-1.3667,-1.4251,-1.3997,-1.398,-1.4268,-1.4716,-1.5155,-1.5595,-1.5595,-1.5145,-1.4323,-1.5404,-1.5648,-1.5211,-1.5867,-1.637,-1.6696,-1.5978,-1.617,-1.6886,-1.616,-1.6289,-1.6859,0.0,0.0,0.0,0.0,0.0,0.0,0.0,0.0,0.0,0.0,0.0,0.0,-1.7283,-1.7129,-1.7014,-1.663,0.0,0.0,0.0,0.0,0.0,0.0,0.0,0.0,0.0,0.0,0.0,0.0,0.0,0.0,0.0,0.0,0.0,0.0,0.0,0.0,0.0,0.0,0.0,0.0,0.0,0.0,0.0,0.0,0.0,0.0,-2.9998,-3.0133,-3.0133,-3.0133,-2.9834,-2.9205,-2.919,-2.9082,-2.8798,-2.8408,-2.8423,-2.8813,-2.9097,-2.919,-2.916,-2.8487,-2.8412,-2.8813,-2.8813,-2.8573,-2.8188,-2.8188,-2.7959,-2.76,-2.76,-2.76,-2.7555,0.0,0.0,0.0,0.0,0.0,0.0,0.0,0.0,0.0,0.0,0.0,0.0,0.0,0.0,0.0,0.0,0.0,0.0,0.0,0.0,-1.4133,-1.5544,-1.496,-1.4909,-1.5578,-1.5692,-1.5692,-1.5595,-1.5595,-1.5459,-1.5203,-1.5885,-1.6077,-1.5878,0.0,-1.6866,-1.6843,-1.6245,-1.6506,-1.729,-1.6691,-1.697,-1.78,-1.78,0.0,0.0,0.0,0.0,0.0,0.0,0.0,0.0,-1.7601,-1.78,-1.7609,-1.6624,-1.6564,-1.6712,0.0,0.0,0.0,0.0,0.0,0.0,0.0,0.0,0.0,0.0,0.0,0.0,0.0,0.0,0.0,0.0,0.0,0.0,0.0,0.0,0.0,0.0,0.0,0.0,0.0,0.0,0.0,0.0,0.0,0.0,0.0,-2.9131,-2.9517,-2.9517,-2.9517,-2.9172,-2.8427,-2.8472,-2.8128,-2.742,-2.748,-2.748,-2.7435,-2.8098,-2.8427,-2.8382,-2.7779,-2.751,-2.7495,-2.7435,-2.745,-2.7495,-2.7435,-2.748,-2.7585,-2.7525,-2.751,-2.742,0.0,0.0,0.0,0.0,0.0,0.0,0.0,0.0,0.0,0.0,0.0,0.0,0.0,0.0,0.0,0.0,0.0,0.0,0.0,0.0,-1.4665,-1.5561,-1.5443,-1.5443,-1.5595,-1.6375,-1.6392,-1.5595,-1.5595,-1.5459,0.0,0.0,0.0,-1.6231,0.0,-1.7349,-1.7572,-1.7428,-1.7496,-1.7676,-1.7535,-1.7603,-1.78,-1.78,-1.7704,0.0,0.0,0.0,0.0,0.0,0.0,0.0,-1.767,-1.78,-1.7755,-1.7519,-1.7133,-1.6776,0.0,0.0,0.0,0.0,0.0,0.0,0.0,0.0,0.0,0.0,0.0,0.0,0.0,0.0,0.0,0.0,0.0,0.0,0.0,0.0,0.0,0.0,0.0,0.0,0.0,0.0,0.0,0.0,0.0,0.0,-2.7794,-2.8442,-2.8816,-2.8816,-2.8816,-2.8233,-2.7036,-2.7555,-2.72,0.0,-2.6557,-2.6527,-2.6048,-2.6722,-2.7021,-2.7021,-2.6896,-2.6821,-2.6752,-2.6243,-2.6333,-2.6752,-2.6243,-2.6662,-2.754,-2.7016,-2.6821,-2.6782,0.0,0.0,0.0,0.0,0.0,0.0,0.0,0.0,0.0,0.0,0.0,0.0,0.0,0.0,0.0,0.0,0.0,0.0,0.0,0.0,0.0,-1.6079,-1.6591,-1.6832,-1.6832,-1.748,-1.7489,-1.6832,-1.7192,0.0,0.0,0.0,0.0,-1.7545,0.0,-1.7647,-1.78,-1.78,-1.78,-1.78,-1.78,-1.78,-1.78,-1.78,-1.7692,-1.7561,-1.7537,0.0,0.0,0.0,0.0,0.0,0.0,0.0,-1.7777,-1.7612,-1.7308,-1.707,0.0,0.0,0.0,0.0,0.0,0.0,0.0,0.0,0.0,0.0,0.0,0.0,0.0,0.0,0.0,0.0,0.0,0.0,0.0,0.0,0.0,0.0,0.0,0.0,0.0,0.0,0.0,0.0,0.0,-2.6273,-2.6617,-2.6976,-2.7171,-2.7171,-2.7171,-2.6826,-2.6123,-2.6452,-2.6288,-2.5615,-2.5959,-2.5779,-2.5143,-2.6153,-2.6422,-2.6138,-2.6452,-2.6408,-2.6093,-2.5749,-2.5809,-2.6093,-2.5749,-2.6033,-2.6587,-2.6243,-2.6123,-2.6078,0.0,0.0,0.0,0.0,0.0,0.0,0.0,0.0,0.0,0.0,0.0,0.0,0.0,0.0,0.0,0.0,0.0,0.0,0.0,0.0,0.0,0.0,-1.7787,-1.8218,-1.827,-1.8489,-1.8469,-1.8198,0.0,0.0,0.0,0.0,0.0,-1.8872,0.0,-1.78,-1.78,-1.7946,-1.7986,-1.8003,-1.8121,-1.8172,-1.8172,-1.8172,-1.8004,-1.7809,-1.8091,-1.774,-1.7242,-1.7752,0.0,0.0,0.0,0.0,-1.7755,-1.7479,-1.7344,-1.7351,0.0,0.0,0.0,0.0,0.0,0.0,0.0,0.0,0.0,0.0,0.0,0.0,0.0,0.0,0.0,0.0,0.0,0.0,0.0,0.0,0.0,0.0,0.0,0.0,0.0,0.0,0.0,0.0,0.0,-2.5458,-2.5574,-2.5679,-2.574,-2.574,-2.574,-2.5679,-2.5574,-2.5601,-2.5435,-2.5106,-2.4986,-2.4694,-2.4306,-2.5525,-2.5839,-2.5457,-2.6019,-2.5944,-2.5435,-2.5315,-2.5307,-2.5435,-2.5315,-2.5405,-2.56,-2.5457,-2.5435,-2.5337,0.0,0.0,0.0,0.0,0.0,0.0,0.0,0.0,0.0,0.0,0.0,0.0,0.0,0.0,0.0,0.0,0.0,0.0,-1.8589,0.0,0.0,-1.8331,-1.8258,-1.831,-1.8537,-1.8576,-1.8469,-1.8198,0.0,0.0,0.0,0.0,0.0,-1.8872,0.0,0.0,-1.7834,-1.8488,-1.8741,-1.8809,-1.9456,-1.9714,-1.9714,-1.9714,-1.9672,-1.9647,-1.9685,-1.924,-1.8581,-1.8385,-1.8055,0.0,0.0,0.0,-1.7789,-1.7755,-1.7526,0.0,0.0,0.0,0.0,0.0,0.0,0.0,0.0,0.0,0.0,0.0,0.0,0.0,0.0,0.0,0.0,0.0,0.0,0.0,0.0,0.0,0.0,0.0,0.0,0.0,0.0,0.0,0.0,0.0,-2.4994,-2.4949,-2.5404,-2.598,-2.6287,-2.6287,-2.6287,-2.601,-2.5426,-2.553,-2.4747,-2.3077,-2.2488,-2.2473,-2.2987,-2.367,-2.4283,-2.4739,-2.4829,-2.4814,-2.4694,-2.4118,-2.4201,-2.4679,-2.4103,-2.4582,-2.554,-2.4948,-2.4739,-2.4724,0.0,0.0,0.0,0.0,0.0,0.0,0.0,0.0,0.0,0.0,0.0,0.0,0.0,0.0,0.0,-1.6872,-1.6164,-1.6381,-1.7994,-1.8165,-1.8187,-1.8146,-1.833,-1.8479,-1.8595,-1.8752,-1.891,0.0,0.0,0.0,0.0,-2.0344,-2.0192,0.0,0.0,0.0,0.0,-1.9389,-1.9524,-1.9541,-1.9866,-2.0002,-2.0002,-2.0002,-2.0002,-2.0002,-2.0002,-1.9788,-1.9435,-1.8872,-1.856,-1.8315,-1.7759,0.0,0.0,0.0,0.0,0.0,0.0,0.0,0.0,0.0,0.0,0.0,0.0,0.0,0.0,0.0,0.0,0.0,0.0,0.0,0.0,0.0,0.0,0.0,0.0,0.0,0.0,0.0,0.0,0.0,0.0,0.0,0.0,0.0,-2.4513,-2.4418,-2.4658,-2.4575,-2.4488,-2.4488,-2.4488,-2.4228,-2.3659,-2.3723,-2.3201,-2.2149,-2.1829,-2.1844,-2.2164,-2.2413,-2.3086,-2.4073,-2.444,-2.4395,-2.4007,-2.3729,-2.3774,-2.4007,-2.3714,-2.3969,-2.4448,-2.4163,-2.4036,-2.4036,0.0,0.0,0.0,0.0,0.0,0.0,0.0,0.0,0.0,0.0,0.0,0.0,0.0,0.0,0.0,0.0,-1.6917,-1.7016,-1.7529,-1.8096,-1.8351,-1.8201,-1.8528,-1.8734,-1.8789,-1.9049,0.0,0.0,0.0,0.0,-2.1288,-2.1417,-2.1478,0.0,-2.0437,0.0,0.0,0.0,0.0,-2.0318,-2.0521,-2.0576,-2.0576,-2.0576,-2.0576,-2.0576,-2.0576,-2.0507,-2.0293,-1.9567,-1.9328,-1.9181,-1.8459,-1.8299,0.0,0.0,0.0,0.0,0.0,0.0,0.0,0.0,0.0,0.0,0.0,0.0,0.0,0.0,0.0,0.0,0.0,0.0,0.0,0.0,0.0,0.0,0.0,0.0,0.0,0.0,0.0,0.0,0.0,0.0,0.0,0.0,-2.397,-2.3868,-2.3979,-2.348,-2.3171,-2.3171,-2.3171,-2.3014,-2.2656,-2.226,-2.1843,-2.144,-2.1261,-2.1276,-2.1455,-2.1455,-2.2054,-2.3146,-2.3834,-2.3924,-2.3595,-2.3595,-2.3595,-2.3595,-2.3595,-2.3595,-2.3595,-2.3595,-2.349,-2.337,0.0,0.0,0.0,0.0,0.0,0.0,0.0,0.0,0.0,0.0,0.0,0.0,-1.6622,-1.7191,-1.7658,-1.7658,-1.6949,-1.6961,-1.7998,-1.8624,-1.9034,-1.9201,-1.9067,0.0,-1.9259,-1.9523,0.0,0.0,0.0,0.0,-2.1591,-2.202,-2.2229,-2.2178,-2.066,-2.0002,-2.0052,0.0,0.0,0.0,0.0,0.0,0.0,0.0,0.0,0.0,0.0,-2.19,-2.1413,-2.0744,-2.0482,-2.0292,-1.962,-1.9632,-1.9761,0.0,0.0,0.0,0.0,0.0,0.0,0.0,0.0,0.0,0.0,0.0,0.0,0.0,0.0,0.0,0.0,0.0,0.0,0.0,0.0,0.0,0.0,0.0,0.0,0.0,0.0,0.0,0.0,0.0,0.0,0.0,-2.3307,-2.3255,-2.3703,-2.3687,-2.3654,-2.3654,-2.3654,-2.3654,-2.3637,-2.2106,-2.1143,-2.0733,-2.0109,-2.0139,-2.0748,-2.0748,-2.1122,-2.1829,-2.2508,-2.3107,-2.3595,-2.3595,-2.3595,-2.3595,-2.3595,-2.3595,-2.3595,-2.3595,-2.3236,-2.2748,0.0,0.0,0.0,0.0,0.0,0.0,0.0,0.0,0.0,0.0,0.0,0.0,0.0,-1.9057,-1.9487,-1.9026,-1.8878,-1.8628,-1.8198,-1.869,-1.8878,-1.8606,-1.8861,-1.9026,-1.9119,-1.9714,0.0,0.0,0.0,-2.128,-2.2296,-2.1809,-2.1939,-2.2533,-2.1796,-2.1485,-2.1502,-2.1786,0.0,0.0,0.0,0.0,0.0,0.0,0.0,0.0,0.0,0.0,0.0,-2.122,-2.0968,-2.082,-2.0066,-1.9895,-1.9849,0.0,0.0,0.0,0.0,0.0,0.0,0.0,0.0,0.0,0.0,0.0,0.0,0.0,0.0,0.0,0.0,0.0,0.0,0.0,0.0,0.0,0.0,0.0,0.0,0.0,0.0,0.0,0.0,0.0,0.0,0.0,0.0,-2.3334,-2.3505,-2.307,-2.2787,-2.2787,-2.2787,-2.265,-2.2355,-2.1239,-2.0582,-2.0436,-1.9939,-1.9828,-2.0049,-2.0049,-2.0423,-2.1062,-2.1321,-2.1784,-2.2383,-2.2383,-2.2383,-2.2413,-2.2853,-2.3032,-2.3077,-2.3445,-2.3227,-2.2703,0.0,0.0,0.0,0.0,0.0,0.0,0.0,0.0,0.0,0.0,0.0,0.0,0.0,0.0,-2.0383,-1.9633,-1.9893,-1.9629,-1.8542,-1.8878,-1.8939,-1.8578,-1.9165,-1.9383,-1.9111,-2.0074,0.0,0.0,0.0,0.0,0.0,-2.2061,-2.2056,-2.2695,-2.263,-2.2531,0.0,0.0,0.0,-2.2296,0.0,0.0,-2.2296,0.0,0.0,0.0,0.0,0.0,0.0,0.0,-2.158,-2.1481,0.0,0.0,0.0,0.0,0.0,0.0,0.0,0.0,0.0,0.0,0.0,0.0,0.0,0.0,0.0,0.0,0.0,0.0,0.0,0.0,0.0,0.0,0.0,0.0,0.0,0.0,0.0,0.0,0.0,0.0,0.0,0.0,0.0,0.0,0.0,0.0,-2.3038,-2.2567,-2.2296,-2.2296,-2.2296,-2.2061,-2.1597,-2.1039,-2.0584,-2.0297,-2.0035,-1.9821,-1.9708,-1.9708,-1.9929,-2.0363,-2.0363,-2.0872,-2.1695,-2.1695,-2.1695,-2.1739,-2.2194,-2.2358,-2.2418,-2.2802,-2.2562,-2.2044,0.0,0.0,0.0,0.0,0.0,0.0,0.0,0.0,0.0,-1.9344,0.0,0.0,0.0,0.0,0.0,-1.9422,-1.9846,-1.983,-1.9092,-1.9229,-1.9363,-1.9363,-2.0126,-2.0162,-1.9389,-2.0662,0.0,0.0,0.0,0.0,0.0,0.0,-2.269,-2.2733,-2.3057,-2.3021,-2.2721,0.0,-2.2537,-2.2296,0.0,-2.2296,-2.2296,0.0,0.0,0.0,-2.2296,-2.2296,0.0,0.0,0.0,0.0,0.0,0.0,0.0,0.0,0.0,0.0,0.0,0.0,0.0,0.0,0.0,0.0,0.0,0.0,0.0,0.0,0.0,0.0,0.0,0.0,0.0,0.0,0.0,0.0,0.0,0.0,0.0,0.0,0.0,0.0,0.0,0.0,0.0,0.0,-2.2296,-2.2296,-2.2296,-2.2296,-2.2296,-2.2296,-2.2296,-2.2061,-2.1597,-2.1582,-2.1149,-2.0297,-2.0297,-2.0072,-1.9708,-1.9708,-1.9708,-1.9708,-1.9708,-2.0441,-2.1635,-2.1635,-2.1635,-2.1635,-2.1665,-2.1665,-2.1665,-2.168,-2.1276,-2.0703,0.0,0.0,0.0,0.0,0.0,0.0,0.0,0.0,0.0,0.0,0.0,0.0,-2.0239,-2.0671,-2.0901,-2.0692,-2.0944,-2.0818,-2.0131,-2.0508,-2.0771,-2.0816,-2.1221,-2.1335,-2.1115,-2.2045,0.0,0.0,0.0,0.0,0.0,0.0,0.0,0.0,-2.3153,-2.3153,-2.3045,-2.281,0.0,0.0,-2.2296,-2.2296,0.0,0.0,0.0,0.0,0.0,-2.2296,-2.2296,0.0,-2.2296,-2.2296,0.0,0.0,0.0,0.0,0.0,0.0,-1.9541,0.0,0.0,0.0,0.0,0.0,0.0,0.0,0.0,0.0,0.0,0.0,0.0,0.0,0.0,0.0,0.0,0.0,0.0,0.0,0.0,0.0,0.0,0.0,0.0,0.0,0.0,0.0,-2.2296,-2.2296,-2.2296,-2.2296,-2.2296,-2.2296,-2.2296,-2.2061,-2.1597,-2.1306,-2.0862,-2.0297,-2.0017,-1.9818,-1.9708,-1.9708,-1.9708,-1.9708,-1.9708,-1.9917,-2.0262,-2.0262,-2.0262,-2.0307,-2.0797,-2.0991,-2.1051,-2.1515,-2.1276,-2.0703,0.0,0.0,0.0,0.0,0.0,0.0,0.0,0.0,0.0,0.0,0.0,0.0,-2.1194,-2.147,-2.1546,-2.1224,-2.1383,-2.1257,-2.0689,-2.1062,-2.1385,-2.1553,-2.2035,-2.2143,-2.1812,-2.2593,0.0,0.0,0.0,0.0,0.0,0.0,0.0,0.0,0.0,0.0,0.0,0.0,0.0,0.0,-2.2296,0.0,0.0,-2.2296,-2.2296,0.0,0.0,0.0,-2.2296,-2.2296,-2.2296,0.0,0.0,0.0,0.0,0.0,0.0,0.0,0.0,0.0,0.0,0.0,0.0,0.0,-1.9198,-1.9625,0.0,0.0,0.0,0.0,0.0,0.0,0.0,0.0,0.0,0.0,0.0,0.0,0.0,0.0,0.0,0.0,0.0,-2.2296,-2.2296,-2.2296,-2.2296,-2.2296,-2.2296,-2.2296,-2.2296,-2.2296,-2.2296,-2.218,-2.1899,-2.166,-2.1213,-2.0583,-2.0347,-2.005,-1.9708,-1.9708,-1.9708,-1.9708,-1.9708,-1.9708,-1.9708,-1.9708,-1.9708,-1.9738,-2.0124,-2.0288,-2.0333,-2.0722,-2.0617,-2.0288,0.0,0.0,0.0,0.0,0.0,0.0,0.0,0.0,0.0,0.0,-2.1358,-2.1777,-2.224,-2.2296,-2.204,-2.1376,-2.1481,-2.1479,-2.1178,-2.1343,-2.1638,-2.2061,-2.2713,-2.2768,-2.2088,-2.2776,0.0,0.0,0.0,0.0,0.0,0.0,0.0,0.0,0.0,0.0,0.0,0.0,0.0,-2.2296,-2.2296,-2.2296,0.0,0.0,-2.2296,0.0,-2.2296,-2.2296,-2.2296,-2.2296,-2.2296,0.0,0.0,0.0,0.0,0.0,-2.1786,0.0,0.0,0.0,0.0,0.0,0.0,0.0,-2.0513,-2.0399,-2.0289,0.0,0.0,0.0,0.0,0.0,0.0,0.0,0.0,0.0,0.0,0.0,0.0,0.0,0.0,0.0,-2.2296,-2.2296,-2.2296,-2.2296,-2.2296,-2.2296,-2.2296,-2.2296,-2.2296,-2.2296,-2.2296,-2.2265,-2.2223,-2.218,-2.1736,-2.0926,-2.0878,-2.0464,-1.9708,-1.9708,-1.9708,-1.9708,-1.9708,-1.9708,-1.9708,-1.9708,-1.9708,-1.9708,-1.9708,-1.9708,-1.9708,-1.9708,-1.9708,-1.9708,-1.9501,0.0,0.0,0.0,0.0,0.0,0.0,0.0,0.0,0.0,-2.2384,-2.218,-2.2293,-2.2296,-2.2229,-2.2107,-2.2115,-2.2319,-2.2723,-2.254,-2.2815,-2.3684,-2.3618,-2.3626,-2.3731,-2.3896,-2.3969,0.0,0.0,0.0,0.0,0.0,0.0,0.0,0.0,0.0,0.0,0.0,0.0,-2.2296,-2.2296,0.0,-2.2296,-2.2296,-2.2296,-2.2296,-2.2296,-2.2296,-2.2296,0.0,-2.2296,-2.2296,0.0,0.0,0.0,0.0,0.0,0.0,0.0,0.0,0.0,0.0,0.0,0.0,-1.9532,-1.9232,-1.9367,0.0,0.0,0.0,0.0,0.0,0.0,0.0,0.0,0.0,0.0,0.0,0.0,0.0,0.0,0.0,-2.2296,-2.2296,-2.2296,-2.2296,-2.2296,-2.2296,-2.2296,-2.2296,-2.2296,-2.2296,-2.2296,-2.212,-2.1733,-2.1415,-2.0975,-2.0433,-2.0104,-1.9856,-1.9708,-1.9708,-1.9708,-1.9708,-1.9708,-1.9708,-1.9708,-1.9708,-1.9708,-1.9708,-1.9708,-1.9708,-1.9708,-1.9708,-1.9708,-1.9708,-2.0165,0.0,0.0,0.0,0.0,0.0,0.0,0.0,0.0,0.0,-2.2567,-2.2349,-2.2473,-2.25,-2.2567,-2.2721,-2.2594,-2.2691,-2.3165,-2.3045,-2.3247,-2.3917,-2.3937,-2.4026,-2.4208,-2.419,-2.419,0.0,0.0,0.0,0.0,0.0,0.0,0.0,0.0,0.0,0.0,0.0,-2.2537,-2.2296,-2.2296,0.0,-2.2296,-2.2296,-2.2296,-2.2296,-2.2296,-2.2296,-2.2296,-2.2296,-2.2296,0.0,0.0,-2.2296,-2.2296,0.0,-2.204,-2.1837,0.0,0.0,0.0,-2.0703,0.0,0.0,0.0,-1.9739,-1.9761,-2.091,0.0,0.0,0.0,0.0,0.0,0.0,0.0,0.0,0.0,0.0,0.0,0.0,0.0,0.0,-2.1752,-2.1752,-2.1904,-2.2262,-2.2296,-2.2296,-2.2296,-2.2296,-2.2296,-2.2296,-2.2296,-2.2061,-2.1597,-2.1399,-2.0959,-2.0297,-2.0089,-1.9892,-1.9708,-1.9708,-1.9708,-1.9708,-1.9708,-1.9708,-1.9708,-1.9708,-1.9708,-1.9708,-1.9708,-1.9708,-1.9708,-1.9708,-1.9708,-1.9708,-2.0476,0.0,0.0,0.0,0.0,0.0,0.0,0.0,0.0,0.0,0.0,0.0,0.0,0.0,0.0,0.0,-2.2776,-2.2764,0.0,0.0,-2.3288,-2.3682,-2.3966,-2.4123,-2.419,-2.419,-2.419,-2.419,0.0,0.0,0.0,0.0,0.0,0.0,0.0,0.0,0.0,0.0,0.0,-2.2374,0.0,-2.2296,-2.2296,-2.2296,-2.2296,-2.2296,-2.2296,-2.2296,-2.2296,-2.2296,0.0,-2.2296,-2.2296,-2.2296,0.0,0.0,0.0,0.0,0.0,0.0,0.0,0.0,0.0,-1.9841,0.0,0.0,0.0,-2.1803,0.0,0.0,0.0,0.0,0.0,0.0,0.0,0.0,0.0,0.0,0.0,0.0,0.0,0.0,0.0,-2.1071,-2.1396,-2.2243,-2.2161,-2.2158,-2.2296,-2.2296,-2.2296,-2.2296,-2.2296,-2.2061,-2.1597,-2.1521,-2.1086,-2.0297,-2.0212,-2.0017,-1.9708,-1.9708,-1.9708,-1.9708,-1.9708,-1.9708,-1.9708,-1.9708,-1.9708,-1.9708,-1.9708,-1.9708,-1.9708,-1.9708,-1.9708,-1.9708,-1.9815,-2.0039,0.0,0.0,0.0,0.0,0.0,0.0,0.0,0.0,0.0,0.0,0.0,0.0,0.0,0.0,0.0,0.0,-2.2733,0.0,0.0,-2.3671,-2.3753,-2.3896,-2.419,-2.419,-2.419,-2.419,0.0,0.0,0.0,0.0,0.0,0.0,-2.3837,0.0,0.0,0.0,-2.2747,0.0,-2.2402,-2.2296,0.0,-2.2296,-2.2296,-2.2296,-2.2296,-2.2296,-2.2296,0.0,-2.2296,-2.2296,0.0,-2.2296,-2.2296,0.0,0.0,0.0,0.0,0.0,0.0,0.0,-2.1549,0.0,0.0,0.0,-2.0251,-2.1126,0.0,0.0,0.0,0.0,0.0,0.0,0.0,0.0,0.0,0.0,0.0,0.0,0.0,0.0,0.0,-2.0634,-2.0989,-2.2206,-2.1684,-2.1613,-2.2262,-2.2296,-2.2296,-2.2296,-2.2296,-2.2061,-2.1597,-2.1244,-2.0813,-2.0297,-1.9929,-1.9747,-1.9708,-1.9708,-1.9708,-1.9708,-1.9708,-1.9708,-1.9708,-1.9708,-1.9708,-1.9708,-1.9708,-1.9708,-1.9708,-1.9708,-1.9708,-1.9708,-2.1532,-2.1722,0.0,0.0,0.0,0.0,0.0,0.0,0.0,0.0,0.0,0.0,0.0,0.0,0.0,0.0,0.0,-2.317,0.0,0.0,0.0,0.0,0.0,0.0,-2.419,-2.419,-2.419,-2.419,-2.419,0.0,0.0,0.0,0.0,0.0,-2.4046,0.0,-2.3392,0.0,0.0,0.0,0.0,0.0,0.0,-2.2296,-2.2296,-2.2296,-2.2296,-2.2296,-2.2296,0.0,-2.2296,0.0,0.0,0.0,0.0,0.0,0.0,0.0,0.0,0.0,0.0,0.0,0.0,0.0,-2.1803,0.0,-2.0234,0.0,0.0,0.0,0.0,0.0,0.0,0.0,-1.9098,0.0,0.0,0.0,0.0,0.0,0.0,0.0,0.0,0.0,0.0,0.0,-2.139,-2.1511,-2.1806,-2.2122,-2.2296,-2.2296,-2.2032,-2.1794,-2.1597,-2.0927,-2.05,-2.0297,-1.9892,-1.9708,-1.9708,-1.9708,-1.9708,-1.9708,-1.9708,-1.9708,-1.9708,-1.9708,-1.9708,-1.9708,-1.9708,-1.9708,-1.9708,-1.9708,-1.9708,-1.9708,-2.3235,0.0,0.0,0.0,0.0,0.0,0.0,0.0,0.0,0.0,0.0,0.0,-2.3388,-2.3639,0.0,0.0,0.0,-2.3565,0.0,0.0,-2.2947,0.0,0.0,0.0,0.0,0.0,-2.4161,-2.4064,0.0,0.0,0.0,0.0,0.0,0.0,0.0,-2.3703,-2.3323,0.0,0.0,-2.2398,-2.2321,-2.2296,-2.2296,-2.2296,-2.2296,-2.2296,-2.2296,-2.2296,-2.2296,-2.2296,-2.2296,0.0,-2.2296,0.0,0.0,0.0,0.0,0.0,-2.2296,0.0,0.0,0.0,0.0,0.0,0.0,0.0,0.0,0.0,0.0,0.0,0.0,0.0,0.0,0.0,0.0,-1.9506,0.0,0.0,0.0,0.0,0.0,0.0,0.0,0.0,0.0,-2.0703,-2.0831,-2.1044,-2.1399,-2.1664,-2.1902,-2.2089,-2.1658,-2.1368,-2.1243,-2.0748,-2.0365,-2.0141,-1.9947,-1.9818,-1.9708,-1.9708,-1.9708,-1.9708,-1.9708,-1.9708,-1.9708,-1.9708,-1.9708,-1.9708,-1.9708,-1.9708,-1.9708,-1.9708,-1.9708,-1.9708,-2.421,-2.3529,0.0,0.0,0.0,0.0,0.0,0.0,0.0,0.0,0.0,0.0,0.0,0.0,0.0,0.0,0.0,-2.3224,-2.2747,0.0,-2.3189,0.0,0.0,-2.4044,0.0,0.0,0.0,0.0,0.0,0.0,0.0,0.0,0.0,0.0,0.0,-2.3403,-2.3628,-2.2717,-2.2463,-2.2656,-2.2398,-2.2296,-2.2296,0.0,-2.2296,-2.2296,-2.2296,0.0,0.0,-2.2296,-2.2296,0.0,0.0,0.0,0.0,0.0,0.0,0.0,0.0,0.0,0.0,-2.2296,0.0,0.0,0.0,0.0,-2.1156,0.0,0.0,0.0,0.0,0.0,0.0,-1.7406,0.0,0.0,0.0,0.0,0.0,0.0,0.0,0.0,0.0,0.0,0.0,-2.0362,-1.9768,-1.9912,-2.1132,-2.08,-2.0887,-2.1595,-2.1228,-2.0813,-2.0348,-2.0748,-2.0549,-1.9711,-2.0089,-2.0072,-1.9708,-1.9708,-1.9708,-1.9708,-1.9708,-1.9708,-1.9708,-1.9708,-1.9708,-1.9708,-1.9708,-1.9708,-1.9708,-1.9708,-1.9708,-1.9708,0.0,0.0,0.0,0.0,0.0,0.0,0.0,-2.3682,0.0,0.0,0.0,0.0,0.0,0.0,-2.5157,0.0,0.0,-2.4383,-2.3417,-2.3756,0.0,0.0,0.0,-2.5019,0.0,0.0,0.0,0.0,0.0,0.0,0.0,0.0,0.0,0.0,0.0,-2.3459,0.0,0.0,0.0,0.0,0.0,-2.2296,-2.2296,0.0,0.0,-2.2296,-2.2296,-2.2296,0.0,-2.2296,-2.2296,-2.2296,-2.2296,-2.2296,-2.2296,-2.2296,-2.2296,0.0,0.0,0.0,-2.2296,-2.2296,0.0,0.0,0.0,0.0,0.0,0.0,0.0,0.0,0.0,0.0,0.0,-1.8375,0.0,0.0,0.0,0.0,0.0,0.0,0.0,0.0,0.0,0.0,0.0,-1.9543,-2.0022,-2.0446,-2.0666,-2.0859,-2.129,-2.2044,-2.1628,-2.1477,-2.163,-2.1213,-2.0845,-2.0549,-2.0382,-2.0089,-1.9708,-1.9708,-1.9708,-1.9708,-1.9708,-1.9708,-1.9708,-1.9708,-1.9708,-1.9708,-1.9708,-1.9708,-1.9708,-1.9708,-1.9708,-1.9768,-2.4366,0.0,0.0,0.0,0.0,0.0,0.0,0.0,0.0,0.0,-2.415,0.0,-2.5294,0.0,-2.5742,0.0,-2.5121,-2.48,-2.4158,-2.4138,0.0,-2.4125,-2.4958,0.0,0.0,0.0,0.0,0.0,0.0,-2.419,0.0,0.0,0.0,0.0,0.0,0.0,0.0,0.0,-2.245,0.0,0.0,-2.2296,0.0,0.0,-2.2296,-2.2296,0.0,-2.2296,-2.2296,-2.2296,-2.2296,-2.2296,-2.2296,-2.2296,-2.2296,-2.2296,-2.2296,-2.2296,-2.2296,-2.2296,0.0,-2.2296,-2.2296,0.0,-2.2296,0.0,0.0,0.0,0.0,0.0,0.0,0.0,0.0,-1.9092,-1.8777,0.0,0.0,-1.8518,0.0,0.0,0.0,0.0,0.0,0.0,-2.0567,-1.974,-2.0164,-2.0534,0.0,0.0,-2.129,-2.203,-2.1613,-2.1538,-2.1825,-2.1415,-2.1055,-2.0764,-2.06,-2.0244,-1.9708,-1.9708,-1.9708,-1.9708,-1.9708,-1.9708,-1.9708,-1.9708,-1.9708,-1.9708,-1.9708,-1.9708,-1.9708,-1.9708,-1.9708,-1.9768,0.0,0.0,0.0,0.0,-2.3927,0.0,0.0,0.0,-2.3979,0.0,-2.4701,-2.4906,-2.4157,-2.4971,-2.5091,-2.3891,-2.4129,0.0,-2.4829,-2.4194,0.0,0.0,-2.4509,-2.4127,-2.3724,0.0,0.0,0.0,0.0,0.0,0.0,0.0,0.0,0.0,-2.35,0.0,-2.3147,-2.2561,-2.2296,-2.2296,-2.2296,-2.2296,-2.2296,-2.2296,-2.2296,-2.2296,-2.2296,-2.2296,-2.2296,-2.2296,-2.2296,-2.2296,-2.2296,-2.2296,-2.2296,-2.2296,-2.2296,-2.2296,-2.2296,-2.2296,-2.2296,-2.2296,-2.2296,0.0,0.0,0.0,-2.2076,0.0,0.0,0.0,0.0,0.0,0.0,0.0,0.0,0.0,0.0,0.0,0.0,0.0,0.0,0.0,0.0,-1.9822,-1.9825,-2.0784,-2.0169,0.0,0.0,0.0,-2.0836,-2.161,-2.126,-2.1055,-2.1055,-2.143,-2.1197,-2.0348,-2.0797,-2.0532,-1.9708,-1.9708,-1.9708,-1.9708,-1.9708,-1.9708,-1.9708,-1.9711,-1.9744,-1.9744,-1.9744,-1.9711,-1.9708,-1.9708,-1.9708,-1.9708,-2.419,-2.419,-2.419,0.0,-2.4141,-2.4074,0.0,0.0,0.0,0.0,-2.616,-2.6565,-2.6387,-2.6593,-2.6273,-2.5069,-2.5053,0.0,0.0,0.0,0.0,-2.4403,-2.5415,-2.5389,-2.4092,-2.4729,0.0,-2.4074,0.0,0.0,-2.419,0.0,0.0,0.0,0.0,0.0,-2.281,-2.2453,-2.2296,-2.2296,-2.2296,-2.2296,0.0,0.0,-2.2296,-2.2296,-2.2296,-2.2296,-2.2296,-2.2296,-2.2296,-2.2296,-2.2296,-2.2296,-2.2296,-2.2296,-2.2296,-2.2296,-2.2296,-2.2296,-2.2296,-2.2296,-2.2296,-2.2296,0.0,0.0,0.0,0.0,0.0,0.0,0.0,0.0,0.0,0.0,0.0,0.0,0.0,0.0,0.0,-2.0585,0.0,0.0,0.0,-2.0546,-2.0949,-2.0425,-2.0555,0.0,0.0,0.0,0.0,-2.2087,-2.2034,-2.1976,-2.1976,-2.2077,-2.1675,-2.0829,-2.0943,-2.0532,-1.9708,-1.9708,-1.9708,-1.9708,-1.9708,-1.9708,-1.9711,-2.0017,-2.0158,-2.0158,-2.0158,-1.9947,-1.9708,-1.9708,-1.9708,-1.9708,-2.419,0.0,0.0,-2.419,0.0,0.0,-2.4525,0.0,0.0,-2.5714,-2.6308,0.0,-2.6201,-2.6306,-2.6009,-2.4969,-2.4879,0.0,-2.4732,0.0,0.0,-2.4732,-2.5254,-2.5126,-2.4226,-2.464,0.0,-2.419,0.0,0.0,-2.419,0.0,0.0,0.0,0.0,-2.3021,0.0,-2.2412,-2.2296,-2.2296,-2.2296,0.0,0.0,-2.244,-2.2477,-2.2477,-2.2477,-2.2402,-2.2296,-2.2296,-2.2296,-2.2296,-2.2296,-2.2296,-2.2296,-2.2296,-2.2296,-2.2296,-2.2296,-2.2296,-2.2296,-2.2296,-2.2296,-2.2296,-2.2296,-2.2296,-2.2178,0.0,-2.2095,-2.2317,0.0,0.0,0.0,0.0,0.0,0.0,0.0,0.0,0.0,0.0,0.0,0.0,0.0,0.0,-2.1443,-2.0573,0.0,0.0,0.0,0.0,0.0,-2.2276,-2.2106,-2.2092,-2.2296,-2.2106,-2.166,-2.0991,-2.1181,-2.0715,-1.9711,-2.0087,-2.0156,-1.9965,-2.0174,-2.0277,-2.0294,-2.0515,-2.06,-2.0583,-2.0382,-2.0158,-1.9929,-1.9764,-1.9708,-1.9708,0.0,0.0,0.0,0.0,0.0,0.0,0.0,-2.4915,0.0,-2.5565,0.0,-2.5887,-2.4992,-2.5181,-2.5081,-2.4263,0.0,-2.4511,-2.5191,-2.4585,-2.4511,-2.5209,-2.4566,-2.419,-2.419,-2.419,0.0,0.0,0.0,0.0,0.0,0.0,0.0,0.0,0.0,0.0,0.0,-2.2402,-2.2296,-2.231,-2.2335,-2.2349,-2.2374,-2.2665,-2.2772,-2.2759,-2.2721,-2.255,-2.2349,-2.231,-2.2296,-2.2296,-2.2296,-2.2296,-2.2296,-2.2296,-2.2296,-2.2296,-2.2296,-2.2296,-2.2296,-2.2296,-2.2338,-2.2349,-2.2349,-2.2391,-2.2419,-2.2363,-2.2537,-2.2625,0.0,0.0,0.0,0.0,0.0,0.0,0.0,0.0,0.0,0.0,0.0,0.0,0.0,0.0,0.0,0.0,0.0,0.0,0.0,0.0,0.0,-2.2276,-2.1838,-2.1794,-2.2209,-2.1794,-2.1399,-2.0991,-2.1399,-2.0991,-1.9907,-2.0649,-2.078,-2.0416,-2.0829,-2.0991,-2.0991,-2.1055,-2.1039,-2.0959,-2.055,-2.0314,-2.0193,-1.9836,-1.9708,-1.9708,0.0,0.0,0.0,0.0,0.0,-2.5593,-2.6219,-2.6805,-2.6991,-2.648,-2.7035,-2.6922,-2.5458,-2.5362,-2.5081,-2.4263,-2.419,0.0,0.0,0.0,0.0,-2.4392,-2.4281,-2.419,-2.419,-2.419,-2.419,0.0,0.0,0.0,0.0,0.0,0.0,0.0,0.0,0.0,-2.2377,-2.2324,0.0,-2.2324,-2.2537,-2.2621,-2.266,-2.2984,-2.3105,-2.3081,-2.281,-2.2656,-2.2599,-2.2374,-2.2296,-2.2296,-2.2296,-2.2296,-2.2296,-2.2296,-2.2296,-2.2296,-2.2296,-2.2296,-2.2296,-2.2296,-2.2463,-2.2621,-2.2621,-2.284,-2.2965,-2.2686,-2.2673,-2.2625,-2.2349,0.0,0.0,0.0,0.0,0.0,0.0,0.0,0.0,0.0,0.0,0.0,0.0,0.0,0.0,0.0,0.0,0.0,0.0,0.0,0.0,0.0,-2.1838,0.0,0.0,0.0,-2.1399,-2.0991,-2.1399,-2.1306,-2.078,-2.0926,-2.0975,-2.0878,-2.0959,-2.0991,-2.1039,-2.1353,-2.1291,-2.0991,-2.091,-2.0431,-1.98,-1.9744,-1.9708,-1.9708,0.0,0.0,0.0,0.0,0.0,0.0,0.0,-2.8161,0.0,-2.6749,-2.6209,-2.565,-2.486,-2.4787,-2.4622,-2.4226,-2.419,-2.419,-2.419,-2.419,-2.419,-2.419,-2.419,0.0,-2.419,-2.419,-2.419,-2.419,0.0,0.0,-2.419,0.0,0.0,0.0,0.0,-2.2691,0.0,0.0,0.0,-2.231,-2.2436,-2.259,-2.2733,-2.3069,-2.32,-2.3177,-2.3021,-2.286,-2.266,-2.2402,-2.2296,-2.2321,-2.2463,-2.2514,-2.2514,-2.2514,-2.2514,-2.249,-2.2335,-2.2296,-2.2296,-2.2296,-2.25,-2.2708,-2.2708,-2.296,-2.3105,-2.2772,-2.2848,-2.2878,-2.2563,-2.2385,0.0,0.0,0.0,0.0,0.0,0.0,0.0,0.0,0.0,0.0,0.0,0.0,0.0,0.0,0.0,0.0,0.0,0.0,0.0,0.0,0.0,0.0,0.0,0.0,-2.1491,-2.1306,-2.1749,-2.1613,-2.1023,-2.1478,-2.1539,-2.1322,-2.1569,-2.1676,-2.1691,-2.1884,-2.1705,-2.1291,-2.1071,-2.0599,-1.9982,-1.9782,-1.9708,-1.9708,0.0,-2.7302,0.0,0.0,-2.742,0.0,-2.8583,-2.8601,-2.8106,-2.6998,-2.5603,-2.463,-2.4465,-2.43,-2.419,-2.419,-2.419,-2.419,-2.419,-2.419,-2.419,-2.419,-2.419,-2.419,-2.419,-2.419,-2.419,0.0,0.0,0.0,0.0,0.0,0.0,0.0,0.0,0.0,0.0,0.0,-2.2457,-2.2419,-2.2552,-2.2721,-2.296,-2.3271,-2.3414,-2.3392,-2.3247,-2.3033,-2.2746,-2.2398,-2.2335,-2.2426,-2.2634,-2.2759,-2.2797,-2.2721,-2.2708,-2.2634,-2.2374,-2.2296,-2.2296,-2.2296,-2.2554,-2.281,-2.281,-2.3069,-2.32,-2.2885,-2.2898,-2.2928,-2.2647,-2.2436,0.0,0.0,0.0,0.0,0.0,0.0,0.0,0.0,0.0,0.0,0.0,0.0,0.0,0.0,0.0,0.0,0.0,0.0,0.0,0.0,0.0,-2.1779,-2.2152,0.0,-2.1597,-2.1613,-2.2077,-2.193,-2.1291,-2.1991,-2.2106,-2.1779,-2.2135,-2.2237,-2.2149,-2.2149,-2.1809,-2.129,-2.0959,-2.0566,-2.0141,-1.9836,-1.9708,-1.9708,0.0,0.0,0.0,0.0,0.0,0.0,-2.7989,-2.7291,-2.7034,-2.7603,-2.6924,-2.6098,-2.5374,-2.464,-2.419,-2.419,-2.419,-2.419,-2.419,-2.419,-2.419,-2.419,-2.419,-2.419,-2.419,-2.419,-2.419,0.0,0.0,-2.4915,0.0,0.0,0.0,0.0,0.0,0.0,0.0,-2.2984,-2.297,-2.279,-2.3359,-2.3577,-2.3631,-2.3986,-2.4103,-2.4026,-2.3414,-2.3177,-2.3075,-2.2494,-2.2463,-2.2673,-2.2695,-2.291,-2.3093,-2.2797,-2.2708,-2.2634,-2.2374,-2.2296,-2.2296,-2.2296,-2.2721,-2.3153,-2.3153,-2.3414,-2.3555,-2.3212,-2.2734,-2.2377,-2.2335,-2.2324,-2.231,0.0,0.0,0.0,0.0,0.0,0.0,0.0,0.0,0.0,0.0,-2.0947,0.0,0.0,0.0,0.0,0.0,0.0,0.0,-2.2279,0.0,-2.1612,-2.1673,-2.1612,-2.1597,-2.1613,-2.2077,-2.2268,-2.218,-2.2268,-2.2282,-2.2237,-2.2282,-2.2046,-2.1673,-2.1673,-2.1181,-2.0433,-2.0382,-2.0106,-1.9747,-1.9711,-1.9708,-1.9708,0.0,0.0,0.0,0.0,0.0,0.0,0.0,-2.8154,-2.7438,-2.775,-2.6264,-2.5034,-2.4713,-2.4392,-2.419,-2.419,-2.419,-2.419,-2.419,-2.419,-2.419,-2.419,-2.419,-2.419,-2.419,-2.419,-2.419,0.0,0.0,0.0,0.0,0.0,0.0,0.0,0.0,-2.3305,-2.3009,-2.3141,-2.3147,-2.3051,-2.33,-2.3522,-2.3714,-2.3837,-2.3896,-2.3858,-2.3606,-2.3236,-2.286,-2.2612,-2.2612,-2.2733,-2.2935,-2.3224,-2.3471,-2.3346,-2.3153,-2.2935,-2.2612,-2.2426,-2.2335,-2.25,-2.2878,-2.3247,-2.3448,-2.3599,-2.3599,-2.3259,-2.284,-2.2554,-2.2584,-2.2738,-2.2849,-2.2849,0.0,0.0,0.0,0.0,0.0,0.0,0.0,0.0,0.0,0.0,0.0,0.0,0.0,0.0,0.0,0.0,0.0,-2.2279,0.0,-2.2017,-2.2017,-2.2017,-2.2017,-2.2017,-2.2209,-2.2296,-2.2296,-2.2296,-2.2296,-2.2282,-2.2003,-2.1779,-2.1582,-2.1337,-2.0862,-2.0297,-2.0297,-2.0037,-1.9708,-1.9708,-1.9708,-1.9708,-3.221,0.0,-3.0161,0.0,-2.942,-2.8815,-2.9714,-2.8686,-2.7725,-2.7475,-2.575,-2.4548,-2.4548,-2.4337,-2.419,-2.419,-2.419,-2.419,-2.419,-2.419,-2.419,-2.419,-2.419,0.0,-2.419,-2.419,-2.419,-2.419,-2.5007,0.0,0.0,0.0,0.0,0.0,-2.3855,-2.366,-2.3357,-2.3448,-2.3444,-2.3357,-2.3448,-2.3649,-2.3855,-2.3855,-2.3855,-2.3827,-2.3742,-2.3392,-2.2984,-2.2885,-2.2923,-2.3021,-2.3153,-2.3511,-2.3827,-2.3724,-2.3533,-2.3271,-2.2947,-2.2704,-2.2607,-2.2802,-2.3105,-2.338,-2.3522,-2.3555,-2.3444,-2.3014,-2.2815,-2.2708,-2.2773,-2.3002,-2.3165,-2.3069,0.0,0.0,0.0,0.0,0.0,0.0,-2.3477,-2.3098,-2.2277,0.0,0.0,0.0,0.0,0.0,0.0,0.0,0.0,0.0,0.0,0.0,-2.2296,-2.2296,-2.2296,-2.2296,-2.2296,-2.2296,-2.2296,-2.2296,-2.2296,-2.2265,-2.1794,-2.1597,-2.1567,-2.1166,-2.0813,-2.05,-2.05,-2.0244,-1.9874,-1.9874,-1.98,-1.9711,-3.377,-3.3128,-3.2307,-3.1525,-3.0705,-2.9916,-2.9133,-2.8319,-2.7512,-2.6722,-2.5907,-2.5393,-2.5393,-2.4677,-2.419,-2.419,-2.419,-2.419,-2.419,-2.419,-2.419,0.0,0.0,-2.419,-2.419,-2.419,-2.419,-2.419,0.0,0.0,-2.4208,0.0,-2.4208,-2.419,-2.419,-2.4006,-2.3714,-2.4054,-2.3996,-2.3714,-2.4046,-2.419,-2.419,-2.419,-2.419,-2.4151,-2.3816,-2.3692,-2.3649,-2.3311,-2.3414,-2.3621,-2.3294,-2.366,-2.4141,-2.3795,-2.3692,-2.361,-2.3288,-2.3189,-2.3189,-2.3189,-2.3455,-2.3599,-2.3288,-2.32,-2.3038,-2.2429,-2.2527,-2.2708,-2.2708,-2.2972,-2.3093,-2.2759,0.0,0.0,0.0,0.0,0.0,0.0,-2.2923,-2.2708,-2.269,0.0,0.0,0.0,0.0,0.0,0.0,0.0,0.0,-2.2279,-2.2296,0.0,-2.2296,-2.2296,-2.2296,-2.2296,-2.2296,-2.2296,-2.2296,-2.2296,-2.2296,-2.2265,-2.1794,-2.1597,-2.1567,-2.1166,-2.0991,-2.0991,-2.0991,-2.0715,-2.0297,-2.0297,-2.0052,-1.9764,-3.2375,-3.1953,-3.1366,-2.9996,-2.9537,-2.9299,-2.9042,-2.7849,-2.6888,-2.662,-2.5419,-2.4585,-2.4585,-2.4355,-2.419,0.0,-2.419,-2.419,0.0,-2.419,-2.419,-2.419,-2.419,-2.419,-2.419,-2.419,-2.419,-2.419,0.0,0.0,0.0,-2.5026,-2.4732,-2.419,-2.419,-2.4151,-2.4054,-2.4161,-2.4141,-2.4054,-2.4161,-2.419,-2.419,-2.419,-2.419,-2.418,-2.4084,-2.3896,-2.3682,-2.3577,-2.361,-2.3682,-2.3577,-2.3837,-2.418,-2.4074,-2.3886,-2.3682,-2.3566,-2.338,-2.3247,-2.3471,-2.361,-2.3671,-2.3566,-2.3369,-2.3159,-2.2958,-2.3159,-2.338,-2.338,-2.366,-2.3692,-2.3129,-2.3129,0.0,0.0,0.0,0.0,0.0,-2.2972,-2.2878,-2.248,-2.2514,0.0,0.0,0.0,0.0,0.0,0.0,0.0,0.0,-2.2296,0.0,-2.2296,-2.2296,-2.2296,-2.2296,-2.2296,-2.2296,-2.2296,-2.2296,-2.2296,-2.2265,-2.1794,-2.1597,-2.1567,-2.1166,-2.0991,-2.0991,-2.0991,-2.091,-2.0747,-2.0416,-2.0212,-2.0124,-3.1727,-3.1641,-3.1347,-2.9721,-2.9445,-2.9354,-2.906,-2.8143,-2.7391,-2.709,-2.5915,-2.4997,-2.4677,-2.4373,0.0,-2.419,-2.419,-2.419,-2.419,-2.419,-2.419,-2.419,-2.419,-2.419,-2.419,-2.419,0.0,-2.419,-2.4695,-2.4952,-2.4952,-2.4952,-2.4677,-2.419,-2.419,-2.419,-2.419,-2.419,-2.419,-2.419,-2.419,-2.419,-2.419,-2.419,-2.419,-2.419,-2.419,-2.4074,-2.3896,-2.3896,-2.3896,-2.3896,-2.3896,-2.4026,-2.419,-2.419,-2.4046,-2.3896,-2.3896,-2.3724,-2.3639,-2.3845,-2.3795,-2.3671,-2.3544,-2.3357,-2.32,-2.32,-2.3477,-2.366,-2.3533,-2.3785,-2.3795,-2.3117,-2.3009,-2.2898,-2.2603,0.0,0.0,0.0,0.0,0.0,0.0,-2.263,-2.2465,0.0,0.0,0.0,0.0,0.0,0.0,-2.2279,-2.2296,-2.2296,-2.2296,-2.2296,-2.2296,-2.2296,-2.2296,-2.2296,-2.2296,-2.2296,-2.2296,-2.2265,-2.1794,-2.1703,-2.1823,-2.1399,-2.1338,-2.1493,-2.1493,-2.1291,-2.0959,-2.0666,-2.0449,-2.0331,-3.1801,-3.2045,-3.2032,0.0,-3.0155,-2.9849,-2.9115,-2.895,-2.862,-2.7824,-2.7016,-2.6209,-2.5393,-2.4658,-2.419,-2.419,0.0,0.0,-2.419,-2.419,-2.419,-2.419,-2.419,-2.419,-2.419,-2.419,-2.419,-2.419,-2.419,-2.419,-2.419,-2.419,-2.419,-2.419,-2.419,-2.419,-2.419,-2.419,-2.419,-2.419,-2.419,-2.419,-2.419,-2.419,-2.419,-2.419,-2.419,-2.419,-2.419,-2.419,-2.419,-2.419,-2.419,-2.419,-2.419,-2.419,-2.419,-2.419,-2.419,-2.419,-2.419,-2.419,-2.3955,-2.361,-2.3335,-2.3247,-2.3236,-2.3259,-2.3522,-2.3621,-2.33,-2.35,-2.3488,-2.281,-2.2708,-2.2612,-2.2335,-2.2324,0.0,0.0,0.0,0.0,-2.279,-2.2716,-2.2263,0.0,0.0,0.0,0.0,0.0,-2.1583,-2.2279,-2.2296,-2.2296,-2.2296,-2.2296,-2.2296,-2.2296,-2.2296,-2.2296,-2.2296,-2.2296,-2.2296,-2.2282,-2.1838,-2.1899,-2.2268,-2.1823,-2.1913,-2.2296,-2.2296,-2.1781,-2.1039,-2.1039,-2.0764,-2.0416,0.0,0.0,-3.1366,-3.0375,-2.9684,-2.9225,-2.9023,-2.8484,-2.7805,-2.6998,-2.6172,-2.5374,-2.4566,-2.43,-2.419,-2.419,-2.419,-2.419,-2.419,-2.419,-2.419,-2.419,-2.419,-2.419,-2.419,-2.419,-2.419,-2.419,-2.419,-2.419,-2.419,-2.419,-2.419,-2.419,-2.419,-2.419,-2.419,-2.419,-2.419,-2.419,-2.419,-2.419,-2.419,-2.419,-2.419,-2.419,-2.419,-2.419,-2.419,-2.419,-2.419,-2.419,-2.419,-2.419,-2.419,-2.419,-2.419,-2.419,-2.419,-2.419,-2.419,-2.419,-2.3955,-2.3753,-2.3917,-2.3774,-2.366,-2.3907,-2.4026,-2.3986,-2.3631,-2.3649,-2.3488,-2.281,-2.2708,-2.2612,-2.2335,-2.2477,-2.2621,0.0,-2.3153,-2.3277,-2.2776,-2.2422,-2.2185,0.0,0.0,0.0,-2.2023,-2.204,-2.211,-2.2296,-2.2296,-2.2296,-2.2296,-2.2296,-2.2296,-2.2296,-2.2296,-2.2296,-2.2296,-2.2296,-2.2296,-2.2296,-2.218,-2.2194,-2.2296,-2.218,-2.2194,-2.2296,-2.2296,-2.1959,-2.146,-2.146,-2.1181,-2.0894,-3.2284,-3.2008,-3.1586,-3.0393,-2.9831,-2.9427,-2.906,-2.862,-2.8062,-2.7255,-2.6447,-2.565,-2.4842,-2.442,-2.419,-2.419,-2.419,-2.419,-2.419,-2.419,-2.419,-2.419,-2.419,-2.419,-2.419,-2.419,-2.419,-2.419,-2.419,-2.419,-2.419,-2.419,-2.419,-2.419,-2.419,-2.419,-2.419,-2.419,-2.419,-2.419,-2.419,-2.419,-2.419,-2.419,-2.419,-2.419,-2.419,-2.419,-2.419,-2.419,-2.419,-2.419,-2.419,-2.419,-2.419,-2.419,-2.419,-2.419,-2.419,-2.419,-2.4161,-2.4006,-2.3937,-2.3927,-2.3958,-2.3937,-2.3927,-2.3976,-2.4094,-2.4006,-2.3357,-2.3369,-2.3253,-2.2616,-2.2527,-2.2463,-2.2307,-2.2541,-2.2759,-2.291,-2.338,-2.35,-2.2984,-2.2735,-2.2375,-2.1841,-2.1735,0.0,-2.1786,-2.2124,-2.2296,-2.2296,-2.2296,-2.2296,-2.2296,-2.2296,-2.2296,-2.2296,-2.2296,-2.2296,-2.2296,-2.2296,-2.2296,-2.2296,-2.2296,-2.2296,-2.2296,-2.2296,-2.2296,-2.2296,-2.2296,-2.2017,-2.1582,-2.1384,-2.1306,-2.1275,-3.2078,-3.2046,-3.1849,-3.0595,-3.0173,-2.9787,-2.9097,-2.8895,-2.8528,-2.7714,-2.6924,-2.6117,-2.5301,-2.4622,-2.419,-2.419,-2.419,-2.419,-2.419,-2.419,-2.419,-2.419,-2.419,-2.419,-2.419,-2.419,-2.419,-2.419,-2.419,-2.419,-2.419,-2.419,-2.419,-2.419,-2.419,-2.419,-2.419,-2.419,-2.419,-2.419,-2.419,-2.419,-2.419,-2.419,-2.419,-2.419,-2.419,-2.419,-2.419,-2.419,-2.419,-2.419,-2.419,-2.419,-2.419,-2.419,-2.419,-2.419,-2.419,-2.419,-2.4123,-2.3855,-2.3996,-2.4132,-2.3837,-2.3996,-2.4103,-2.3774,-2.3927,-2.3827,-2.2885,-2.2935,-2.294,-2.2391,-2.2296,-2.2296,-2.2296,0.0,-2.2885,-2.3165,-2.3544,-2.361,-2.3242,-2.3112,-2.2567,-2.1447,-2.1837,-2.1904,-2.1393,-2.1955,-2.2296,-2.2296,-2.2296,-2.2296,-2.2296,-2.2296,-2.2296,-2.2296,-2.2296,-2.2296,-2.2296,-2.2296,-2.2296,-2.2296,-2.2296,-2.2296,-2.2296,-2.2296,-2.2296,-2.2296,-2.2296,-2.1988,-2.1476,-2.1276,-2.1338,-2.1476,-3.3682,-3.204,-3.0705,-3.114,-3.0099,-2.9133,-2.9023,-2.8429,-2.7695,-2.6888,-2.609,-2.5283,-2.4465,-2.4263,-2.419,-2.419,-2.419,-2.419,-2.419,-2.419,-2.419,-2.419,-2.419,-2.419,-2.419,-2.419,-2.419,-2.419,-2.419,-2.419,-2.419,-2.419,-2.419,-2.419,-2.419,-2.419,-2.419,-2.419,-2.419,-2.419,-2.419,-2.419,-2.419,-2.419,-2.419,-2.419,-2.419,-2.419,-2.419,-2.419,-2.419,-2.419,-2.419,-2.419,-2.419,-2.419,-2.419,-2.419,-2.419,-2.419,-2.418,-2.4141,-2.4161,-2.418,-2.4123,-2.4161,-2.4103,-2.3774,-2.3735,-2.3555,-2.2835,-2.2746,-2.266,-2.2349,-2.2296,-2.2296,-2.2296,0.0,-2.3141,-2.3189,-2.3753,-2.3886,-2.3247,-2.2645,-2.2235,-2.2146,-2.1651,-2.1583,-2.2107,-2.2229,-2.2296,-2.2296,-2.2296,-2.2296,-2.2296,-2.2296,-2.2296,-2.2296,-2.2296,-2.2296,-2.2296,-2.2296,-2.2296,-2.2296,-2.2296,-2.2296,-2.2296,-2.2296,-2.2296,-2.2296,-2.2296,-2.1796,-2.1166,-2.1857,-2.1676,-2.1197,-3.3566,-3.2095,-3.0834,-3.076,-2.9776,-2.8858,-2.8429,-2.8044,-2.7357,-2.6127,-2.5631,-2.5081,-2.4281,-2.419,-2.419,-2.419,-2.419,-2.419,-2.419,-2.419,-2.419,-2.419,-2.419,-2.419,-2.419,-2.419,-2.419,-2.419,-2.419,-2.419,-2.419,-2.419,-2.419,-2.419,-2.419,-2.419,-2.419,-2.419,-2.419,-2.419,-2.419,-2.419,-2.419,-2.419,-2.419,-2.419,-2.419,-2.419,-2.419,-2.419,-2.419,-2.419,-2.419,-2.419,-2.419,-2.419,-2.419,-2.419,-2.419,-2.419,-2.419,-2.419,-2.419,-2.419,-2.419,-2.4064,-2.3845,-2.3511,-2.3426,-2.323,-2.259,-2.2599,-2.2612,-2.2349,-2.2296,0.0,-2.2296,-2.2669,-2.2935,-2.2982,-2.3387,-2.3459,-2.2984,-2.2788,-2.2585,-2.2318,-2.2129,-2.2088,-2.2293,-2.2296,-2.2296,-2.2296,-2.2296,-2.2296,-2.2296,-2.2296,-2.2296,-2.2296,-2.2296,-2.2296,-2.2296,-2.2296,-2.2296,-2.2296,-2.2296,-2.2296,-2.2296,-2.2296,-2.2296,-2.2296,-2.2296,-2.2049,-2.1721,-2.1869,-2.1825,-2.1721,-3.3018,-3.1838,-3.0795,-3.0371,-2.9457,-2.8632,-2.8147,-2.7639,-2.6925,-2.5825,-2.5356,-2.4897,-2.4263,-2.419,-2.419,-2.419,-2.419,-2.419,-2.419,-2.419,-2.419,-2.419,-2.419,-2.419,-2.419,-2.419,-2.419,-2.419,-2.419,-2.419,-2.419,-2.419,-2.419,-2.419,-2.419,-2.419,-2.419,-2.419,-2.419,-2.419,-2.419,-2.419,-2.419,-2.419,-2.419,-2.419,-2.419,-2.419,-2.419,-2.419,-2.419,-2.419,-2.419,-2.419,-2.419,-2.419,-2.419,-2.419,-2.419,-2.419,-2.419,-2.419,-2.419,-2.419,-2.419,-2.3996,-2.3714,-2.338,-2.3323,-2.3147,-2.2611,-2.2682,-2.2725,-2.244,0.0,-2.2374,-2.231,-2.2541,-2.2725,-2.2773,-2.3105,-2.3177,-2.286,-2.3117,-2.3087,-2.2561,-2.2625,-2.2612,-2.2398,-2.2335,-2.2296,-2.2296,-2.2296,-2.2296,-2.2296,-2.2296,-2.2296,-2.2296,-2.2296,-2.2296,-2.2296,-2.2296,-2.2296,-2.2296,-2.2296,-2.2296,-2.2296,-2.2296,-2.2296,-2.2296,-2.2296,-2.2223,-2.2106,-2.1869,-2.1913,-2.2106,-3.2561,-3.0923,-2.9762,-3.0451,-2.924,-2.833,-2.8838,-2.7167,-2.6014,-2.645,-2.5217,-2.4263,-2.4208,-2.419,-2.419,-2.419,-2.419,-2.419,-2.419,-2.419,-2.419,-2.419,-2.419,-2.419,-2.419,-2.419,-2.419,-2.419,-2.419,-2.419,-2.419,-2.419,-2.419,-2.419,-2.419,-2.419,-2.419,-2.419,-2.419,-2.419,-2.419,-2.419,-2.419,-2.419,-2.419,-2.419,-2.419,-2.419,-2.419,-2.419,-2.419,-2.419,-2.419,-2.419,-2.419,-2.419,-2.419,-2.419,-2.419,-2.419,-2.419,-2.419,-2.419,-2.419,-2.419,-2.418,-2.4074,-2.3724,-2.3671,-2.3555,-2.3206,-2.3141,-2.3057,-2.2721,0.0,0.0,-2.2335,-2.2541,-2.2708,-2.2708,-2.3259,-2.3533,-2.3189,-2.3477,-2.3522,-2.3171,-2.286,-2.2695,-2.2656,-2.2422,-2.2296,-2.2296,-2.2296,-2.2296,-2.2296,-2.2296,-2.2296,-2.2296,-2.2296,-2.2296,-2.2296,-2.2296,-2.2296,-2.2296,-2.2296,-2.2296,-2.2296,-2.2296,-2.2296,-2.2296,-2.2296,-2.2032,-2.1703,-2.2106,-2.2003,-2.1703,-3.1958,-3.0982,-3.0274,-3.0086,-2.9409,-2.8686,-2.7979,-2.7056,-2.6172,-2.5403,-2.4773,-2.4348,-2.4209,-2.419,-2.419,-2.419,-2.4321,-2.4384,-2.4384,-2.4384,-2.4339,-2.4218,-2.419,-2.419,-2.419,-2.419,-2.419,-2.419,-2.419,-2.419,-2.419,-2.419,-2.419,-2.419,-2.419,-2.419,-2.419,-2.419,-2.419,-2.419,-2.419,-2.419,-2.419,-2.419,-2.419,-2.419,-2.419,-2.419,-2.419,-2.419,-2.419,-2.419,-2.419,-2.419,-2.419,-2.419,-2.419,-2.419,-2.419,-2.419,-2.419,-2.419,-2.419,-2.419,-2.419,-2.4036,-2.3847,-2.3724,-2.3533,-2.3357,-2.3224,-2.32,-2.3153,-2.3033,0.0,-2.2656,-2.2563,-2.2487,-2.245,-2.245,-2.2815,-2.3033,-2.291,-2.338,-2.3471,-2.2935,-2.2972,-2.2853,-2.2463,-2.2363,-2.2296,-2.2296,-2.2296,-2.2296,-2.2296,-2.2296,-2.2296,-2.2296,-2.2296,-2.2296,-2.2296,-2.2296,-2.2296,-2.2296,-2.2296,-2.2296,-2.2296,-2.2296,-2.2296,-2.2296,-2.2296,-2.2194,-2.2046,-2.2237,-2.2194,-2.2046,-3.1192,-3.0747,-3.0442,-2.9883,-2.9471,-2.8921,-2.8112,-2.7255,-2.6383,-2.5479,-2.4843,-2.4444,-2.4312,-2.4237,-2.4228,-2.4284,-2.4428,-2.4537,-2.4583,-2.4545,-2.4419,-2.4199,-2.419,-2.419,-2.419,-2.419,-2.419,-2.419,-2.419,-2.419,-2.419,-2.419,-2.419,-2.419,-2.419,-2.419,-2.419,-2.419,-2.419,-2.419,-2.419,-2.419,-2.419,-2.419,-2.419,-2.419,-2.419,-2.419,-2.419,-2.419,-2.419,-2.419,-2.419,-2.419,-2.419,-2.419,-2.419,-2.419,-2.419,-2.419,-2.419,-2.419,-2.419,-2.419,-2.419,-2.4016,-2.3865,-2.3865,-2.3671,-2.3522,-2.3522,-2.3522,-2.3488,-2.338,-2.3165,-2.2947,-2.2733,-2.2537,-2.2385,-2.231,-2.263,-2.286,-2.286,-2.3459,-2.361,-2.3057,-2.3129,-2.2945,-2.2321,-2.2296,-2.2296,-2.2296,-2.2296,-2.2335,-2.2426,-2.2426,-2.2426,-2.2426,-2.2531,-2.2584,-2.2571,-2.248,-2.2426,-2.2426,-2.2335,-2.2296,-2.2296,-2.2296,-2.2296,-2.2296,-2.2296,-2.2296,-2.2296,-2.2296,-2.2296,-2.2296,-3.0233,-3.0006,-3.0006,-3.0006,-2.9339,-2.9007,-2.9588,-2.777,-2.6522,-2.7115,-2.5616,-2.4503,-2.4503,-2.4312,-2.4284,-2.4486,-2.4503,-2.4583,-2.479,-2.4607,-2.4419,-2.4199,-2.419,-2.419,-2.419,-2.419,-2.419,-2.419,-2.419,-2.419,-2.419,-2.419,-2.419,-2.419,-2.419,-2.419,-2.419,-2.419,-2.419,-2.419,-2.419,-2.419,-2.419,-2.419,-2.419,-2.419,-2.419,-2.419,-2.419,-2.419,-2.419,-2.419,-2.419,-2.419,-2.419,-2.419,-2.419,-2.419,-2.419,-2.419,-2.419,-2.419,-2.419,-2.419,-2.419,-2.419,-2.419,-2.419,-2.419,-2.419,-2.419,-2.419,-2.4094,-2.3764,-2.3703,-2.3459,-2.2797,-2.2708,-2.2599,-2.2335,-2.2819,-2.32,-2.32,-2.3806,-2.4064,-2.3742,-2.338,-2.2933,-2.2338,-2.2296,-2.2296,-2.231,-2.231,-2.244,-2.2708,-2.2708,-2.2708,-2.2708,-2.3045,-2.32,-2.3189,-2.286,-2.2708,-2.2682,-2.2426,-2.231,-2.231,-2.231,-2.231,-2.231,-2.2296,-2.2296,-2.2296,-2.2296,-2.2296,-2.2296,-3.0433,-3.0273,-3.0273,-3.0273,-2.9919,-2.9558,-2.9327,-2.8051,-2.6993,-2.6623,-2.5568,-2.4823,-2.4723,-2.4654,-2.4647,-2.4708,-2.4802,-2.4843,-2.4804,-2.4746,-2.4569,-2.4209,-2.419,-2.419,-2.419,-2.419,-2.419,-2.419,-2.433,-2.4348,-2.4199,-2.4339,-2.4348,-2.419,-2.419,-2.419,-2.419,-2.419,-2.419,-2.419,-2.419,-2.419,-2.419,-2.419,-2.419,-2.419,-2.419,-2.419,-2.419,-2.419,-2.419,-2.419,-2.419,-2.419,-2.419,-2.419,-2.419,-2.419,-2.419,-2.419,-2.419,-2.419,-2.419,-2.419,-2.419,-2.419,-2.419,-2.419,-2.419,-2.419,-2.419,-2.419,-2.417,-2.4074,-2.366,-2.3288,-2.3081,-2.2695,-2.2463,-2.2577,-2.2952,-2.33,-2.3533,-2.3937,-2.4064,-2.3742,-2.3165,-2.2691,-2.2324,-2.2296,-2.2388,-2.2573,-2.2573,-2.2725,-2.3045,-2.2822,-2.2822,-2.3057,-2.3153,-2.32,-2.3189,-2.286,-2.2835,-2.3033,-2.273,-2.2717,-2.292,-2.2678,-2.2573,-2.2563,-2.2374,-2.2296,-2.2296,-2.2296,-2.2296,-2.2338,-3.0305,-3.0323,-3.0404,-3.0404,-3.026,-2.9922,-2.9206,-2.8272,-2.7363,-2.6527,-2.56,-2.4968,-2.4884,-2.4828,-2.4965,-2.5363,-2.5856,-2.5907,-2.5309,-2.5276,-2.496,-2.4237,-2.419,-2.419,-2.419,-2.419,-2.4247,-2.4321,-2.4357,-2.4357,-2.4321,-2.4357,-2.4321,-2.419,-2.419,-2.419,-2.419,-2.419,-2.419,-2.419,-2.419,-2.419,-2.419,-2.419,-2.419,-2.419,-2.419,-2.419,-2.4209,-2.4294,-2.4321,-2.4303,-2.4228,-2.419,-2.419,-2.419,-2.419,-2.4263,-2.4585,-2.4677,-2.4677,-2.4677,-2.4438,-2.419,-2.419,-2.419,-2.419,-2.419,-2.4447,-2.4585,-2.4263,-2.4456,-2.4566,-2.4245,-2.3865,-2.3493,-2.3242,-2.2995,-2.2811,-2.2708,-2.3117,-2.3488,-2.3682,-2.4006,-2.4006,-2.3533,-2.3009,-2.2573,-2.2307,-2.2398,-2.2473,-2.2537,-2.2759,-2.2996,-2.32,-2.3129,-2.3189,-2.3403,-2.3533,-2.3606,-2.3577,-2.3247,-2.32,-2.338,-2.3045,-2.3021,-2.3177,-2.2984,-2.291,-2.2873,-2.2563,-2.2463,-2.2453,-2.2335,-2.2377,-2.249,-3.0028,-3.0222,-3.0404,-3.0404,-3.0404,-3.0135,-2.9338,-2.853,-2.7698,-2.6832,-2.586,-2.5219,-2.5143,-2.5107,-2.5453,-2.6352,-2.7338,-2.7368,-2.608,-2.5993,-2.5448,-2.4255,-2.419,-2.419,-2.419,-2.4218,-2.4321,-2.4503,-2.4321,-2.4348,-2.4495,-2.4312,-2.4218,-2.419,-2.419,-2.419,-2.419,-2.4218,-2.4228,-2.4228,-2.4228,-2.4228,-2.4228,-2.4199,-2.419,-2.4199,-2.4218,-2.4228,-2.4247,-2.4435,-2.4503,-2.4461,-2.4257,-2.419,-2.419,-2.419,-2.419,-2.4373,-2.5172,-2.5393,-2.5411,-2.5485,-2.497,-2.4392,-2.4318,-2.4245,-2.4245,-2.4373,-2.4934,-2.5191,-2.4538,-2.5007,-2.5264,-2.452,-2.439,-2.4137,-2.3441,-2.365,-2.3634,-2.2977,-2.3495,-2.393,-2.3952,-2.4235,-2.4091,-2.33,-2.3025,-2.2734,-2.2363,-2.2577,-2.2599,-2.2391,-2.2908,-2.3224,-2.33,-2.3588,-2.3735,-2.3753,-2.4046,-2.419,-2.418,-2.3847,-2.3714,-2.3724,-2.3392,-2.3247,-2.3288,-2.3265,-2.3236,-2.32,-2.2885,-2.2746,-2.2708,-2.244,-2.25,-2.2759,-3.0267,-3.0361,-3.0404,-3.0404,-3.0404,-3.0346,-3.0154,-2.939,-2.8549,-2.7736,-2.7426,-2.7006,-2.6329,-2.6845,-2.7319,-2.7539,-2.7758,-2.7368,-2.608,-2.5993,-2.5448,-2.4255,-2.419,-2.419,-2.419,-2.4348,-2.4452,-2.4503,-2.4607,-2.4607,-2.4503,-2.4452,-2.4348,-2.419,-2.419,-2.419,-2.4209,-2.4366,-2.4426,-2.4426,-2.4426,-2.4426,-2.4428,-2.4266,-2.419,-2.4218,-2.4375,-2.4426,-2.4435,-2.4486,-2.4503,-2.4461,-2.4257,-2.419,-2.419,-2.419,-2.419,-2.4373,-2.5172,-2.5393,-2.554,-2.6172,-2.6209,-2.5915,-2.5283,-2.4658,-2.4557,-2.5823,-2.5723,-2.554,-2.6007,-2.6227,-2.6282,-2.6117,-2.5863,-2.5421,-2.4635,-2.4915,-2.4998,-2.4473,-2.5097,-2.5683,-2.5957,-2.6049,-2.5395,-2.3729,-2.4107,-2.388,-2.2669,-2.2673,-2.2784,-2.2989,-2.3117,-2.3448,-2.3986,-2.4064,-2.4094,-2.4094,-2.417,-2.419,-2.418,-2.3847,-2.3837,-2.4074,-2.3753,-2.3735,-2.3947,-2.3703,-2.3588,-2.3555,-2.3224,-2.3093,-2.3057,-2.2725,-2.2827,-2.3129,-3.0355,-3.0404,-3.0404,-3.0404,-3.0404,-3.0269,-2.9833,-2.939,-2.8819,-2.8011,-2.7895,-2.7741,-2.7274,-2.7621,-2.8049,-2.8434,-2.8472,-2.8151,-2.7381,-2.7252,-2.6507,-2.4977,-2.4827,-2.4643,-2.4348,-2.4545,-2.4639,-2.4639,-2.4654,-2.4647,-2.4639,-2.4444,-2.4303,-2.419,-2.419,-2.419,-2.4209,-2.44,-2.4503,-2.4503,-2.4503,-2.4503,-2.4478,-2.4275,-2.419,-2.4228,-2.4436,-2.4596,-2.4715,-2.4551,-2.4551,-2.4583,-2.4294,-2.419,-2.4281,-2.4658,-2.4768,-2.5026,-2.6219,-2.6549,-2.666,-2.7071,-2.7163,-2.6961,-2.6153,-2.564,-2.5585,-2.6429,-2.6576,-2.6568,-2.6594,-2.6906,-2.7053,-2.6657,-2.6458,-2.6132,-2.5549,-2.5827,-2.5935,-2.552,-2.5989,-2.6414,-2.6573,-2.6602,-2.611,-2.4928,-2.4877,-2.4491,-2.3563,-2.3305,-2.3177,-2.32,-2.3511,-2.3774,-2.3966,-2.4498,-2.4768,-2.4768,-2.4373,-2.419,-2.419,-2.4016,-2.4026,-2.418,-2.4016,-2.4044,-2.418,-2.4006,-2.3937,-2.3896,-2.3392,-2.32,-2.3141,-2.2682,-2.2807,-2.3247,-3.0355,-3.0404,-3.0404,-3.0404,-3.0404,-3.0154,-2.9429,-2.9319,-2.903,-2.8203,-2.8236,-2.8275,-2.8126,-2.8107,-2.8376,-2.905,-2.9107,-2.8954,-2.8612,-2.8563,-2.7714,-2.5826,-2.5588,-2.5199,-2.4572,-2.4746,-2.4828,-2.4828,-2.4647,-2.4631,-2.479,-2.4393,-2.419,-2.419,-2.4237,-2.4256,-2.4275,-2.4485,-2.4599,-2.4572,-2.4559,-2.4543,-2.4528,-2.4284,-2.4218,-2.4275,-2.4478,-2.4766,-2.4998,-2.4685,-2.4697,-2.4801,-2.4542,-2.4459,-2.4615,-2.5384,-2.5613,-2.5925,-2.7412,-2.7831,-2.7871,-2.7993,-2.8033,-2.7889,-2.7174,-2.6804,-2.6675,-2.695,-2.7438,-2.764,-2.7097,-2.7567,-2.7787,-2.7115,-2.7005,-2.6856,-2.6461,-2.6746,-2.6856,-2.6431,-2.6764,-2.695,-2.6833,-2.6932,-2.6772,-2.6238,-2.5679,-2.5192,-2.4723,-2.4309,-2.3918,-2.3495,-2.4034,-2.4207,-2.3994,-2.4943,-2.5466,-2.5595,-2.4924,-2.4538,-2.4392,-2.4263,-2.419,-2.419,-2.419,-2.419,-2.419,-2.419,-2.419,-2.4141,-2.3533,-2.3288,-2.323,-2.2712,-2.2824,-2.3265,-3.0398,-3.0404,-3.0404,-3.0404,-3.0404,-3.0365,-3.0231,-3.0212,-2.991,-2.905,-2.9583,-2.9769,-2.903,-2.8934,-2.8973,-2.9088,-2.9107,-2.8724,-2.7822,-2.838,-2.7928,-2.6046,-2.5924,-2.5548,-2.4779,-2.4904,-2.4974,-2.4974,-2.4835,-2.4775,-2.479,-2.4393,-2.419,-2.4199,-2.4384,-2.4452,-2.4486,-2.4797,-2.4924,-2.493,-2.4806,-2.476,-2.4723,-2.4339,-2.4312,-2.4486,-2.4685,-2.4968,-2.5238,-2.4998,-2.4955,-2.5025,-2.5392,-2.5504,-2.5616,-2.6252,-2.6447,-2.6649,-2.7559,-2.7925,-2.8177,-2.8706,-2.9023,-2.9084,-2.875,-2.7592,-2.6987,-2.84,-2.8209,-2.797,-2.8565,-2.8767,-2.8803,-2.8693,-2.8675,-2.8425,-2.7669,-2.8205,-2.8407,-2.7651,-2.8212,-2.84,-2.7714,-2.8271,-2.8077,-2.6651,-2.7072,-2.6961,-2.5918,-2.5815,-2.5436,-2.4683,-2.4761,-2.4921,-2.5177,-2.5328,-2.576,-2.6447,-2.6337,-2.5915,-2.5209,-2.453,-2.419,-2.419,-2.419,-2.419,-2.419,-2.419,-2.419,-2.4161,-2.3785,-2.3621,-2.361,-2.3551,-2.3387,-2.33,-3.0404,-3.0404,-3.0404,-3.0404,-3.0404,-3.0404,-3.0404,-3.0404,-3.0269,-2.989,-3.0154,-3.025,-2.9871,-2.8986,-2.8607,-2.9069,-2.8684,-2.8637,-2.9129,-2.9358,-2.8696,-2.6963,-2.6752,-2.608,-2.4842,-2.4924,-2.5004,-2.5004,-2.4937,-2.4917,-2.491,-2.4543,-2.4436,-2.4518,-2.4512,-2.4551,-2.4685,-2.4904,-2.5004,-2.4992,-2.4855,-2.4804,-2.4768,-2.4478,-2.4409,-2.4545,-2.4816,-2.5084,-2.5269,-2.5077,-2.5004,-2.5095,-2.5687,-2.5874,-2.6101,-2.7306,-2.7567,-2.7646,-2.8603,-2.8846,-2.8919,-2.9293,-2.9404,-2.9372,-2.9246,-2.8909,-2.8675,-2.895,-2.906,-2.9108,-2.9023,-2.9721,-3.0191,-2.9739,-2.9666,-2.9549,-2.9182,-2.9457,-2.9537,-2.9182,-2.9457,-2.9354,-2.8546,-2.8785,-2.8712,-2.7996,-2.7842,-2.7578,-2.707,-2.6622,-2.6209,-2.5863,-2.596,-2.604,-2.6062,-2.664,-2.7017,-2.7273,-2.7273,-2.6851,-2.6062,-2.5695,-2.5291,-2.4879,-2.4879,-2.4622,-2.419,-2.419,-2.419,-2.4151,-2.3621,-2.3311,-2.3165,-2.3357,-2.3455,-2.3522]},{"header":{"parameterUnit":"m.s-1","parameterCategory":1,"la1":30.6,"la2":28.766,"lo1":-90.7593,"lo2":-88.6598,"dy":0.0162,"dx":0.0183,"nx":116,"ny":114,"refTime":"2023-07-18T12:00:00:Z","depth":0,"parameterNumber":3,"parameterNumberName":"V-component_of_WINDS"},"data":[0.0,0.0,0.0,0.0,0.0,0.0,0.0,0.0,0.0,0.0,0.0,0.0,0.0,0.0,0.0,0.0,0.0,0.0,0.0,0.0,0.0,0.0,0.0,0.0,0.0,0.0,0.0,0.0,0.0,0.0,0.0,0.0,0.0,0.0,0.0,0.0,0.0,0.0,0.0,0.0,0.0,0.0,0.0,0.0,0.0,0.0,0.0,0.0,0.0,0.0,0.0,0.0,0.0,0.0,0.0,0.0,0.0,0.0,0.0,0.0,0.0,0.0,0.0,0.0,0.0,0.0,0.0,0.0,0.0,0.0,0.0,0.0,0.0,0.0,0.0,0.0,0.0,0.0,0.0,0.0,0.0,0.0,0.0,0.0,0.0,0.0,0.0,0.0,0.0,0.0,0.0,0.0,0.0,0.0,0.0,0.0,0.0,0.0,0.0,0.0,0.0,0.0,0.0,0.0,0.0,0.0,0.0,0.0,0.0,0.0,0.0,0.0,0.0,0.0,0.0,0.0,0.0,0.0,0.0,0.0,0.0,0.0,0.0,0.0,0.0,0.0,0.0,0.0,0.0,0.0,0.0,0.0,0.0,0.0,0.0,0.0,0.0,0.0,0.0,0.0,0.0,0.0,0.0,0.0,0.0,0.0,0.0,0.0,0.0,0.0,0.0,0.0,0.0,0.0,0.0,0.0,0.0,0.0,0.0,0.0,0.0,0.0,0.0,0.0,0.0,0.0,0.0,0.0,0.0,0.0,0.0,0.0,0.0,0.0,0.0,0.0,0.0,0.0,0.0,0.0,0.0,0.0,0.0,0.0,0.0,0.0,0.0,0.0,0.0,0.0,0.0,0.0,0.0,0.0,0.0,0.0,0.0,0.0,0.0,0.0,0.0,0.0,0.0,0.0,0.0,0.0,0.0,0.0,0.0,0.0,0.0,0.0,0.0,0.0,0.0,0.0,0.0,0.0,0.0,0.0,0.0,0.0,0.0,0.0,0.0,0.0,0.0,0.0,0.0,0.0,0.0,0.0,0.0,0.0,0.0,0.0,0.0,0.0,0.0,0.0,0.0,0.0,0.0,0.0,0.0,0.0,0.0,0.0,0.0,0.0,0.0,0.0,0.0,0.0,0.0,0.0,0.0,0.0,0.0,0.0,0.0,0.0,0.0,0.0,0.0,0.0,0.0,0.0,0.0,0.0,0.0,0.0,0.0,0.0,0.0,0.0,0.0,0.0,0.0,0.0,0.0,0.0,0.0,0.0,0.0,0.0,0.0,0.0,0.0,0.0,0.0,0.0,0.0,0.0,0.0,0.0,0.0,0.0,0.0,0.0,0.0,0.0,0.0,0.0,0.0,0.0,0.0,0.0,0.0,0.0,0.0,0.0,0.0,0.0,0.0,0.0,0.0,0.0,0.0,0.0,0.0,0.0,0.0,0.0,0.0,0.0,0.0,0.0,0.0,0.0,0.0,0.0,0.0,0.0,0.0,0.0,0.0,0.0,0.0,0.0,0.0,0.0,0.0,0.0,0.0,0.0,0.0,0.0,0.0,0.0,0.0,0.0,0.0,0.0,0.0,0.0,0.0,0.0,0.0,0.0,0.0,0.0,0.0,0.0,0.0,0.0,0.0,0.0,0.0,0.0,0.0,0.0,0.0,0.0,0.0,0.0,0.0,0.0,0.0,0.0,0.0,0.0,0.0,0.0,0.0,0.0,0.0,0.0,0.0,0.0,0.0,0.0,0.0,0.0,0.0,0.0,0.0,0.0,0.0,0.0,0.0,0.0,0.0,0.0,0.0,0.0,0.0,0.0,0.0,0.0,0.0,0.0,0.0,0.0,0.0,0.0,0.0,0.0,0.0,0.0,0.0,0.0,0.0,0.0,0.0,0.0,0.0,0.0,0.0,0.0,0.0,0.0,0.0,0.0,0.0,0.0,0.0,0.0,0.0,0.0,0.0,0.0,0.0,0.0,0.0,0.0,0.0,0.0,0.0,0.0,0.0,0.0,0.0,0.0,0.0,0.0,0.0,0.0,0.0,0.0,0.0,0.0,0.0,0.0,0.0,0.0,0.0,0.0,0.0,0.0,0.0,0.0,0.0,0.0,0.0,0.0,0.0,0.0,0.0,0.0,0.0,0.0,0.0,0.0,0.0,0.0,0.0,0.0,0.0,0.0,0.0,0.0,0.0,0.0,0.0,0.0,0.0,0.0,0.0,0.0,0.0,0.0,0.0,0.0,0.0,0.0,0.0,0.0,0.0,0.0,0.0,0.0,0.0,0.0,0.0,0.0,0.0,0.0,0.0,0.0,0.0,0.0,0.0,0.0,0.0,0.0,0.0,0.0,0.0,0.0,0.0,0.0,0.0,0.0,0.0,0.0,0.0,0.0,0.0,0.0,0.0,0.0,0.0,0.0,0.0,0.0,0.0,0.0,0.0,0.0,0.0,0.0,0.0,0.0,0.0,0.0,0.0,0.0,0.0,0.0,0.0,0.0,0.0,0.0,0.0,0.0,0.0,0.0,0.0,0.0,0.0,0.0,0.0,0.0,0.0,0.0,0.0,0.0,0.0,0.0,0.0,0.0,0.0,0.0,0.0,0.0,0.0,0.0,0.0,0.0,0.0,0.0,0.0,0.0,0.0,0.0,0.0,0.0,0.0,0.0,0.0,0.0,0.0,0.0,0.0,0.0,0.0,0.0,0.0,0.0,0.0,0.0,0.0,0.0,0.0,0.0,0.0,0.0,0.0,0.0,0.0,0.0,0.0,0.0,0.0,0.0,0.0,0.0,0.0,0.0,0.0,0.0,0.0,0.0,0.0,0.0,0.0,0.0,0.0,0.0,0.0,0.0,0.0,0.0,0.0,0.0,0.0,0.0,0.0,0.0,0.0,0.0,0.0,0.0,0.0,0.0,0.0,0.0,0.0,0.0,0.0,0.0,0.0,0.0,0.0,0.0,0.0,0.0,0.0,0.0,0.0,0.0,0.0,0.0,0.0,0.0,0.0,0.0,0.0,0.0,0.0,0.0,0.0,0.0,0.0,0.0,0.0,0.0,0.0,0.0,0.0,0.0,0.0,0.0,0.0,0.0,0.0,0.0,0.0,0.0,0.0,0.0,0.0,0.0,0.0,0.0,0.0,0.0,0.0,0.0,0.0,0.0,0.0,0.0,0.0,0.0,0.0,0.0,0.0,0.0,0.0,0.0,0.0,0.0,0.0,0.0,0.0,0.0,0.0,0.0,0.0,0.0,0.0,0.0,0.0,0.0,0.0,0.0,0.0,0.0,0.0,0.0,0.0,0.0,0.0,0.0,0.0,0.0,0.0,0.0,0.0,0.0,0.0,0.0,0.0,0.0,0.0,0.0,0.0,0.0,0.0,0.0,0.0,0.0,0.0,0.0,0.0,0.0,0.0,0.0,0.0,0.0,0.0,0.0,0.0,0.0,0.0,0.0,0.0,0.0,0.0,0.0,0.0,0.0,0.0,0.0,0.0,0.0,0.0,0.0,0.0,0.0,0.0,0.0,0.0,0.0,0.0,0.0,0.0,0.0,0.0,0.0,0.0,0.0,0.0,0.0,0.0,0.0,0.0,0.0,0.0,0.0,0.0,0.0,0.0,0.0,0.0,0.0,0.0,0.0,0.0,0.0,0.0,0.0,0.0,0.0,0.0,0.0,0.0,0.0,0.0,0.0,0.0,0.0,0.0,0.0,0.0,0.0,0.0,0.0,0.0,0.0,0.0,0.0,0.0,0.0,0.0,0.0,0.0,0.0,0.0,0.0,0.0,0.0,0.0,0.0,0.0,0.0,0.0,0.0,0.0,0.0,0.0,0.0,0.0,0.0,0.0,0.0,0.0,0.0,0.0,0.0,0.0,0.0,0.0,0.0,0.0,0.0,0.0,0.0,0.0,0.0,0.0,0.0,0.0,0.0,0.0,0.0,0.0,0.0,0.0,0.0,0.0,0.0,0.0,0.0,0.0,0.0,0.0,0.0,0.0,0.0,0.0,0.0,0.0,0.0,0.0,0.0,0.0,0.0,0.0,0.0,0.0,0.0,0.0,0.0,0.0,0.0,0.0,0.0,0.0,0.0,0.0,0.0,0.0,0.0,0.0,0.0,0.0,0.0,0.0,0.0,0.0,0.0,0.0,0.0,0.0,0.0,0.0,0.0,0.0,0.0,0.0,0.0,0.0,0.0,0.0,0.0,0.0,0.0,0.0,0.0,0.0,0.0,0.0,0.0,0.0,0.0,0.0,0.0,0.0,0.0,0.0,0.0,0.0,0.0,0.0,0.0,0.0,0.0,0.0,0.0,0.0,0.0,0.0,0.0,0.0,0.0,0.0,0.0,0.0,0.0,0.0,0.0,0.0,0.0,0.0,0.0,0.0,0.0,0.0,0.0,0.0,0.0,0.0,0.0,0.0,0.0,0.0,0.0,0.0,0.0,0.0,0.0,0.0,0.0,0.0,0.0,0.0,0.0,0.0,0.0,0.0,0.0,0.0,0.0,0.0,0.0,0.0,0.0,0.0,0.0,0.0,0.0,0.0,0.0,0.0,0.0,0.0,0.0,0.0,0.0,0.0,0.0,0.0,0.0,0.0,0.0,0.0,0.0,0.0,0.0,0.0,0.0,0.0,0.0,0.0,0.0,0.0,0.0,0.0,0.0,0.0,0.0,0.0,0.0,0.0,0.0,0.0,0.0,0.0,0.0,0.0,0.0,0.0,0.0,0.0,0.0,0.0,0.0,0.0,0.0,0.0,0.0,0.0,0.0,0.0,0.0,0.0,0.0,0.0,0.0,0.0,0.0,0.0,0.0,0.0,0.0,0.0,0.0,0.0,0.0,0.0,0.0,0.0,0.0,0.0,0.0,0.0,0.0,0.0,0.0,0.0,0.0,0.0,0.0,0.0,0.0,0.0,0.0,0.0,0.0,0.0,0.0,0.0,0.0,0.0,0.0,0.0,0.0,0.0,0.0,0.0,0.0,0.0,0.0,0.0,0.0,0.0,0.0,0.0,0.0,0.0,0.0,0.0,0.0,0.0,0.0,0.0,0.0,0.0,0.0,0.0,0.0,0.0,0.0,0.0,0.0,0.0,0.0,0.0,0.0,0.0,0.0,0.0,0.0,0.0,0.0,0.0,0.0,0.0,0.0,0.0,0.0,0.0,0.0,0.0,0.0,0.0,0.0,0.0,0.0,0.0,0.0,0.0,0.0,0.0,0.0,0.0,0.0,0.0,0.0,0.0,0.0,0.0,0.0,0.0,0.0,0.0,0.0,0.0,0.0,0.0,0.0,0.0,0.0,0.0,0.0,0.0,0.0,0.0,0.0,0.0,0.0,0.0,0.0,0.0,0.0,0.0,0.0,0.0,0.0,0.0,0.0,0.0,0.0,0.0,0.0,0.0,0.0,0.0,0.0,0.0,0.0,0.0,0.0,0.0,0.0,0.0,0.0,0.0,0.0,0.0,0.0,0.0,0.0,0.0,0.0,0.0,0.0,0.0,0.0,0.0,0.0,0.0,0.0,0.0,0.0,0.0,0.0,0.0,0.0,0.0,0.0,0.0,0.0,0.0,0.0,0.0,0.0,0.0,0.0,0.0,0.0,0.0,0.0,0.0,0.0,0.0,0.0,0.0,0.0,0.0,0.0,0.0,0.0,0.0,0.0,0.0,0.0,0.0,0.0,0.0,0.0,0.0,0.0,0.0,0.0,0.0,0.0,0.0,0.0,0.0,0.0,0.0,0.0,0.0,0.0,0.0,0.0,0.0,0.0,0.0,0.0,0.0,0.0,0.0,0.0,0.0,0.0,0.0,0.0,0.0,0.0,0.0,0.0,0.0,0.0,0.0,0.0,0.0,0.0,0.0,0.0,0.0,0.0,0.0,0.0,0.0,0.0,0.0,0.0,0.0,0.0,0.0,0.0,0.0,0.0,0.0,0.0,0.0,0.0,0.0,0.0,0.0,0.0,0.0,0.0,0.0,0.0,0.0,0.0,0.0,0.0,0.0,0.0,0.0,0.0,0.0,0.0,0.0,0.0,0.0,0.0,0.0,0.0,0.0,0.0,0.0,0.0,0.0,0.0,0.0,0.0,0.0,0.0,0.0,0.0,0.0,0.0,-2.0946,0.0,0.0,0.0,0.0,0.0,0.0,0.0,0.0,0.0,0.0,0.0,0.0,0.0,0.0,0.0,0.0,0.0,0.0,0.0,0.0,0.0,0.0,0.0,0.0,0.0,0.0,0.0,0.0,0.0,0.0,0.0,0.0,0.0,0.0,0.0,0.0,0.0,0.0,0.0,0.0,0.0,0.0,0.0,0.0,0.0,0.0,0.0,0.0,0.0,0.0,0.0,0.0,0.0,0.0,0.0,0.0,0.0,0.0,0.0,0.0,0.0,0.0,0.0,0.0,0.0,0.0,0.0,0.0,0.0,0.0,0.0,0.0,0.0,0.0,0.0,0.0,0.0,0.0,0.0,0.0,0.0,0.0,0.0,0.0,0.0,0.0,0.0,0.0,0.0,0.0,0.0,0.0,0.0,0.0,0.0,0.0,0.0,0.0,0.0,0.0,0.0,0.0,0.0,0.0,0.0,0.0,0.0,0.0,0.0,0.0,0.0,0.0,0.0,0.0,0.0,0.0,-2.1665,0.0,0.0,0.0,0.0,0.0,0.0,0.0,0.0,0.0,0.0,0.0,0.0,0.0,0.0,0.0,0.0,0.0,0.0,0.0,0.0,0.0,0.0,0.0,0.0,0.0,0.0,0.0,0.0,0.0,0.0,0.0,0.0,0.0,0.0,0.0,0.0,0.0,0.0,0.0,0.0,0.0,0.0,0.0,0.0,0.0,0.0,0.0,0.0,0.0,0.0,0.0,0.0,0.0,0.0,0.0,0.0,0.0,0.0,0.0,0.0,0.0,0.0,0.0,0.0,0.0,0.0,0.0,0.0,0.0,0.0,0.0,0.0,0.0,0.0,0.0,0.0,0.0,0.0,0.0,0.0,0.0,0.0,0.0,0.0,0.0,0.0,0.0,0.0,0.0,0.0,0.0,0.0,0.0,0.0,0.0,0.0,0.0,0.0,0.0,0.0,0.0,0.0,0.0,0.0,0.0,0.0,0.0,0.0,-2.5038,-2.5696,-2.6153,-2.6811,-2.7171,-2.7141,-2.4889,-2.3706,-2.3347,-2.2882,0.0,0.0,0.0,0.0,0.0,0.0,0.0,0.0,0.0,0.0,0.0,0.0,0.0,0.0,0.0,0.0,0.0,0.0,0.0,0.0,0.0,0.0,0.0,0.0,0.0,0.0,0.0,0.0,0.0,0.0,0.0,0.0,0.0,0.0,0.0,0.0,0.0,0.0,-2.0569,-2.1261,-2.1769,-2.2134,-2.1051,0.0,0.0,0.0,0.0,0.0,0.0,0.0,0.0,0.0,0.0,0.0,0.0,0.0,0.0,0.0,0.0,0.0,0.0,0.0,0.0,0.0,0.0,0.0,0.0,0.0,0.0,0.0,0.0,0.0,0.0,0.0,0.0,0.0,0.0,0.0,0.0,0.0,0.0,0.0,0.0,0.0,0.0,0.0,-1.8634,-1.8685,0.0,0.0,0.0,0.0,0.0,0.0,0.0,0.0,0.0,0.0,0.0,0.0,0.0,-2.3684,-2.4956,-2.6207,-2.6611,-2.6213,-2.8053,-2.8667,-2.8233,-2.8891,-2.9475,-2.9939,-2.9082,0.0,-2.5899,-2.3646,0.0,0.0,0.0,0.0,0.0,0.0,0.0,0.0,0.0,0.0,0.0,0.0,0.0,0.0,0.0,0.0,0.0,0.0,0.0,0.0,0.0,0.0,0.0,0.0,0.0,0.0,0.0,0.0,0.0,0.0,0.0,0.0,0.0,0.0,0.0,0.0,-1.9824,-2.0872,-2.1844,-2.2862,-2.3699,-2.4283,-2.3319,-2.2981,-2.2981,-2.1475,0.0,0.0,0.0,0.0,0.0,0.0,0.0,0.0,0.0,0.0,0.0,0.0,0.0,0.0,0.0,0.0,0.0,0.0,0.0,0.0,0.0,0.0,0.0,0.0,0.0,0.0,0.0,0.0,0.0,0.0,0.0,0.0,0.0,0.0,0.0,0.0,0.0,0.0,0.0,-1.9045,-1.969,-1.9301,-1.9854,-2.0258,0.0,0.0,0.0,0.0,0.0,0.0,0.0,0.0,0.0,-2.4859,-2.5136,-2.5929,-2.7275,-2.8233,-2.8921,-2.9385,-3.0627,-3.127,-3.136,-3.1659,-3.2138,-3.2691,-3.2063,-3.1285,-3.0208,-2.6851,-2.5398,-2.5166,0.0,0.0,0.0,0.0,-2.364,-2.3909,0.0,0.0,0.0,0.0,0.0,0.0,0.0,0.0,0.0,0.0,0.0,0.0,0.0,0.0,0.0,-1.692,0.0,0.0,0.0,0.0,0.0,0.0,0.0,0.0,0.0,0.0,0.0,0.0,-2.0936,-2.2263,-2.3482,-2.4579,-2.5545,-2.6363,-2.6025,-2.5166,-2.3871,-2.2682,-2.2009,0.0,0.0,0.0,0.0,0.0,0.0,0.0,0.0,0.0,0.0,0.0,0.0,0.0,0.0,0.0,0.0,0.0,0.0,0.0,0.0,0.0,0.0,0.0,0.0,0.0,0.0,0.0,0.0,0.0,0.0,0.0,0.0,0.0,0.0,0.0,0.0,0.0,0.0,-1.972,-2.0198,-1.951,-2.0348,-2.0882,0.0,0.0,0.0,0.0,0.0,0.0,-2.3661,-2.4926,-2.6219,-2.756,-2.7754,-2.8502,-2.9834,-3.0535,-3.1315,-3.2273,-3.2931,-3.3544,-3.4008,-3.4008,-3.4277,-3.4728,-3.4038,-3.3739,-3.3469,-2.9846,-2.7959,-2.729,-2.6632,-2.6273,-2.6108,-2.6108,-2.6108,-2.6153,0.0,0.0,0.0,0.0,0.0,0.0,0.0,0.0,0.0,0.0,0.0,0.0,0.0,0.0,-1.5847,-1.7928,-1.7758,-1.7728,0.0,0.0,0.0,0.0,0.0,0.0,0.0,0.0,0.0,-2.1545,-2.1511,-2.2869,-2.5472,-2.6108,-2.715,-2.8487,-2.9071,-2.8618,-2.718,-2.4582,-2.3864,-2.4246,0.0,0.0,0.0,0.0,0.0,0.0,0.0,0.0,0.0,0.0,0.0,0.0,0.0,0.0,0.0,0.0,0.0,0.0,0.0,0.0,0.0,0.0,0.0,0.0,0.0,0.0,0.0,0.0,0.0,0.0,0.0,0.0,0.0,0.0,0.0,0.0,0.0,0.0,0.0,-1.8837,-2.0468,0.0,0.0,0.0,0.0,-2.3355,-2.4657,-2.5704,-2.6363,-2.7664,-2.8981,-3.0268,-3.0913,-3.1899,-3.323,-3.3934,-3.4294,-3.4369,-3.5026,-3.537,-3.54,-3.54,-3.5429,-3.5415,-3.4726,-3.4459,-3.4249,-3.148,-2.9998,-2.9397,-2.8712,-2.8053,-2.7495,-2.7495,-2.7495,-2.7405,0.0,0.0,0.0,0.0,0.0,0.0,0.0,0.0,0.0,0.0,0.0,0.0,0.0,-1.6799,-1.7868,-1.8655,-1.9614,-1.9738,-1.8789,0.0,0.0,0.0,0.0,0.0,0.0,0.0,-2.1445,-2.2343,-2.3409,-2.4661,-2.609,-2.7588,-2.8553,-2.9112,-3.0297,-3.0567,-2.9953,-2.7275,-2.5809,-2.5068,-2.3116,-2.1804,0.0,0.0,0.0,0.0,0.0,0.0,0.0,0.0,0.0,0.0,0.0,0.0,0.0,0.0,0.0,0.0,0.0,0.0,0.0,0.0,0.0,0.0,0.0,0.0,0.0,0.0,0.0,0.0,0.0,0.0,0.0,0.0,0.0,0.0,0.0,0.0,0.0,-2.2467,-2.3894,0.0,-2.5129,-2.5189,-2.5488,-2.6132,-2.7435,-2.8442,-2.9086,-3.0387,-3.1719,-3.3021,-3.3305,-3.3858,-3.4786,-3.5011,-3.513,-3.5145,-3.5385,-3.5504,-3.5504,-3.5504,-3.5504,-3.5489,-3.525,-3.513,-3.507,-3.4113,-3.2826,-3.136,-3.0253,-2.9684,-2.946,-2.946,-2.9744,-3.0088,0.0,0.0,0.0,0.0,0.0,0.0,0.0,0.0,0.0,0.0,0.0,-1.462,-1.5361,-1.7068,-1.8449,-1.9183,-2.0033,-2.0093,-1.9074,0.0,0.0,0.0,0.0,0.0,0.0,-2.1158,-2.2509,-2.3577,-2.447,-2.5612,-2.7008,-2.8539,-2.9502,-3.009,-3.1205,-3.1871,-3.2019,-2.9621,-2.7856,-2.6467,-2.4702,-2.3751,-2.3059,0.0,0.0,0.0,0.0,0.0,0.0,0.0,0.0,0.0,0.0,0.0,0.0,0.0,0.0,0.0,0.0,0.0,0.0,0.0,0.0,0.0,0.0,0.0,0.0,0.0,0.0,0.0,0.0,0.0,0.0,0.0,0.0,0.0,0.0,0.0,-2.4522,-2.5187,-2.6662,-2.7705,-2.7929,-2.7919,-2.8188,-2.8861,-3.0148,-3.118,-3.1809,-3.2916,-3.3918,-3.4801,-3.4848,-3.504,-3.5504,-3.5504,-3.5504,-3.5504,-3.5504,-3.5504,-3.5504,-3.5504,-3.5504,-3.5504,-3.5504,-3.5504,-3.5504,-3.5504,-3.4726,-3.344,-3.2542,-3.1779,-3.124,-3.1674,-3.1854,-3.1839,0.0,0.0,0.0,0.0,0.0,0.0,0.0,0.0,0.0,0.0,-1.2619,-1.3679,-1.4796,-1.5919,-1.744,-1.961,-1.8832,-1.8406,-1.8945,-1.7403,0.0,0.0,0.0,0.0,-2.0886,-2.2009,-2.3464,-2.5314,-2.4526,-2.5559,-2.8297,-2.8865,-2.9948,-3.1485,-3.1917,-3.2611,-3.3344,-3.15,-2.9922,-2.8573,-2.717,-2.6598,-2.6111,0.0,0.0,0.0,0.0,0.0,0.0,0.0,0.0,0.0,0.0,0.0,0.0,0.0,0.0,0.0,0.0,0.0,0.0,0.0,0.0,0.0,0.0,0.0,0.0,0.0,0.0,0.0,0.0,0.0,0.0,0.0,0.0,0.0,-2.2897,-2.4507,-2.6004,-2.6662,-2.8513,-2.946,-2.8846,-2.9894,-3.0911,-3.157,-3.2841,-3.3844,-3.4503,-3.5145,-3.5504,-3.5504,-3.5504,-3.5504,-3.5504,-3.5504,-3.5504,-3.5504,-3.5504,-3.5504,-3.5504,-3.5504,-3.5504,-3.5504,-3.5504,-3.5504,-3.5504,-3.5504,-3.5504,-3.5504,-3.5459,-3.4262,-3.2706,-3.3979,-3.3604,-3.2512,0.0,0.0,0.0,0.0,0.0,0.0,0.0,0.0,0.0,0.0,-1.3513,-1.4689,-1.5412,-1.7187,-1.8707,-1.971,-1.8832,-1.8267,-1.8417,0.0,0.0,0.0,0.0,0.0,-2.1388,-2.3093,-2.4365,-2.5244,-2.5346,-2.6224,-2.7821,-2.8893,-2.9841,-3.0761,-3.1951,-3.2596,-3.2871,-3.3022,-3.2203,-3.0548,-2.7886,-2.6716,-2.6166,0.0,0.0,0.0,0.0,0.0,0.0,0.0,0.0,0.0,0.0,0.0,0.0,0.0,0.0,0.0,0.0,0.0,0.0,0.0,0.0,0.0,0.0,0.0,0.0,0.0,0.0,0.0,0.0,0.0,0.0,0.0,0.0,-2.5704,-2.5563,-2.7619,-2.9415,-3.0061,-3.1509,-3.2542,-3.2856,-3.317,-3.3664,-3.4367,-3.4756,-3.504,-3.522,-3.54,-3.5504,-3.5504,-3.5504,-3.5504,-3.5504,-3.5504,-3.5504,-3.5504,-3.5504,-3.5504,-3.5504,-3.5504,-3.5504,-3.5504,-3.5504,-3.5504,-3.5504,-3.5504,-3.5504,-3.5415,-3.4427,-3.3709,-3.3215,-3.3095,-3.2826,-3.2512,0.0,0.0,0.0,0.0,0.0,0.0,0.0,0.0,0.0,0.0,-1.3727,-1.4921,-1.5009,-1.6785,-1.8067,-1.8405,-1.7852,-1.74,-1.7174,0.0,0.0,0.0,0.0,-2.1425,-2.2656,-2.3758,-2.4819,-2.5846,-2.579,-2.6525,-2.8005,-2.9016,-3.0015,-3.0922,-3.1667,-3.2249,-3.2558,-3.2335,-3.2165,-3.1763,-2.8872,-2.8102,-2.8258,-2.4778,-2.3977,-2.4529,-2.2832,-2.2979,-2.3744,-2.1934,0.0,0.0,0.0,0.0,0.0,0.0,0.0,0.0,0.0,0.0,0.0,0.0,0.0,0.0,0.0,0.0,0.0,0.0,0.0,0.0,0.0,0.0,0.0,0.0,-2.7365,-2.8861,-2.94,-3.0552,-3.1704,-3.2647,-3.3694,-3.4487,-3.4876,-3.4906,-3.507,-3.5474,-3.5504,-3.5504,-3.5504,-3.5504,-3.5504,-3.5504,-3.5504,-3.5504,-3.5504,-3.5504,-3.5504,-3.5504,-3.5504,-3.5504,-3.5504,-3.5504,-3.5504,-3.5504,-3.5504,-3.5504,-3.5504,-3.5504,-3.5504,0.0,0.0,0.0,0.0,0.0,-3.2931,-3.2931,0.0,0.0,0.0,0.0,0.0,0.0,0.0,0.0,0.0,0.0,0.0,-1.4438,-1.3905,-1.5239,-1.6173,-1.6236,-1.6236,-1.6082,0.0,0.0,0.0,-1.8953,-2.0347,-2.199,-2.3933,-2.4129,-2.4957,-2.6491,-2.5879,-2.6569,-2.8468,-2.9075,-3.0077,-3.1379,-3.1139,-3.1499,-3.2177,-3.0608,-3.0846,-3.21,-2.999,-3.0022,-3.0897,-2.6769,-2.6667,-2.8349,-2.5536,-2.4733,-2.4893,-2.4089,0.0,0.0,0.0,0.0,0.0,0.0,0.0,0.0,0.0,0.0,0.0,0.0,0.0,0.0,0.0,0.0,0.0,0.0,0.0,0.0,0.0,0.0,0.0,0.0,-3.0539,-3.2213,-3.3634,-3.326,-3.329,-3.4488,-3.513,-3.5504,-3.5504,-3.5504,-3.5504,-3.5504,-3.5504,-3.5504,-3.5504,0.0,0.0,0.0,0.0,-3.5504,-3.5504,-3.5504,-3.5504,-3.5504,-3.5504,-3.5504,-3.5504,-3.5504,-3.5504,-3.5504,-3.5504,-3.5504,-3.5504,-3.5504,-3.5504,-3.5489,-3.5429,-3.4577,-3.3395,-3.3469,-3.344,-3.3395,0.0,0.0,0.0,0.0,0.0,0.0,0.0,0.0,0.0,-1.1084,-1.2186,-1.2782,-1.2302,-1.3344,-1.4221,-1.4534,-1.4663,-1.5003,0.0,0.0,-1.8338,-1.8977,-2.1487,-2.2818,-2.2674,-2.4145,-2.4992,-2.5185,-2.5451,-2.6492,-2.8174,-2.8324,-2.8994,-3.0126,-3.0088,-3.0177,-3.0355,-3.0758,-3.0696,-3.0381,-3.0641,-3.0418,-2.9704,-2.7677,-2.6725,-2.6398,-2.5965,-2.6605,-2.7333,-2.5758,-2.6051,-2.6594,-2.3587,0.0,0.0,0.0,0.0,0.0,0.0,0.0,0.0,0.0,0.0,0.0,0.0,0.0,0.0,0.0,0.0,0.0,0.0,0.0,0.0,-3.133,-3.2527,-3.3769,-3.5654,-3.534,-3.5026,-3.528,-3.5429,-3.5504,-3.5504,-3.5504,-3.5504,-3.5504,-3.5504,-3.5504,-3.5504,-3.5504,-3.5504,-3.5504,-3.5504,-3.5504,-3.5504,-3.5504,-3.5504,-3.5504,0.0,0.0,-3.5504,-3.5504,-3.5504,-3.5504,-3.5504,-3.5504,-3.5504,-3.5504,-3.5504,-3.5444,-3.4891,-3.3858,-3.2766,-3.3305,-3.3155,-3.2781,0.0,0.0,0.0,0.0,0.0,0.0,0.0,0.0,0.0,0.0,-1.1884,-1.2359,-1.185,-1.2549,-1.3011,-1.2954,-1.3468,0.0,0.0,-1.767,-1.8831,-1.9384,-2.1626,-2.2933,-2.3138,-2.4088,-2.4746,-2.5209,-2.5473,-2.6452,-2.8109,-2.8109,-2.8712,-2.9792,-2.9792,-2.9792,-2.983,-3.0317,-3.0241,-2.983,-3.0317,-3.0147,-2.9555,-2.8513,-2.7933,-2.7584,-2.7412,-2.7531,-2.7596,-2.6641,-2.6334,-2.604,-2.404,-2.2433,-2.1014,0.0,0.0,0.0,0.0,0.0,0.0,0.0,0.0,0.0,0.0,0.0,0.0,0.0,0.0,-2.6892,0.0,0.0,-3.1584,-3.323,-3.4337,-3.5235,-3.5908,-3.5714,-3.5504,-3.5504,-3.5504,-3.5504,-3.5504,-3.5504,-3.5504,-3.5504,-3.5504,-3.5504,-3.5504,-3.5504,-3.5504,-3.5504,-3.5504,-3.5504,-3.5504,-3.5504,-3.5504,-3.5504,-3.5504,-3.5504,-3.5504,-3.5504,-3.5504,-3.5504,-3.5504,-3.5504,-3.5504,-3.5504,-3.5504,-3.5474,-3.513,-3.4592,-3.4008,-3.3993,-3.3784,-3.3544,0.0,0.0,0.0,0.0,0.0,0.0,0.0,0.0,0.0,0.0,-1.1571,-1.1938,-1.1431,-1.1767,-1.1957,0.0,0.0,0.0,0.0,-1.7947,-1.9171,-1.9936,-2.1581,-2.2899,-2.3816,-2.3941,-2.4469,-2.5448,-2.5548,-2.6402,-2.7946,-2.8059,-2.8649,-2.9628,-2.9741,-2.9792,-2.9792,-2.9792,-2.9792,-2.9792,-2.9792,-2.9792,-2.9729,-2.9113,-2.8992,-2.9091,-2.8544,-2.7694,-2.6809,-2.676,-2.5741,-2.4409,-2.3852,-2.2864,-2.1577,-1.9839,-1.9563,0.0,0.0,0.0,0.0,0.0,0.0,0.0,0.0,0.0,-2.5482,-2.6847,-2.8427,-2.9953,-3.124,-3.2691,-3.3978,-3.4923,-3.5744,-3.6148,-3.5744,-3.5594,-3.5504,-3.5504,-3.5504,-3.5504,-3.5504,-3.5504,-3.5504,-3.5504,-3.5504,-3.5504,-3.5504,-3.5504,-3.5504,-3.5504,-3.5504,-3.5504,-3.5504,-3.5504,-3.5504,-3.5504,-3.5504,-3.5504,-3.5504,-3.5504,-3.5504,-3.5504,-3.5504,-3.5504,-3.5504,-3.5504,-3.5504,-3.5504,-3.5504,-3.5504,-3.5429,-3.4876,-3.4623,-3.4533,0.0,0.0,0.0,0.0,0.0,0.0,0.0,0.0,0.0,0.0,0.0,0.0,0.0,0.0,0.0,0.0,0.0,0.0,-1.6238,-1.7597,-1.897,-2.0528,-2.2159,-2.307,-2.3195,-2.374,-2.4293,-2.4876,-2.5372,-2.6201,-2.7381,-2.7871,-2.8436,-2.9013,-2.9566,-2.9792,-2.9792,-2.9792,-2.9792,-2.9792,-2.9792,-2.9792,-2.9729,-2.9113,-2.8624,-2.8212,-2.79,-2.6757,-2.5467,-2.5757,-2.5701,-2.548,-2.5092,-2.4235,-2.2987,-2.1086,0.0,-1.8969,-1.8362,-1.9119,-2.0602,-2.2741,-2.3441,-2.4781,0.0,0.0,-3.0317,-3.2228,-3.2796,-3.3365,-3.4696,-3.4637,-3.4966,-3.6791,-3.6252,-3.5789,-3.6297,-3.5878,-3.5504,-3.5504,-3.5504,-3.5504,-3.5504,-3.5504,-3.5504,-3.5504,-3.5504,-3.5504,-3.5504,-3.5504,-3.5504,-3.5504,-3.5504,-3.5504,-3.5504,-3.5504,-3.5504,-3.5504,-3.5504,-3.5504,-3.5504,-3.5504,-3.5504,-3.5504,-3.5504,-3.5504,-3.5504,-3.5504,-3.5504,-3.5504,-3.5504,-3.5504,-3.5489,-3.5415,-3.4996,-3.4593,0.0,0.0,0.0,0.0,0.0,0.0,0.0,0.0,0.0,0.0,0.0,0.0,0.0,0.0,0.0,0.0,0.0,0.0,-1.5767,-1.7353,-1.8656,-1.9673,-2.1578,-2.2631,-2.2631,-2.354,-2.4268,-2.4788,-2.5335,-2.6176,-2.7293,-2.7519,-2.8097,-2.89,-2.9176,-2.9478,-2.9792,-2.9792,-2.9792,-2.9792,-2.9792,-2.9591,-2.9227,-2.8662,-2.7519,-2.616,-2.6034,-2.4928,0.0,0.0,-2.3264,-2.3234,-2.3101,-2.2742,-2.2018,-2.0255,-2.0415,0.0,-2.1814,-2.2909,0.0,0.0,-2.6874,-2.9218,-3.0615,-3.1913,-3.317,-3.4412,-3.4966,-3.5415,-3.5968,-3.5833,-3.5789,0.0,-3.6163,-3.6028,-3.5923,-3.5684,-3.5355,-3.4951,-3.5265,-3.5504,-3.5504,-3.5504,-3.5504,-3.5504,-3.5504,-3.5504,-3.5504,-3.5504,-3.5504,-3.5504,-3.5504,-3.5504,-3.5504,-3.5504,-3.5504,-3.5504,-3.5504,-3.5504,-3.5504,-3.5504,-3.5504,-3.5504,-3.5504,-3.5504,-3.5504,-3.5504,-3.5504,-3.5504,-3.5504,-3.5504,-3.5504,-3.5504,-3.5325,-3.5115,0.0,0.0,0.0,0.0,0.0,0.0,0.0,0.0,0.0,0.0,0.0,0.0,0.0,0.0,0.0,0.0,0.0,0.0,0.0,-1.6685,-1.8028,-1.8759,-2.0759,-2.1995,-2.2297,-2.3113,-2.3891,-2.4594,-2.5121,-2.5875,-2.6829,-2.7143,-2.7708,-2.8486,-2.8599,-2.8938,-2.9327,-2.9327,-2.9327,-2.9327,-2.9327,-2.89,-2.8172,-2.7469,-2.5925,-2.4098,-2.4098,-2.292,0.0,0.0,-2.0577,-2.0639,-2.0928,-2.1029,-2.0844,-1.9788,-2.0775,-2.2508,-2.3932,0.0,0.0,-2.6856,-2.9894,-3.2632,-3.2018,-3.3784,-3.5639,-3.5968,-3.6402,-3.6746,-3.6746,-3.6447,-3.6118,-3.5818,-3.6028,-3.6043,-3.5564,-3.534,-3.504,-3.4563,-3.4756,-3.4951,-3.4951,-3.5295,-3.5504,-3.5504,-3.5504,-3.5504,-3.5504,-3.5504,-3.5504,-3.5504,-3.5504,-3.5504,-3.5504,-3.5504,-3.5504,-3.5504,-3.5504,-3.5504,-3.5504,-3.5504,-3.5504,-3.5504,-3.5504,-3.5504,-3.5504,-3.5504,-3.5504,-3.5504,-3.5504,-3.5504,-3.5504,-3.5504,-3.5504,-3.5474,0.0,0.0,0.0,0.0,0.0,0.0,0.0,0.0,0.0,0.0,0.0,0.0,0.0,0.0,0.0,0.0,0.0,0.0,0.0,-1.5303,-1.7015,-1.8272,-1.989,-2.1245,-2.2284,-2.2347,-2.2912,-2.4017,-2.4569,-2.5121,-2.5674,-2.6766,-2.7341,-2.7356,-2.7896,-2.8134,-2.816,-2.816,-2.816,-2.816,-2.816,-2.7507,-2.6449,-2.5335,-2.3835,-2.2385,-2.2385,0.0,0.0,0.0,-1.8304,-1.848,-1.9522,-1.9849,0.0,-2.0572,-2.0832,0.0,0.0,0.0,-2.6393,-2.9564,-3.1928,-3.3799,-3.507,-3.6866,-3.8093,-3.7479,-3.736,-3.7375,-3.7375,-3.6372,-3.5744,-3.6357,-3.5938,-3.5534,-3.5504,-3.4936,-3.4533,-3.4503,-3.3933,-3.3559,0.0,-3.4741,-3.5504,-3.5504,-3.5504,-3.5504,-3.5504,-3.5504,-3.5504,-3.5504,-3.5504,-3.5504,-3.5504,-3.5504,-3.5504,-3.5504,-3.5504,-3.5504,-3.5504,-3.5504,-3.5504,-3.5504,-3.5504,-3.5504,-3.5504,-3.5504,-3.5504,-3.5504,-3.5504,-3.5504,-3.5504,-3.5504,-3.5504,-3.5415,0.0,0.0,0.0,0.0,0.0,0.0,0.0,0.0,0.0,0.0,0.0,0.0,0.0,0.0,0.0,0.0,0.0,0.0,0.0,-1.3937,-1.504,-1.6441,-1.8177,-1.9426,-2.0099,-2.1568,-2.2498,-2.2874,-2.3396,-2.376,-2.3948,-2.4324,-2.4745,-2.5121,-2.5674,-2.6113,-2.6465,-2.6889,-2.7052,-2.6989,-2.6214,-2.5485,-2.4669,-2.3175,-2.1581,-1.9996,0.0,0.0,0.0,-1.7378,-1.7338,-1.7652,-1.7626,-1.789,-1.8654,-2.0969,-2.1925,-2.2906,0.0,0.0,-3.0567,-3.2108,-3.4637,-3.6866,-3.7315,-3.7928,-3.8176,-3.73,-3.5878,-3.4578,-3.3974,-3.2928,-3.2485,-3.3677,-3.4038,-3.4487,-3.537,-3.531,-3.4831,-3.3933,-3.4039,0.0,0.0,0.0,0.0,-3.4786,-3.4848,-3.5026,-3.5489,-3.5504,-3.5504,-3.5504,-3.5504,-3.5504,-3.5504,-3.5504,-3.5504,-3.5504,-3.5504,-3.5504,-3.5504,-3.5504,-3.5504,-3.5504,-3.5504,-3.5504,-3.5504,-3.5504,-3.5504,-3.5504,-3.5504,-3.5504,-3.5504,-3.5504,-3.522,-3.4786,0.0,0.0,0.0,0.0,0.0,0.0,0.0,0.0,0.0,0.0,0.0,0.0,0.0,0.0,0.0,0.0,0.0,0.0,0.0,0.0,-1.3747,-1.473,-1.6396,-1.7635,-1.8346,-1.9748,-2.0568,-2.0763,-2.1299,-2.1655,-2.1885,-2.1885,-2.223,-2.2824,-2.3175,-2.3527,-2.3866,-2.4252,-2.4409,-2.4343,-2.338,-2.2555,-2.1753,-2.0456,-1.904,0.0,0.0,0.0,0.0,-1.6429,-1.6429,-1.672,-1.6535,-1.7353,-1.8857,-2.1307,-2.2884,-2.472,0.0,-3.1046,-3.2946,-3.4786,-3.6836,-3.8307,-3.7973,-3.7902,-3.7349,-3.5317,-3.3507,-3.2019,-3.1034,-2.9883,-2.9696,-3.1483,-3.2153,-3.2976,-3.4562,-3.4786,-3.4547,-3.3918,-3.4039,0.0,0.0,0.0,0.0,-3.4786,-3.4846,-3.504,-3.5489,-3.5504,-3.5504,-3.5504,-3.5504,-3.5504,-3.5504,-3.5504,-3.5504,-3.5504,-3.5504,-3.5504,-3.5504,-3.5504,-3.5504,-3.5504,-3.5504,-3.5504,-3.5504,-3.5504,-3.5504,-3.5504,-3.5504,-3.5504,-3.5504,-3.5504,-3.507,-3.4474,0.0,0.0,0.0,0.0,0.0,0.0,0.0,0.0,0.0,0.0,0.0,0.0,0.0,0.0,0.0,0.0,0.0,0.0,0.0,0.0,0.0,-1.3213,-1.4602,-1.5896,-1.7011,-1.7105,-1.7368,-1.7935,-1.8432,-1.8965,-1.9542,-1.9542,-1.9882,-2.0539,-2.0511,-2.0537,-2.0523,-2.0479,-2.0461,-2.048,-1.9785,-1.8885,-1.7932,-1.7323,0.0,0.0,0.0,0.0,0.0,0.0,0.0,0.0,0.0,0.0,-2.0539,-2.1845,-2.396,-2.6727,-3.0614,-3.2213,-3.3709,-3.7449,-3.8392,-3.815,-3.7194,-3.6859,-3.5662,-3.1764,-3.0415,-2.962,0.0,0.0,-2.7454,-2.9963,-3.0464,-3.127,-3.3305,-3.3604,-3.3814,0.0,0.0,0.0,0.0,0.0,0.0,-3.5415,0.0,-3.5474,-3.5504,-3.5504,-3.5504,-3.5504,-3.5504,-3.5504,-3.5504,-3.5504,-3.5504,-3.5504,-3.5504,-3.5504,-3.5504,-3.5504,-3.5504,-3.5504,-3.5504,-3.5504,-3.5504,-3.5504,-3.5504,-3.5504,-3.5504,-3.5504,-3.5504,-3.5504,-3.504,-3.4369,0.0,0.0,0.0,0.0,0.0,0.0,0.0,0.0,0.0,0.0,0.0,0.0,0.0,0.0,0.0,0.0,0.0,0.0,0.0,0.0,0.0,0.0,0.0,0.0,0.0,0.0,0.0,0.0,0.0,-1.7097,-1.7252,-1.7252,-1.7584,-1.8151,-1.8116,-1.8195,-1.8313,-1.823,-1.824,-1.8142,0.0,-1.6773,-1.6729,0.0,0.0,0.0,0.0,0.0,0.0,0.0,0.0,0.0,0.0,0.0,-2.3305,-2.5629,-2.8048,-3.0539,-3.3051,-3.528,-3.7135,-3.8138,-3.8392,-3.8031,-3.6713,-3.4975,-3.2715,-2.9449,-2.6965,-2.4978,0.0,0.0,0.0,-2.8057,-3.0047,0.0,-3.4637,-3.4996,0.0,0.0,0.0,-3.4264,-3.4264,-3.4264,0.0,0.0,-3.5026,-3.4966,-3.5474,-3.5504,-3.5504,-3.5504,-3.5504,-3.5504,-3.5504,-3.5504,-3.5504,-3.5504,-3.5504,-3.5504,-3.5504,-3.5504,-3.5504,-3.5504,-3.5504,-3.5504,-3.5504,-3.5504,-3.5504,-3.5504,-3.5504,-3.5504,-3.5504,-3.5504,-3.4756,-3.3724,0.0,0.0,0.0,0.0,0.0,0.0,0.0,0.0,0.0,0.0,0.0,0.0,0.0,0.0,0.0,0.0,0.0,0.0,0.0,0.0,0.0,0.0,0.0,0.0,0.0,0.0,0.0,0.0,0.0,0.0,0.0,-1.4927,-1.5237,-1.58,-1.5542,-1.551,-1.5599,-1.5345,0.0,0.0,0.0,0.0,0.0,0.0,0.0,0.0,0.0,0.0,0.0,0.0,0.0,-2.0535,-2.2522,-2.4254,-2.5923,-2.7816,0.0,-3.2721,-3.4307,-3.6535,-3.8467,-3.8766,-3.8317,-3.7145,-3.4606,-3.2449,-2.9771,-2.5629,-2.33,0.0,0.0,0.0,0.0,0.0,0.0,0.0,-3.3364,-3.4502,-3.5026,0.0,-3.4921,0.0,-3.5357,-3.5387,-3.5624,0.0,-3.5459,-3.51,-3.5489,-3.5504,-3.5504,-3.5504,-3.5504,-3.5504,-3.5504,-3.5504,-3.5504,-3.5504,-3.5504,-3.5504,-3.5504,-3.5504,-3.5504,-3.5504,0.0,-3.5504,-3.5504,-3.5504,-3.5504,-3.5504,-3.5504,-3.5504,-3.5504,-3.5504,-3.4831,-3.3918,0.0,0.0,0.0,0.0,0.0,0.0,0.0,0.0,0.0,0.0,0.0,0.0,0.0,0.0,0.0,0.0,0.0,0.0,0.0,0.0,0.0,0.0,0.0,0.0,0.0,0.0,0.0,0.0,0.0,0.0,0.0,0.0,0.0,0.0,0.0,0.0,0.0,0.0,0.0,0.0,0.0,0.0,0.0,0.0,0.0,0.0,0.0,0.0,0.0,0.0,-2.0691,-2.1999,-2.5003,-2.6922,-2.8238,-2.9252,-3.1531,-3.3915,-3.4975,-3.6864,-3.8611,-3.9011,-3.7908,-3.5741,-3.1761,-2.9553,-2.6837,-2.1553,0.0,0.0,-1.8842,0.0,-2.0166,-2.3296,0.0,-2.8495,-3.1361,-3.326,-3.4668,-3.5415,-3.5504,-3.5729,-3.6297,-3.6357,-3.6611,-3.724,-3.6178,-3.5549,-3.5624,-3.5549,-3.5504,-3.5504,-3.5504,-3.5504,-3.5504,-3.5504,-3.5504,-3.5504,-3.5504,-3.5504,-3.5504,-3.5504,-3.5504,-3.5504,-3.5504,0.0,-3.5504,-3.5504,-3.5504,-3.5504,-3.5504,-3.5504,-3.5504,-3.5504,-3.507,-3.4503,0.0,0.0,0.0,0.0,0.0,0.0,0.0,0.0,0.0,0.0,0.0,0.0,0.0,0.0,0.0,0.0,0.0,0.0,0.0,0.0,0.0,0.0,0.0,0.0,0.0,0.0,0.0,0.0,0.0,0.0,0.0,0.0,0.0,0.0,0.0,0.0,0.0,0.0,0.0,0.0,0.0,0.0,0.0,0.0,0.0,0.0,0.0,0.0,0.0,0.0,-2.1926,-2.2871,-2.5792,-2.7928,-2.9707,-3.1418,-3.3265,-3.4998,-3.618,-3.782,-3.8945,-3.7711,-3.6454,-3.428,-2.964,-2.6881,0.0,0.0,0.0,-1.7634,-1.7064,-1.8219,0.0,-2.3456,0.0,0.0,0.0,0.0,-3.4128,0.0,0.0,0.0,0.0,0.0,0.0,0.0,0.0,-3.5744,-3.6297,-3.5804,-3.5504,-3.5504,-3.5504,-3.5504,-3.5504,-3.5504,-3.5504,-3.5504,-3.5504,-3.5504,-3.5504,-3.5504,-3.5504,-3.5504,-3.5504,0.0,-3.5504,-3.5504,-3.5504,-3.5504,-3.5504,-3.5504,-3.5504,-3.5504,-3.507,-3.4503,0.0,0.0,0.0,0.0,0.0,0.0,0.0,0.0,0.0,0.0,0.0,0.0,0.0,0.0,0.0,0.0,0.0,0.0,0.0,0.0,0.0,0.0,0.0,0.0,0.0,0.0,0.0,0.0,0.0,0.0,0.0,0.0,0.0,0.0,0.0,0.0,0.0,0.0,0.0,0.0,0.0,0.0,0.0,0.0,0.0,0.0,0.0,0.0,0.0,0.0,-2.027,-2.1895,-2.6552,-2.9297,-3.0869,-3.1297,-3.2963,-3.4688,-3.4806,-3.6264,-3.7491,-3.6424,-3.464,-3.2061,-2.7732,0.0,0.0,0.0,0.0,-1.6848,-1.655,0.0,0.0,0.0,0.0,0.0,0.0,0.0,0.0,0.0,0.0,0.0,0.0,0.0,0.0,0.0,0.0,-3.6492,-3.6492,-3.5863,-3.5504,-3.5504,-3.5504,-3.5504,-3.5504,-3.5504,-3.5504,-3.5504,-3.5504,-3.5504,-3.5504,-3.5504,-3.5504,-3.5504,-3.5504,0.0,-3.5504,-3.5504,-3.5504,-3.5504,-3.5504,-3.5504,-3.5504,-3.5504,-3.5295,-3.4966,0.0,0.0,0.0,0.0,0.0,0.0,0.0,0.0,-0.7934,-0.8766,-0.8781,-0.8639,-0.8429,-0.8079,0.0,0.0,0.0,0.0,0.0,0.0,0.0,0.0,0.0,0.0,0.0,0.0,0.0,0.0,0.0,0.0,0.0,0.0,0.0,0.0,0.0,0.0,0.0,0.0,0.0,0.0,0.0,0.0,0.0,0.0,0.0,0.0,0.0,0.0,0.0,0.0,-1.8137,-2.0289,-2.547,-2.8666,-3.0336,-2.9755,-3.1566,-3.3636,-3.3129,-3.4574,-3.5993,-3.5109,-3.2904,-2.9923,-2.5972,-2.3047,0.0,0.0,-1.65,-1.65,-1.65,0.0,0.0,0.0,0.0,0.0,0.0,0.0,0.0,0.0,0.0,0.0,0.0,0.0,0.0,0.0,0.0,0.0,-3.6312,-3.5789,-3.5504,-3.5504,-3.5504,-3.5504,-3.5504,-3.5504,-3.5504,-3.5504,-3.5504,-3.5504,-3.5504,-3.5504,-3.5504,-3.5504,-3.5504,0.0,0.0,-3.5504,-3.5504,-3.5504,-3.5504,-3.5504,-3.5504,-3.5504,-3.5504,-3.5429,0.0,0.0,0.0,0.0,0.0,0.0,0.0,0.0,-0.7469,-0.8335,-0.8083,-0.7971,-0.8368,-0.8353,0.0,0.0,0.0,0.0,0.0,0.0,0.0,0.0,0.0,0.0,0.0,0.0,0.0,0.0,0.0,0.0,0.0,0.0,0.0,0.0,0.0,0.0,0.0,0.0,0.0,0.0,0.0,0.0,0.0,0.0,0.0,0.0,0.0,0.0,0.0,0.0,0.0,-1.8607,-2.0155,-2.3179,-2.6257,-2.6734,0.0,0.0,-3.2722,-3.4574,-3.5739,-3.3711,-3.1522,-2.8733,-2.4395,0.0,0.0,0.0,-1.65,-1.65,-1.65,-1.6602,0.0,0.0,0.0,0.0,0.0,0.0,0.0,0.0,0.0,0.0,0.0,0.0,0.0,0.0,0.0,0.0,-3.5624,-3.5534,-3.5504,-3.5504,-3.5504,-3.5504,-3.5504,-3.5504,-3.5504,-3.5504,-3.5504,-3.5504,-3.5504,-3.5504,-3.5504,-3.5504,-3.5504,0.0,0.0,-3.5504,-3.5504,-3.5504,-3.5504,-3.5504,-3.5504,-3.5504,-3.5504,-3.5489,0.0,0.0,0.0,0.0,0.0,0.0,0.0,-0.6982,-0.7727,-0.833,-0.8448,-0.8461,-0.8401,-0.8177,0.0,0.0,0.0,0.0,0.0,0.0,0.0,0.0,0.0,0.0,0.0,0.0,0.0,0.0,0.0,0.0,0.0,0.0,0.0,0.0,0.0,0.0,0.0,0.0,0.0,0.0,0.0,0.0,0.0,0.0,0.0,0.0,0.0,0.0,0.0,0.0,0.0,0.0,-1.632,-1.835,0.0,0.0,-2.6858,-2.9121,-3.0227,-3.2135,-3.344,-3.1923,-2.9635,-2.6968,-2.3845,0.0,0.0,-1.6814,-1.65,-1.65,-1.65,-1.65,-1.6927,0.0,0.0,0.0,0.0,0.0,0.0,0.0,0.0,0.0,0.0,0.0,0.0,0.0,0.0,0.0,-3.5519,-3.5504,-3.5504,-3.5504,-3.5504,-3.5504,-3.5504,-3.5504,-3.5504,-3.5504,-3.5504,-3.5504,-3.5504,-3.5504,-3.5504,-3.5504,-3.5504,0.0,0.0,-3.5504,-3.5504,-3.5504,-3.5504,-3.5504,-3.5504,-3.5504,-3.5504,-3.5504,0.0,0.0,0.0,0.0,0.0,0.0,-0.6218,-0.7047,-0.7743,-0.8144,-0.8435,-0.8516,-0.8255,-0.7739,-0.7006,-0.5982,0.0,0.0,0.0,0.0,0.0,0.0,0.0,0.0,0.0,0.0,0.0,0.0,0.0,0.0,0.0,0.0,0.0,0.0,0.0,0.0,0.0,0.0,0.0,0.0,0.0,0.0,0.0,0.0,0.0,0.0,0.0,0.0,0.0,0.0,0.0,0.0,0.0,0.0,0.0,0.0,-2.4079,-2.6327,-2.7595,-2.9553,-3.1022,-3.0105,-2.7783,-2.5217,0.0,0.0,-1.7689,-1.6701,-1.65,-1.65,-1.65,-1.65,-1.6731,-1.7435,0.0,0.0,0.0,0.0,0.0,0.0,0.0,0.0,0.0,0.0,0.0,0.0,0.0,0.0,-3.5067,-3.5067,-3.518,-3.5504,-3.5504,-3.5504,-3.5504,-3.5504,-3.5504,-3.5504,-3.5213,-3.5067,-3.5052,-3.4773,-3.4624,-3.4673,-3.4953,0.0,0.0,-3.5246,-3.5311,-3.51,-3.5392,-3.5504,-3.5504,-3.5504,-3.5504,-3.5504,0.0,0.0,0.0,0.0,0.0,0.0,0.0,0.0,-0.7257,-0.7648,-0.7715,-0.7736,-0.7796,-0.704,-0.6359,-0.5929,0.0,0.0,0.0,0.0,0.0,0.0,0.0,0.0,0.0,0.0,0.0,-1.0411,0.0,0.0,0.0,0.0,0.0,0.0,0.0,0.0,0.0,0.0,0.0,0.0,0.0,0.0,0.0,0.0,0.0,0.0,0.0,0.0,0.0,0.0,0.0,0.0,0.0,0.0,0.0,0.0,-2.0575,-2.3509,-2.5184,-2.7268,-2.8787,-2.8273,-2.6063,-2.3577,0.0,0.0,-1.7247,-1.6635,-1.65,-1.65,-1.65,-1.65,-1.6858,-1.7927,-1.8106,0.0,0.0,0.0,0.0,0.0,0.0,0.0,0.0,0.0,0.0,0.0,0.0,0.0,-3.4061,-3.4027,-3.4461,-3.5472,-3.5504,-3.5504,-3.5504,-3.5504,-3.5504,-3.5504,-3.4495,-3.4027,-3.3993,-3.3066,-3.2629,0.0,0.0,0.0,0.0,-3.4706,-3.4905,-3.4095,-3.51,-3.5504,-3.5504,-3.5504,-3.5504,-3.5504,0.0,0.0,0.0,0.0,0.0,0.0,0.0,0.0,-0.6529,-0.7199,-0.729,-0.7292,-0.7324,-0.6829,-0.6254,-0.5605,0.0,0.0,0.0,0.0,0.0,0.0,0.0,0.0,0.0,0.0,-0.9284,-0.9858,-1.0146,-1.0567,0.0,0.0,0.0,0.0,0.0,0.0,0.0,0.0,0.0,0.0,0.0,0.0,0.0,0.0,0.0,0.0,0.0,0.0,0.0,0.0,0.0,0.0,0.0,0.0,0.0,0.0,0.0,0.0,-2.2334,-2.4142,-2.5423,-2.4825,-2.3201,-2.1509,-2.0539,0.0,-1.6735,-1.6538,-1.65,-1.65,-1.65,-1.65,-1.6731,-1.7442,-1.8249,0.0,0.0,0.0,0.0,0.0,0.0,0.0,0.0,0.0,0.0,0.0,0.0,0.0,-3.3136,-3.3671,-3.4143,-3.4461,-3.3856,-3.3837,-3.4461,-3.3822,-3.3498,-3.3498,-3.3206,-3.3031,-3.3031,-3.2749,-3.2593,0.0,0.0,0.0,0.0,-3.3255,-3.3325,-3.3066,-3.3394,-3.3498,-3.3498,-3.3498,-3.3498,-3.349,0.0,0.0,0.0,0.0,0.0,0.0,0.0,0.0,-0.6137,-0.679,-0.7014,-0.7163,-0.7305,-0.6835,-0.6322,-0.5847,0.0,0.0,0.0,0.0,0.0,0.0,0.0,0.0,0.0,-0.866,-0.9018,-0.96,-0.984,-1.0245,-1.0756,-1.0506,-1.0394,0.0,0.0,0.0,0.0,0.0,0.0,0.0,0.0,0.0,-0.8721,0.0,0.0,0.0,0.0,0.0,0.0,0.0,0.0,0.0,0.0,0.0,0.0,0.0,-1.5367,0.0,0.0,-2.1154,-2.2334,-2.1942,-2.0953,0.0,0.0,0.0,-1.65,-1.65,-1.65,-1.65,-1.65,-1.668,-1.6909,-1.725,-1.8255,0.0,0.0,0.0,0.0,0.0,0.0,0.0,0.0,0.0,0.0,0.0,0.0,0.0,-3.2141,-3.2629,-3.2961,-3.2961,-3.2713,-3.289,-3.3449,-3.289,-3.2593,-3.2593,-3.2249,-3.2069,-3.2069,-3.1719,-3.1549,0.0,0.0,0.0,0.0,-3.2321,-3.2393,-3.2105,-3.2464,-3.2593,-3.2579,-3.238,-3.2435,-3.251,0.0,0.0,0.0,0.0,0.0,0.0,0.0,0.0,0.0,0.0,0.0,-0.7227,-0.7574,-0.6946,0.0,0.0,0.0,0.0,0.0,0.0,0.0,0.0,0.0,0.0,0.0,-0.8091,-0.871,-0.9544,-0.9491,-0.9883,-1.0681,-1.0231,-1.0018,-1.0044,0.0,0.0,0.0,0.0,0.0,0.0,0.0,0.0,0.0,0.0,0.0,0.0,0.0,0.0,0.0,0.0,0.0,0.0,0.0,0.0,0.0,0.0,0.0,0.0,0.0,0.0,0.0,0.0,0.0,0.0,0.0,0.0,0.0,0.0,0.0,-1.65,-1.65,-1.693,-1.7291,-1.725,0.0,0.0,0.0,0.0,0.0,0.0,0.0,0.0,0.0,0.0,0.0,0.0,0.0,0.0,-3.1143,-3.118,-3.118,-3.1106,-3.196,-3.2429,-3.25,-3.2429,-3.2393,-3.2393,-3.1536,-3.1106,-3.1068,-3.0216,-2.9792,0.0,0.0,0.0,0.0,-3.1696,-3.1888,-3.118,-3.2069,-3.2365,-3.2256,-3.1818,-3.1928,-3.2209,0.0,0.0,0.0,0.0,0.0,0.0,0.0,0.0,0.0,0.0,0.0,-0.7015,-0.6808,-0.6617,0.0,0.0,0.0,0.0,0.0,0.0,0.0,0.0,0.0,0.0,0.0,-0.8091,-0.8531,-0.8985,-0.9667,-1.0248,-1.0706,-1.1035,-1.1201,-1.1188,-1.0845,0.0,0.0,0.0,0.0,0.0,0.0,0.0,0.0,0.0,0.0,0.0,-0.917,-0.9505,0.0,0.0,0.0,0.0,0.0,0.0,0.0,0.0,-1.2977,-1.3634,-1.4614,0.0,-1.5639,-1.6461,0.0,0.0,0.0,0.0,0.0,0.0,0.0,0.0,0.0,0.0,0.0,0.0,0.0,0.0,0.0,0.0,0.0,0.0,0.0,0.0,0.0,0.0,0.0,0.0,0.0,-3.1865,-3.0216,-3.0796,-3.0871,-3.0139,-3.0355,-3.0809,-3.1536,-3.0809,-3.047,-3.047,-3.0241,-3.0139,-3.0101,-2.9895,-2.9792,0.0,0.0,0.0,-2.983,-3.0292,-3.0317,-3.0139,-3.0355,-3.0187,-2.9826,-3.0148,-2.9788,-2.9119,0.0,0.0,0.0,0.0,0.0,0.0,0.0,0.0,0.0,0.0,0.0,0.0,0.0,0.0,0.0,0.0,0.0,0.0,0.0,0.0,0.0,0.0,0.0,0.0,-0.7695,-0.8251,-0.8744,-0.9167,-1.0014,-1.0661,-1.1109,-1.1452,-1.1603,-1.1575,-1.0837,0.0,0.0,0.0,0.0,0.0,-0.8838,0.0,0.0,0.0,0.0,0.0,-0.9263,-0.9489,0.0,-1.0451,-1.0545,-1.0432,0.0,0.0,0.0,0.0,-1.2249,-1.2887,-1.3017,-1.3738,-1.4671,-1.5494,-1.5682,-1.5763,0.0,0.0,0.0,0.0,0.0,0.0,0.0,0.0,0.0,0.0,0.0,0.0,0.0,0.0,0.0,0.0,0.0,0.0,0.0,0.0,0.0,0.0,0.0,-3.0884,-2.9856,-3.0279,-3.0317,-2.983,-2.9792,-3.0037,-3.0558,-3.0037,-2.9792,-2.9792,-2.9792,-2.9792,-2.9792,-2.9792,-2.9792,0.0,0.0,0.0,-2.9402,-2.9402,-2.9252,-2.9038,-2.9302,-2.9051,-2.8549,-2.89,-2.8624,-2.8072,0.0,0.0,0.0,0.0,0.0,0.0,0.0,0.0,0.0,0.0,0.0,0.0,0.0,0.0,0.0,0.0,0.0,0.0,0.0,0.0,0.0,0.0,0.0,-0.7387,-0.7793,-0.8546,-0.9189,-0.9713,-1.0549,-1.1222,-1.1713,-1.1727,-1.1638,-1.1459,-1.0665,-1.0264,0.0,0.0,0.0,0.0,-0.9182,0.0,0.0,0.0,0.0,0.0,0.0,0.0,0.0,-1.0418,-1.0331,-1.0094,-1.0469,0.0,0.0,0.0,0.0,0.0,-1.2102,-1.33,-1.4769,-1.5321,-1.5803,-1.617,0.0,0.0,0.0,0.0,0.0,0.0,0.0,0.0,0.0,0.0,0.0,0.0,0.0,0.0,0.0,0.0,0.0,0.0,0.0,0.0,0.0,0.0,0.0,-2.9792,-2.9792,-2.9792,-2.9792,-2.9792,-2.9792,-2.9754,-2.9666,-2.9666,-2.9666,-2.9666,-2.9666,-2.9616,-2.9541,-2.9628,-2.9616,-2.9528,0.0,0.0,-2.8762,-2.8762,-2.8524,-2.816,-2.8587,-2.8461,-2.7996,-2.8072,-2.7996,-2.7783,0.0,0.0,0.0,0.0,0.0,0.0,0.0,0.0,0.0,0.0,0.0,0.0,0.0,0.0,0.0,0.0,0.0,0.0,0.0,0.0,0.0,0.0,-0.7613,-0.7816,-0.8287,-0.9073,-0.9709,-1.0199,-1.1495,-1.2187,-1.2287,-1.2341,-1.1872,-1.0985,-1.058,-1.0326,-1.0146,-0.9335,-0.9463,-1.0107,-0.9326,0.0,0.0,0.0,0.0,0.0,0.0,0.0,0.0,-0.9993,-1.0269,-1.0506,-1.0131,0.0,0.0,0.0,0.0,0.0,-1.2901,-1.3209,-1.361,-1.4205,-1.4408,-1.4701,0.0,0.0,0.0,0.0,0.0,0.0,0.0,0.0,0.0,0.0,0.0,0.0,0.0,0.0,0.0,0.0,0.0,0.0,0.0,0.0,0.0,0.0,0.0,-2.9792,-2.9792,-2.9792,-2.9792,-2.9792,-2.9792,-2.9553,-2.9026,-2.9026,-2.9026,-2.9026,-2.9026,-2.8812,-2.8386,-2.885,-2.88,-2.836,0.0,-2.831,-2.8235,-2.8235,-2.8185,-2.8109,-2.8197,-2.7896,-2.7469,-2.7934,-2.7519,-2.6738,0.0,0.0,0.0,0.0,0.0,0.0,0.0,0.0,0.0,0.0,0.0,0.0,0.0,0.0,0.0,0.0,0.0,0.0,0.0,0.0,0.0,0.0,-0.7695,-0.7807,-0.8027,-0.9274,-1.0075,-1.0403,-1.1761,-1.2551,-1.2822,-1.2612,-1.1825,-1.0625,-1.0478,-1.0088,-0.9529,-0.9151,-0.9228,-0.9579,0.0,0.0,0.0,0.0,0.0,0.0,0.0,0.0,0.0,0.0,-1.0256,-1.062,-1.0069,0.0,0.0,0.0,0.0,0.0,-1.171,-1.1797,-1.2233,-1.3437,-1.4334,-1.5134,-1.5964,0.0,0.0,0.0,0.0,0.0,0.0,0.0,0.0,0.0,0.0,0.0,0.0,0.0,0.0,0.0,0.0,0.0,0.0,0.0,0.0,0.0,0.0,0.0,-2.9792,-2.9792,-2.9641,-2.934,-2.9327,-2.9051,-2.8449,-2.8185,-2.8185,-2.8486,-2.8486,-2.8348,-2.8109,-2.8373,-2.8348,-2.8109,0.0,-2.7934,-2.7657,-2.7657,-2.7494,-2.7243,-2.7544,-2.7318,-2.6901,-2.7118,-2.6927,-2.6499,0.0,0.0,0.0,0.0,0.0,0.0,0.0,0.0,0.0,0.0,0.0,0.0,0.0,0.0,0.0,0.0,0.0,0.0,0.0,0.0,-0.7275,-0.7681,-0.7797,-0.7896,-0.8012,-0.9369,-1.0271,-1.062,-1.1828,-1.2571,-1.2873,-1.2372,-1.1507,-1.0368,-1.015,-0.9724,-0.9114,-0.8811,-0.8818,-0.9011,0.0,0.0,0.0,0.0,0.0,0.0,0.0,0.0,0.0,0.0,0.0,0.0,0.0,0.0,0.0,-1.0679,-1.0924,-1.1445,-1.0645,-1.0765,-1.146,-1.2964,0.0,-1.5562,-1.6796,0.0,0.0,0.0,0.0,0.0,0.0,0.0,0.0,0.0,0.0,0.0,0.0,0.0,0.0,0.0,0.0,0.0,0.0,0.0,0.0,0.0,0.0,0.0,-2.9402,-2.9402,-2.9202,-2.8712,-2.87,-2.8473,-2.7921,-2.7494,-2.7494,-2.7908,-2.7908,-2.7846,-2.772,-2.7858,-2.7846,-2.772,-2.772,-2.7482,-2.7128,-2.7128,-2.6876,-2.6537,-2.6964,-2.6788,-2.6273,-2.616,-2.6109,-2.6109,0.0,0.0,0.0,0.0,0.0,0.0,0.0,0.0,0.0,0.0,0.0,0.0,0.0,0.0,0.0,0.0,0.0,0.0,0.0,0.0,-0.7275,-0.7681,-0.8062,-0.8465,-0.8896,-0.945,-1.0152,-1.0951,-1.1985,-1.2283,-1.1884,-1.1356,-1.0819,-1.0282,-0.9458,-0.9265,-0.9476,-0.8289,-0.8266,-0.8975,-0.8623,0.0,0.0,0.0,0.0,0.0,0.0,0.0,0.0,0.0,0.0,0.0,0.0,0.0,-1.1628,-1.103,-1.0945,-1.1037,-1.0894,-1.1247,-1.1908,-1.2964,0.0,0.0,-1.8127,-1.882,0.0,0.0,0.0,0.0,0.0,0.0,0.0,0.0,0.0,0.0,0.0,0.0,0.0,0.0,0.0,0.0,0.0,0.0,0.0,0.0,0.0,0.0,-2.8222,-2.8222,-2.821,-2.816,-2.816,-2.7896,-2.7344,-2.7341,-2.7341,-2.7379,-2.7379,-2.7115,-2.6637,-2.714,-2.7102,-2.6612,-2.6612,-2.6587,-2.6549,-2.6549,-2.6524,-2.6499,-2.6537,-2.6197,-2.5598,-2.5121,-2.4913,-2.4913,0.0,0.0,0.0,0.0,0.0,0.0,0.0,0.0,0.0,0.0,0.0,0.0,0.0,0.0,0.0,0.0,0.0,0.0,0.0,0.0,-0.753,-0.7695,-0.7856,-0.8149,-0.862,-0.9589,-1.0112,-1.0193,-1.1454,-1.1768,-1.1233,-1.1417,-1.0916,-0.9853,-0.9559,-0.9221,-0.8809,-0.8032,-0.8061,-0.8607,-0.841,-0.8571,0.0,0.0,0.0,0.0,0.0,0.0,0.0,0.0,-1.0277,-1.0693,0.0,-1.0939,-1.1598,-1.0729,-1.0724,-1.0993,-1.0978,-1.1383,-1.2064,-1.3033,0.0,0.0,0.0,0.0,0.0,0.0,0.0,0.0,0.0,0.0,0.0,0.0,0.0,0.0,0.0,0.0,0.0,0.0,0.0,0.0,0.0,0.0,0.0,0.0,0.0,0.0,-2.8109,-2.8109,-2.7946,-2.7607,-2.7595,-2.7331,-2.6813,-2.6801,-2.6801,-2.6801,-2.6801,-2.67,-2.6499,-2.6713,-2.6688,-2.6474,-2.6109,-2.616,-2.6461,-2.6109,-2.6172,-2.6461,-2.6097,-2.5586,-2.5096,-2.4863,-2.4788,-2.4788,0.0,0.0,0.0,0.0,0.0,0.0,0.0,0.0,0.0,0.0,0.0,0.0,0.0,0.0,0.0,0.0,0.0,0.0,0.0,-0.7249,-0.7695,-0.7695,-0.7695,-0.7856,-0.8164,-0.9172,-0.9638,-0.9489,-1.0442,-1.0904,-1.0909,-1.1211,-1.0882,-1.0016,-1.01,-0.9812,-0.921,-0.8567,-0.8501,-0.8798,-0.857,-0.8743,0.0,0.0,0.0,0.0,0.0,0.0,0.0,0.0,-1.0452,0.0,0.0,0.0,-1.1166,-1.0467,-1.0607,-1.0969,-1.084,-1.1448,-1.2273,0.0,0.0,0.0,0.0,0.0,0.0,0.0,0.0,0.0,0.0,0.0,0.0,0.0,0.0,0.0,0.0,0.0,0.0,0.0,0.0,0.0,0.0,0.0,0.0,0.0,0.0,0.0,0.0,-2.7482,-2.7419,-2.7065,-2.7052,-2.6788,-2.6223,-2.6223,-2.6135,-2.5971,-2.5971,-2.616,-2.6487,-2.6298,-2.6223,-2.6197,-2.5774,-2.5724,-2.5946,-2.5523,-2.5586,-2.5921,-2.531,-2.487,-2.4512,-2.4324,-2.4261,-2.4261,0.0,0.0,0.0,0.0,0.0,0.0,0.0,0.0,0.0,0.0,0.0,0.0,0.0,0.0,0.0,0.0,0.0,0.0,0.0,-0.7249,-0.7695,-0.7695,-0.7695,-0.7695,-0.7695,-0.8154,-0.86,-0.9004,-0.9004,-0.9647,-1.0881,-1.0555,-1.0573,-1.0898,-1.1041,-1.1092,-1.1019,-1.0017,-0.9647,-0.9645,-0.912,-0.9182,-0.9599,0.0,0.0,0.0,0.0,0.0,0.0,0.0,-1.0806,-1.0821,0.0,0.0,0.0,-1.0365,-1.068,-1.0914,-1.0527,-1.144,0.0,0.0,0.0,0.0,0.0,0.0,0.0,0.0,0.0,0.0,0.0,0.0,0.0,0.0,0.0,0.0,0.0,0.0,0.0,0.0,0.0,0.0,0.0,0.0,0.0,0.0,0.0,0.0,0.0,-2.6172,-2.6487,-2.6487,-2.6487,-2.621,-2.5598,-2.5586,-2.5335,-2.4788,-2.4775,-2.5385,-2.6461,-2.585,-2.5586,-2.5586,-2.5586,-2.5297,-2.4788,-2.4788,-2.4788,-2.4725,-2.4217,-2.4004,-2.3916,-2.3308,-2.3108,-2.3108,0.0,0.0,0.0,0.0,0.0,0.0,0.0,0.0,0.0,0.0,0.0,0.0,0.0,0.0,0.0,0.0,0.0,0.0,0.0,-0.7249,-0.7695,-0.7695,-0.7695,-0.7695,-0.7695,-0.8154,-0.86,-0.9004,-0.9004,-0.9313,-0.9926,-1.0593,-1.0681,-1.036,-1.0867,-1.0712,-1.0011,-0.9413,-0.9349,-0.9589,-0.9144,-0.9393,-0.9991,0.0,0.0,0.0,0.0,0.0,0.0,0.0,0.0,0.0,0.0,0.0,0.0,-1.0316,-1.0661,-1.1062,-1.1304,-1.2215,0.0,0.0,0.0,0.0,0.0,0.0,0.0,0.0,0.0,0.0,0.0,0.0,0.0,0.0,0.0,0.0,0.0,0.0,0.0,0.0,0.0,0.0,0.0,0.0,0.0,0.0,0.0,0.0,0.0,-2.5762,-2.585,-2.585,-2.585,-2.5598,-2.5059,-2.5059,-2.4938,-2.4788,-2.4431,-2.4619,-2.531,-2.5134,-2.5059,-2.5034,-2.4644,-2.4607,-2.4788,-2.4788,-2.4594,-2.423,-2.4067,-2.3753,-2.3346,-2.317,-2.3108,-2.3108,0.0,0.0,0.0,0.0,0.0,0.0,0.0,0.0,0.0,0.0,0.0,0.0,0.0,0.0,0.0,0.0,0.0,0.0,0.0,0.0,-0.7851,-0.8207,-0.8061,-0.8051,-0.8217,-0.8496,-0.875,-0.9004,-0.9004,-0.919,-0.9571,-1.0414,-1.068,-1.0454,-1.1085,-1.1042,-1.0433,-0.996,-0.9909,-1.0121,-0.9662,-0.9788,-1.0205,0.0,0.0,0.0,0.0,0.0,0.0,0.0,0.0,0.0,0.0,0.0,0.0,-1.0333,-1.0808,-1.1449,-1.2,0.0,0.0,0.0,0.0,0.0,0.0,0.0,0.0,0.0,0.0,0.0,0.0,0.0,0.0,0.0,0.0,0.0,0.0,0.0,0.0,0.0,0.0,0.0,0.0,0.0,0.0,0.0,0.0,0.0,0.0,-2.5172,-2.5285,-2.5285,-2.5285,-2.5034,-2.4506,-2.4494,-2.4349,-2.4111,-2.3785,-2.3797,-2.4123,-2.4362,-2.4494,-2.4469,-2.3904,-2.3841,-2.4123,-2.4123,-2.3923,-2.3653,-2.3653,-2.3409,-2.3108,-2.3108,-2.3108,-2.307,0.0,0.0,0.0,0.0,0.0,0.0,0.0,0.0,0.0,0.0,0.0,0.0,0.0,0.0,0.0,0.0,0.0,0.0,0.0,0.0,-0.8139,-0.8975,-0.8659,-0.863,-0.8994,-0.8992,-0.8992,-0.9004,-0.9004,-0.9197,-0.9615,-1.0144,-1.0566,-1.0862,0.0,-1.17,-1.163,-1.1087,-1.0873,-1.0883,-1.0404,-1.0247,-1.0303,-1.0303,0.0,0.0,0.0,0.0,0.0,0.0,0.0,0.0,-1.0602,-1.0303,-1.0321,-1.0363,-1.1068,-1.192,0.0,0.0,0.0,0.0,0.0,0.0,0.0,0.0,0.0,0.0,0.0,0.0,0.0,0.0,0.0,0.0,0.0,0.0,0.0,0.0,0.0,0.0,0.0,0.0,0.0,0.0,0.0,0.0,0.0,0.0,0.0,-2.4443,-2.4713,-2.4713,-2.4713,-2.4424,-2.3853,-2.3891,-2.3602,-2.2957,-2.3007,-2.3007,-2.297,-2.3577,-2.3853,-2.3816,-2.3258,-2.3032,-2.302,-2.297,-2.2982,-2.302,-2.297,-2.3007,-2.3095,-2.3045,-2.3032,-2.2957,0.0,0.0,0.0,0.0,0.0,0.0,0.0,0.0,0.0,0.0,0.0,0.0,0.0,0.0,0.0,0.0,0.0,0.0,0.0,0.0,-0.8467,-0.8984,-0.8916,-0.8916,-0.9004,-0.8891,-0.89,-0.9004,-0.9004,-0.9197,0.0,0.0,0.0,-1.0365,0.0,-1.0973,-1.0611,-1.0472,-1.0435,-1.0438,-1.0329,-1.0291,-1.0303,-1.0303,-1.0428,0.0,0.0,0.0,0.0,0.0,0.0,0.0,-1.0486,-1.0303,-1.0302,-1.0319,-1.102,-1.1829,0.0,0.0,0.0,0.0,0.0,0.0,0.0,0.0,0.0,0.0,0.0,0.0,0.0,0.0,0.0,0.0,0.0,0.0,0.0,0.0,0.0,0.0,0.0,0.0,0.0,0.0,0.0,0.0,0.0,0.0,-2.3271,-2.3866,-2.418,-2.418,-2.418,-2.369,-2.2686,-2.307,-2.2824,0.0,-2.2284,-2.2259,-2.1857,-2.2422,-2.2673,-2.2673,-2.2518,-2.2456,-2.2447,-2.202,-2.2096,-2.2447,-2.202,-2.2372,-2.3058,-2.2619,-2.2456,-2.2472,0.0,0.0,0.0,0.0,0.0,0.0,0.0,0.0,0.0,0.0,0.0,0.0,0.0,0.0,0.0,0.0,0.0,0.0,0.0,0.0,0.0,-0.926,-0.9268,-0.9235,-0.9235,-0.893,-0.8911,-0.9235,-0.9432,0.0,0.0,0.0,0.0,-1.0542,0.0,-1.0525,-1.0303,-1.0303,-1.0303,-1.0303,-1.0303,-1.0303,-1.0303,-1.0303,-1.0448,-1.063,-1.0668,0.0,0.0,0.0,0.0,0.0,0.0,0.0,-1.0341,-1.0582,-1.1,-1.1541,0.0,0.0,0.0,0.0,0.0,0.0,0.0,0.0,0.0,0.0,0.0,0.0,0.0,0.0,0.0,0.0,0.0,0.0,0.0,0.0,0.0,0.0,0.0,0.0,0.0,0.0,0.0,0.0,0.0,-2.2046,-2.2334,-2.2636,-2.2799,-2.2799,-2.2799,-2.251,-2.192,-2.2196,-2.2058,-2.1493,-2.1782,-2.1631,-2.1144,-2.1945,-2.2171,-2.1933,-2.2196,-2.2159,-2.1895,-2.1606,-2.1656,-2.1895,-2.1606,-2.1845,-2.2309,-2.202,-2.192,-2.1882,0.0,0.0,0.0,0.0,0.0,0.0,0.0,0.0,0.0,0.0,0.0,0.0,0.0,0.0,0.0,0.0,0.0,0.0,0.0,0.0,0.0,0.0,-0.9482,-0.9459,-0.9359,-0.8918,-0.8958,-0.9498,0.0,0.0,0.0,0.0,0.0,-1.0868,0.0,-1.0303,-1.0303,-1.0361,-1.041,-1.042,-1.0488,-1.0518,-1.0518,-1.0518,-1.0764,-1.1047,-1.0656,-1.1193,-1.1878,-1.0879,0.0,0.0,0.0,0.0,-1.038,-1.0764,-1.0943,-1.1187,0.0,0.0,0.0,0.0,0.0,0.0,0.0,0.0,0.0,0.0,0.0,0.0,0.0,0.0,0.0,0.0,0.0,0.0,0.0,0.0,0.0,0.0,0.0,0.0,0.0,0.0,0.0,0.0,0.0,-2.1315,-2.1176,-2.1263,-2.1313,-2.1313,-2.1313,-2.1263,-2.1176,-2.1387,-2.1343,-2.1066,-2.0966,-2.0767,-2.044,-2.1418,-2.1681,-2.1408,-2.1832,-2.1769,-2.1343,-2.1242,-2.1282,-2.1343,-2.1242,-2.1317,-2.1481,-2.1408,-2.1343,-2.1307,0.0,0.0,0.0,0.0,0.0,0.0,0.0,0.0,0.0,0.0,0.0,0.0,0.0,0.0,0.0,0.0,0.0,0.0,-0.7843,0.0,0.0,-0.8842,-0.9253,-0.9279,-0.8817,-0.8736,-0.8958,-0.9498,0.0,0.0,0.0,0.0,0.0,-1.0868,0.0,0.0,-1.0322,-1.0674,-1.082,-1.0859,-1.1261,-1.1439,-1.1439,-1.1439,-1.1473,-1.1516,-1.1451,-1.211,-1.286,-1.1854,-1.1894,0.0,0.0,0.0,-1.0322,-1.038,-1.0687,0.0,0.0,0.0,0.0,0.0,0.0,0.0,0.0,0.0,0.0,0.0,0.0,0.0,0.0,0.0,0.0,0.0,0.0,0.0,0.0,0.0,0.0,0.0,0.0,0.0,0.0,0.0,0.0,0.0,-2.0467,-2.0521,-1.9892,-2.0298,-2.0538,-2.0538,-2.0538,-2.0322,-1.9865,-2.0952,-2.0765,-1.9321,-1.8869,-1.8857,-1.9246,-1.9861,-2.0376,-2.0805,-2.088,-2.0867,-2.0767,-2.0238,-2.0352,-2.0754,-2.0225,-2.0627,-2.143,-2.0981,-2.0805,-2.0792,0.0,0.0,0.0,0.0,0.0,0.0,0.0,0.0,0.0,0.0,0.0,0.0,0.0,0.0,0.0,-0.6182,-0.6124,-0.6639,-0.7988,-0.8958,-0.9518,-0.9597,-0.9239,-0.8938,-0.8695,-0.8398,-0.8618,0.0,0.0,0.0,0.0,-1.1716,-1.1628,0.0,0.0,0.0,0.0,-1.1222,-1.1301,-1.131,-1.1528,-1.1606,-1.1606,-1.1606,-1.1606,-1.1606,-1.1606,-1.189,-1.2204,-1.148,-1.1429,-1.1528,-1.083,0.0,0.0,0.0,0.0,0.0,0.0,0.0,0.0,0.0,0.0,0.0,0.0,0.0,0.0,0.0,0.0,0.0,0.0,0.0,0.0,0.0,0.0,0.0,0.0,0.0,0.0,0.0,0.0,0.0,0.0,0.0,0.0,0.0,-1.881,-1.8484,-1.8163,-1.8143,-1.8162,-1.8162,-1.8162,-1.8216,-1.8319,-1.887,-1.8956,-1.8544,-1.8317,-1.8329,-1.8556,-1.8807,-1.9371,-2.02,-2.0553,-2.0515,-2.0189,-1.9911,-1.9949,-2.0189,-1.9899,-2.0112,-2.0514,-2.0275,-2.0214,-2.0214,0.0,0.0,0.0,0.0,0.0,0.0,0.0,0.0,0.0,0.0,0.0,0.0,0.0,0.0,0.0,0.0,-0.6452,-0.6789,-0.7736,-0.8607,-0.9199,-0.945,-0.8837,-0.8439,-0.8267,-0.8258,0.0,0.0,0.0,0.0,-1.1952,-1.2241,-1.2369,0.0,-1.1829,0.0,0.0,0.0,0.0,-1.176,-1.1878,-1.1939,-1.1939,-1.1939,-1.1939,-1.1939,-1.1939,-1.2019,-1.2073,-1.1613,-1.1442,-1.1383,-1.0955,-1.0725,0.0,0.0,0.0,0.0,0.0,0.0,0.0,0.0,0.0,0.0,0.0,0.0,0.0,0.0,0.0,0.0,0.0,0.0,0.0,0.0,0.0,0.0,0.0,0.0,0.0,0.0,0.0,0.0,0.0,0.0,0.0,0.0,-1.7216,-1.6752,-1.6558,-1.625,-1.6112,-1.6112,-1.6112,-1.6302,-1.6764,-1.6965,-1.7374,-1.799,-1.784,-1.7852,-1.8003,-1.8003,-1.8505,-1.9422,-1.9999,-2.0075,-1.9798,-1.9798,-1.9798,-1.9798,-1.9798,-1.9798,-1.9798,-1.9798,-1.971,-1.961,0.0,0.0,0.0,0.0,0.0,0.0,0.0,0.0,0.0,0.0,0.0,0.0,-0.6928,-0.7187,-0.7337,-0.7337,-0.7107,-0.6874,-0.6684,-0.7501,-0.7739,-0.7203,-0.7655,0.0,-0.7105,-0.8489,0.0,0.0,0.0,0.0,-1.127,-1.2364,-1.2866,-1.2837,-1.1988,-1.1606,-1.1636,0.0,0.0,0.0,0.0,0.0,0.0,0.0,0.0,0.0,0.0,-1.3192,-1.3608,-1.3057,-1.2923,-1.2896,-1.235,-1.1884,-1.1438,0.0,0.0,0.0,0.0,0.0,0.0,0.0,0.0,0.0,0.0,0.0,0.0,0.0,0.0,0.0,0.0,0.0,0.0,0.0,0.0,0.0,0.0,0.0,0.0,0.0,0.0,0.0,0.0,0.0,0.0,0.0,-1.6019,-1.6095,-1.5319,-1.5272,-1.5251,-1.5251,-1.5251,-1.5288,-1.5313,-1.6061,-1.678,-1.7436,-1.6873,-1.6898,-1.7448,-1.7448,-1.7762,-1.8317,-1.8845,-1.9346,-1.9798,-1.9798,-1.9798,-1.9798,-1.9798,-1.9798,-1.9798,-1.9798,-1.9497,-1.9045,0.0,0.0,0.0,0.0,0.0,0.0,0.0,0.0,0.0,0.0,0.0,0.0,0.0,-0.8435,-0.8906,-0.8646,-0.8209,-0.81,-0.8437,-0.8103,-0.8111,-0.8578,-0.8152,-0.7808,-0.7579,-0.8292,0.0,0.0,0.0,-1.1315,-1.1607,-1.2182,-1.2349,-1.2203,-1.2363,-1.2436,-1.2445,-1.2578,0.0,0.0,0.0,0.0,0.0,0.0,0.0,0.0,0.0,0.0,0.0,-1.2656,-1.2506,-1.2448,-1.1997,-1.1749,-1.1518,0.0,0.0,0.0,0.0,0.0,0.0,0.0,0.0,0.0,0.0,0.0,0.0,0.0,0.0,0.0,0.0,0.0,0.0,0.0,0.0,0.0,0.0,0.0,0.0,0.0,0.0,0.0,0.0,0.0,0.0,0.0,0.0,-1.4404,-1.4123,-1.3862,-1.3726,-1.3726,-1.3726,-1.3914,-1.431,-1.536,-1.6008,-1.6256,-1.6436,-1.66,-1.6823,-1.6823,-1.7137,-1.7712,-1.789,-1.8279,-1.8781,-1.8781,-1.8781,-1.8807,-1.9133,-1.9284,-1.9321,-1.9673,-1.9447,-1.9008,0.0,0.0,0.0,0.0,0.0,0.0,0.0,0.0,0.0,0.0,0.0,0.0,0.0,0.0,-1.0024,-0.9602,-0.8909,-0.8637,-0.8943,-0.8111,-0.7917,-0.8638,-0.8086,-0.7708,-0.76,-0.8187,0.0,0.0,0.0,0.0,0.0,-1.1885,-1.1976,-1.1814,-1.2064,-1.2329,0.0,0.0,0.0,-1.2905,0.0,0.0,-1.2905,0.0,0.0,0.0,0.0,0.0,0.0,0.0,-1.2428,-1.2402,0.0,0.0,0.0,0.0,0.0,0.0,0.0,0.0,0.0,0.0,0.0,0.0,0.0,0.0,0.0,0.0,0.0,0.0,0.0,0.0,0.0,0.0,0.0,0.0,0.0,0.0,0.0,0.0,0.0,0.0,0.0,0.0,0.0,0.0,0.0,0.0,-1.3301,-1.3062,-1.2905,-1.2905,-1.2905,-1.319,-1.3792,-1.4595,-1.5197,-1.561,-1.6008,-1.6303,-1.65,-1.65,-1.6722,-1.7087,-1.7087,-1.7513,-1.8204,-1.8204,-1.8204,-1.8242,-1.8581,-1.8719,-1.877,-1.9133,-1.8932,-1.8456,0.0,0.0,0.0,0.0,0.0,0.0,0.0,0.0,0.0,-0.7041,0.0,0.0,0.0,0.0,0.0,-1.0191,-0.9201,-0.8417,-0.8006,-0.7405,-0.7047,-0.7047,-0.735,-0.7363,-0.7033,-0.8243,0.0,0.0,0.0,0.0,0.0,0.0,-1.178,-1.174,-1.1091,-1.1166,-1.1765,0.0,-1.2236,-1.2905,0.0,-1.2905,-1.2905,0.0,0.0,0.0,-1.2905,-1.2905,0.0,0.0,0.0,0.0,0.0,0.0,0.0,0.0,0.0,0.0,0.0,0.0,0.0,0.0,0.0,0.0,0.0,0.0,0.0,0.0,0.0,0.0,0.0,0.0,0.0,0.0,0.0,0.0,0.0,0.0,0.0,0.0,0.0,0.0,0.0,0.0,0.0,0.0,-1.2905,-1.2905,-1.2905,-1.2905,-1.2905,-1.2905,-1.2905,-1.319,-1.3792,-1.3815,-1.4434,-1.561,-1.561,-1.593,-1.65,-1.65,-1.65,-1.65,-1.65,-1.7114,-1.8154,-1.8154,-1.8154,-1.8154,-1.8179,-1.8179,-1.8179,-1.8191,-1.7852,-1.741,0.0,0.0,0.0,0.0,0.0,0.0,0.0,0.0,0.0,0.0,0.0,0.0,-1.0312,-1.1253,-1.1765,-1.1618,-1.099,-1.0379,-0.9873,-0.8917,-0.8339,-0.8226,-0.7934,-0.7739,-0.7659,-0.8242,0.0,0.0,0.0,0.0,0.0,0.0,0.0,0.0,-1.0889,-1.0889,-1.1116,-1.1591,0.0,0.0,-1.2905,-1.2905,0.0,0.0,0.0,0.0,0.0,-1.2905,-1.2905,0.0,-1.2905,-1.2905,0.0,0.0,0.0,0.0,0.0,0.0,-1.131,0.0,0.0,0.0,0.0,0.0,0.0,0.0,0.0,0.0,0.0,0.0,0.0,0.0,0.0,0.0,0.0,0.0,0.0,0.0,0.0,0.0,0.0,0.0,0.0,0.0,0.0,0.0,-1.2905,-1.2905,-1.2905,-1.2905,-1.2905,-1.2905,-1.2905,-1.319,-1.3792,-1.4236,-1.4846,-1.561,-1.603,-1.6337,-1.65,-1.65,-1.65,-1.65,-1.65,-1.6676,-1.6964,-1.6964,-1.6964,-1.7002,-1.7451,-1.7614,-1.7664,-1.8053,-1.7852,-1.741,0.0,0.0,0.0,0.0,0.0,0.0,0.0,0.0,0.0,0.0,0.0,0.0,-1.1598,-1.2147,-1.2408,-1.2223,-1.1701,-1.1066,-1.0287,-0.9405,-0.8749,-0.8381,-0.8211,-0.8032,-0.7912,-0.8223,0.0,0.0,0.0,0.0,0.0,0.0,0.0,0.0,0.0,0.0,0.0,0.0,0.0,0.0,-1.2905,0.0,0.0,-1.2905,-1.2905,0.0,0.0,0.0,-1.2905,-1.2905,-1.2905,0.0,0.0,0.0,0.0,0.0,0.0,0.0,0.0,0.0,0.0,0.0,0.0,0.0,-1.1084,-1.1359,0.0,0.0,0.0,0.0,0.0,0.0,0.0,0.0,0.0,0.0,0.0,0.0,0.0,0.0,0.0,0.0,0.0,-1.2905,-1.2905,-1.2905,-1.2905,-1.2905,-1.2905,-1.2905,-1.2905,-1.2905,-1.2905,-1.3065,-1.342,-1.3766,-1.4376,-1.5231,-1.5577,-1.602,-1.65,-1.65,-1.65,-1.65,-1.65,-1.65,-1.65,-1.65,-1.65,-1.6525,-1.6886,-1.7024,-1.7061,-1.7388,-1.73,-1.7024,0.0,0.0,0.0,0.0,0.0,0.0,0.0,0.0,0.0,0.0,-1.0912,-1.1916,-1.2808,-1.2905,-1.2725,-1.2311,-1.1846,-1.1062,-0.9903,-0.9447,-0.8852,-0.8029,-0.8351,-0.8371,-0.8012,-0.829,0.0,0.0,0.0,0.0,0.0,0.0,0.0,0.0,0.0,0.0,0.0,0.0,0.0,-1.2905,-1.2905,-1.2905,0.0,0.0,-1.2905,0.0,-1.2905,-1.2905,-1.2905,-1.2905,-1.2905,0.0,0.0,0.0,0.0,0.0,-1.2578,0.0,0.0,0.0,0.0,0.0,0.0,0.0,-1.1814,-1.1777,-1.1773,0.0,0.0,0.0,0.0,0.0,0.0,0.0,0.0,0.0,0.0,0.0,0.0,0.0,0.0,0.0,-1.2905,-1.2905,-1.2905,-1.2905,-1.2905,-1.2905,-1.2905,-1.2905,-1.2905,-1.2905,-1.2905,-1.292,-1.2992,-1.3065,-1.3681,-1.4789,-1.4858,-1.5456,-1.65,-1.65,-1.65,-1.65,-1.65,-1.65,-1.65,-1.65,-1.65,-1.65,-1.65,-1.65,-1.65,-1.65,-1.65,-1.65,-0.5615,0.0,0.0,0.0,0.0,0.0,0.0,0.0,0.0,0.0,-1.1777,-1.2677,-1.2871,-1.2905,-1.2866,-1.2764,-1.2672,-1.2024,-1.0656,-1.0994,-1.0458,-0.8708,-0.9214,-0.9247,-0.8637,-0.8697,-0.8724,0.0,0.0,0.0,0.0,0.0,0.0,0.0,0.0,0.0,0.0,0.0,0.0,-1.2905,-1.2905,0.0,-1.2905,-1.2905,-1.2905,-1.2905,-1.2905,-1.2905,-1.2905,0.0,-1.2905,-1.2905,0.0,0.0,0.0,0.0,0.0,0.0,0.0,0.0,0.0,0.0,0.0,0.0,-1.1248,-1.1103,-1.1182,0.0,0.0,0.0,0.0,0.0,0.0,0.0,0.0,0.0,0.0,0.0,0.0,0.0,0.0,0.0,-1.2905,-1.2905,-1.2905,-1.2905,-1.2905,-1.2905,-1.2905,-1.2905,-1.2905,-1.2905,-1.2905,-1.3128,-1.3613,-1.4107,-1.4721,-1.5432,-1.592,-1.6259,-1.65,-1.65,-1.65,-1.65,-1.65,-1.65,-1.65,-1.65,-1.65,-1.65,-1.65,-1.65,-1.65,-1.65,-1.65,-1.65,-0.6189,0.0,0.0,0.0,0.0,0.0,0.0,0.0,0.0,0.0,-1.2221,-1.2774,-1.2393,-1.2344,-1.2221,-1.1891,-1.2172,-1.1907,-1.0864,-1.1116,-1.0686,-0.9361,-0.9309,-0.9133,-0.8811,-0.8804,-0.8804,0.0,0.0,0.0,0.0,0.0,0.0,0.0,0.0,0.0,0.0,0.0,-1.2236,-1.2905,-1.2905,0.0,-1.2905,-1.2905,-1.2905,-1.2905,-1.2905,-1.2905,-1.2905,-1.2905,-1.2905,0.0,0.0,-1.2905,-1.2905,0.0,-1.2725,-1.2607,0.0,0.0,0.0,-1.1953,0.0,0.0,0.0,-1.1396,-1.1438,-1.2103,0.0,0.0,0.0,0.0,0.0,0.0,0.0,0.0,0.0,0.0,0.0,0.0,0.0,0.0,-1.2559,-1.2559,-1.2646,-1.2886,-1.2905,-1.2905,-1.2905,-1.2905,-1.2905,-1.2905,-1.2905,-1.319,-1.3792,-1.4097,-1.471,-1.561,-1.5908,-1.6216,-1.65,-1.65,-1.65,-1.65,-1.65,-1.65,-1.65,-1.65,-1.65,-1.65,-1.65,-1.65,-1.65,-1.65,-1.65,-1.65,-0.6505,0.0,0.0,0.0,0.0,0.0,0.0,0.0,0.0,0.0,0.0,0.0,0.0,0.0,0.0,0.0,-1.1699,-1.1724,0.0,0.0,-1.0644,-0.984,-0.929,-0.8929,-0.8804,-0.8804,-0.8804,-0.8804,0.0,0.0,0.0,0.0,0.0,0.0,0.0,0.0,0.0,0.0,0.0,-1.2691,0.0,-1.2905,-1.2905,-1.2905,-1.2905,-1.2905,-1.2905,-1.2905,-1.2905,-1.2905,0.0,-1.2905,-1.2905,-1.2905,0.0,0.0,0.0,0.0,0.0,0.0,0.0,0.0,0.0,-1.1455,0.0,0.0,0.0,-1.2588,0.0,0.0,0.0,0.0,0.0,0.0,0.0,0.0,0.0,0.0,0.0,0.0,0.0,0.0,0.0,-1.1861,-1.2198,-1.2842,-1.2827,-1.2793,-1.2905,-1.2905,-1.2905,-1.2905,-1.2905,-1.319,-1.3792,-1.3909,-1.4526,-1.561,-1.572,-1.603,-1.65,-1.65,-1.65,-1.65,-1.65,-1.65,-1.65,-1.65,-1.65,-1.65,-1.65,-1.65,-1.65,-1.65,-1.65,-1.65,-0.6823,-0.7244,0.0,0.0,0.0,0.0,0.0,0.0,0.0,0.0,0.0,0.0,0.0,0.0,0.0,0.0,0.0,0.0,-1.174,0.0,0.0,-0.9865,-0.9718,-0.9413,-0.8804,-0.8804,-0.8804,-0.8804,0.0,0.0,0.0,0.0,0.0,0.0,-0.951,0.0,0.0,0.0,-1.1841,0.0,-1.2642,-1.2905,0.0,-1.2905,-1.2905,-1.2905,-1.2905,-1.2905,-1.2905,0.0,-1.2905,-1.2905,0.0,-1.2905,-1.2905,0.0,0.0,0.0,0.0,0.0,0.0,0.0,-1.2441,0.0,0.0,0.0,-1.1721,-1.2197,0.0,0.0,0.0,0.0,0.0,0.0,0.0,0.0,0.0,0.0,0.0,0.0,0.0,0.0,0.0,-1.0656,-1.1485,-1.2788,-1.252,-1.2447,-1.2886,-1.2905,-1.2905,-1.2905,-1.2905,-1.319,-1.3792,-1.4329,-1.4949,-1.561,-1.6139,-1.6423,-1.65,-1.65,-1.65,-1.65,-1.65,-1.65,-1.65,-1.65,-1.65,-1.65,-1.65,-1.65,-1.65,-1.65,-1.65,-1.65,-0.7651,-0.7933,0.0,0.0,0.0,0.0,0.0,0.0,0.0,0.0,0.0,0.0,0.0,0.0,0.0,0.0,0.0,-1.2255,0.0,0.0,0.0,0.0,0.0,0.0,-0.8804,-0.8804,-0.8804,-0.8804,-0.8804,0.0,0.0,0.0,0.0,0.0,-0.908,0.0,-1.0415,0.0,0.0,0.0,0.0,0.0,0.0,-1.2905,-1.2905,-1.2905,-1.2905,-1.2905,-1.2905,0.0,-1.2905,0.0,0.0,0.0,0.0,0.0,0.0,0.0,0.0,0.0,0.0,0.0,0.0,0.0,-1.2588,0.0,-1.1712,0.0,0.0,0.0,0.0,0.0,0.0,0.0,-1.0424,0.0,0.0,0.0,0.0,0.0,0.0,0.0,0.0,0.0,0.0,0.0,-1.1524,-1.1832,-1.2025,-1.258,-1.2905,-1.2905,-1.3238,-1.3552,-1.3792,-1.4755,-1.5343,-1.561,-1.6216,-1.65,-1.65,-1.65,-1.65,-1.65,-1.65,-1.65,-1.65,-1.65,-1.65,-1.65,-1.65,-1.65,-1.65,-1.65,-1.65,-1.65,-0.8342,0.0,0.0,0.0,0.0,0.0,0.0,0.0,0.0,0.0,0.0,0.0,-1.2633,-1.2702,0.0,0.0,0.0,-1.23,0.0,0.0,-1.1316,0.0,0.0,0.0,0.0,0.0,-0.8883,-0.9087,0.0,0.0,0.0,0.0,0.0,0.0,0.0,-0.9788,-1.0568,0.0,0.0,-1.2608,-1.2822,-1.2905,-1.2905,-1.2905,-1.2905,-1.2905,-1.2905,-1.2905,-1.2905,-1.2905,-1.2905,0.0,-1.2905,0.0,0.0,0.0,0.0,0.0,-1.2905,0.0,0.0,0.0,0.0,0.0,0.0,0.0,0.0,0.0,0.0,0.0,0.0,0.0,0.0,0.0,0.0,-0.9858,0.0,0.0,0.0,0.0,0.0,0.0,0.0,0.0,0.0,-1.0126,-1.07,-1.1219,-1.1589,-1.2476,-1.2998,-1.3142,-1.3732,-1.4143,-1.4295,-1.5005,-1.5521,-1.5842,-1.6117,-1.6337,-1.65,-1.65,-1.65,-1.65,-1.65,-1.65,-1.65,-1.65,-1.65,-1.65,-1.65,-1.65,-1.65,-1.65,-1.65,-1.65,-0.8633,-0.8564,0.0,0.0,0.0,0.0,0.0,0.0,0.0,0.0,0.0,0.0,0.0,0.0,0.0,0.0,0.0,-1.2973,-1.1841,0.0,-1.0813,0.0,0.0,-0.914,0.0,0.0,0.0,0.0,0.0,0.0,0.0,0.0,0.0,0.0,0.0,-1.0389,-0.9969,-1.1983,-1.2452,-1.1888,-1.2608,-1.2905,-1.2905,0.0,-1.2905,-1.2905,-1.2905,0.0,0.0,-1.2905,-1.2905,0.0,0.0,0.0,0.0,0.0,0.0,0.0,0.0,0.0,0.0,-1.2905,0.0,0.0,0.0,0.0,-1.2184,0.0,0.0,0.0,0.0,0.0,0.0,-0.8989,0.0,0.0,0.0,0.0,0.0,0.0,0.0,0.0,0.0,0.0,0.0,-1.0628,-1.0373,-1.0727,-1.2109,-1.2746,-1.3307,-1.3758,-1.4352,-1.4949,-1.5543,-1.5005,-1.531,-1.6466,-1.5908,-1.593,-1.65,-1.65,-1.65,-1.65,-1.65,-1.65,-1.65,-1.65,-1.65,-1.65,-1.65,-1.65,-1.65,-1.65,-1.65,-1.65,0.0,0.0,0.0,0.0,0.0,0.0,0.0,-0.984,0.0,0.0,0.0,0.0,0.0,0.0,-1.2922,0.0,0.0,-1.1893,-1.0549,-1.0889,0.0,0.0,0.0,-0.9761,0.0,0.0,0.0,0.0,0.0,0.0,0.0,0.0,0.0,0.0,0.0,-1.0261,0.0,0.0,0.0,0.0,0.0,-1.2905,-1.2905,0.0,0.0,-1.2905,-1.2905,-1.2905,0.0,-1.2905,-1.2905,-1.2905,-1.2905,-1.2905,-1.2905,-1.2905,-1.2905,0.0,0.0,0.0,-1.2905,-1.2905,0.0,0.0,0.0,0.0,0.0,0.0,0.0,0.0,0.0,0.0,0.0,-1.0238,0.0,0.0,0.0,0.0,0.0,0.0,0.0,0.0,0.0,0.0,0.0,-0.8829,-0.947,-1.025,-1.1221,-1.2074,-1.2729,-1.318,-1.3779,-1.4014,-1.3813,-1.441,-1.4903,-1.531,-1.5499,-1.5908,-1.65,-1.65,-1.65,-1.65,-1.65,-1.65,-1.65,-1.65,-1.65,-1.65,-1.65,-1.65,-1.65,-1.65,-1.65,-1.655,-0.8182,0.0,0.0,0.0,0.0,0.0,0.0,0.0,0.0,0.0,-1.2572,0.0,-1.3167,0.0,-1.2313,0.0,-1.1283,-1.1237,-1.0068,-1.0464,0.0,-0.9993,-1.002,0.0,0.0,0.0,0.0,0.0,0.0,-0.8804,0.0,0.0,0.0,0.0,0.0,0.0,0.0,0.0,-1.2476,0.0,0.0,-1.2905,0.0,0.0,-1.2905,-1.2905,0.0,-1.2905,-1.2905,-1.2905,-1.2905,-1.2905,-1.2905,-1.2905,-1.2905,-1.2905,-1.2905,-1.2905,-1.2905,-1.2905,0.0,-1.2905,-1.2905,0.0,-1.2905,0.0,0.0,0.0,0.0,0.0,0.0,0.0,0.0,-1.0637,-1.0115,0.0,0.0,-0.8857,0.0,0.0,0.0,0.0,0.0,0.0,-0.7843,-0.8481,-0.9163,-1.0071,0.0,0.0,-1.2729,-1.3204,-1.3802,-1.392,-1.3539,-1.4107,-1.4606,-1.5017,-1.5208,-1.571,-1.65,-1.65,-1.65,-1.65,-1.65,-1.65,-1.65,-1.65,-1.65,-1.65,-1.65,-1.65,-1.65,-1.65,-1.65,-1.655,0.0,0.0,0.0,0.0,-0.9335,0.0,0.0,0.0,-1.235,0.0,-1.2654,-1.2725,-1.2475,-1.2112,-1.1303,-0.9896,-1.0775,0.0,-1.0285,-0.9929,0.0,0.0,-0.9347,-0.9141,-0.9736,0.0,0.0,0.0,0.0,0.0,0.0,0.0,0.0,0.0,-1.0218,0.0,-1.0948,-1.2314,-1.2905,-1.2905,-1.2905,-1.2905,-1.2905,-1.2905,-1.2905,-1.2905,-1.2905,-1.2905,-1.2905,-1.2905,-1.2905,-1.2905,-1.2905,-1.2905,-1.2905,-1.2905,-1.2905,-1.2905,-1.2905,-1.2905,-1.2905,-1.2905,-1.2905,0.0,0.0,0.0,-1.2778,0.0,0.0,0.0,0.0,0.0,0.0,0.0,0.0,0.0,0.0,0.0,0.0,0.0,0.0,0.0,0.0,-0.7214,-0.7759,-0.9499,-0.9432,0.0,0.0,0.0,-1.3242,-1.3734,-1.4306,-1.4606,-1.4606,-1.405,-1.4365,-1.5543,-1.4971,-1.5332,-1.65,-1.65,-1.65,-1.65,-1.65,-1.65,-1.65,-1.6466,-1.6457,-1.6457,-1.6457,-1.6466,-1.65,-1.65,-1.65,-1.65,-0.8804,-0.8804,-0.8804,0.0,-0.8936,-0.9061,0.0,0.0,0.0,0.0,-1.1545,-1.1689,-1.161,-1.1528,-1.0883,-0.9467,-0.9617,0.0,0.0,0.0,0.0,-0.9185,-0.9376,-0.9335,-0.9068,-0.9092,0.0,-0.9061,0.0,0.0,-0.8804,0.0,0.0,0.0,0.0,0.0,-1.1591,-1.251,-1.2905,-1.2905,-1.2905,-1.2905,0.0,0.0,-1.2905,-1.2905,-1.2905,-1.2905,-1.2905,-1.2905,-1.2905,-1.2905,-1.2905,-1.2905,-1.2905,-1.2905,-1.2905,-1.2905,-1.2905,-1.2905,-1.2905,-1.2905,-1.2905,-1.2905,0.0,0.0,0.0,0.0,0.0,0.0,0.0,0.0,0.0,0.0,0.0,0.0,0.0,0.0,0.0,-0.8738,0.0,0.0,0.0,-0.7453,-0.7937,-0.8617,-0.9152,0.0,0.0,0.0,0.0,-1.3108,-1.3272,-1.3368,-1.3368,-1.32,-1.3742,-1.4926,-1.4766,-1.5332,-1.65,-1.65,-1.65,-1.65,-1.65,-1.65,-1.6466,-1.603,-1.582,-1.582,-1.582,-1.6117,-1.65,-1.65,-1.65,-1.65,-0.8804,0.0,0.0,-0.8804,0.0,0.0,-0.9414,0.0,0.0,-1.1248,-1.1201,0.0,-1.0953,-1.0595,-1.0016,-0.9119,-0.9024,0.0,-0.8971,0.0,0.0,-0.8971,-0.9192,-0.9145,-0.8818,-0.8938,0.0,-0.8804,0.0,0.0,-0.8804,0.0,0.0,0.0,0.0,-1.1166,0.0,-1.2584,-1.2905,-1.2905,-1.2905,0.0,0.0,-1.2535,-1.2427,-1.2427,-1.2427,-1.2642,-1.2905,-1.2905,-1.2905,-1.2905,-1.2905,-1.2905,-1.2905,-1.2905,-1.2905,-1.2905,-1.2905,-1.2905,-1.2905,-1.2905,-1.2905,-1.2905,-1.2905,-1.2905,-1.2837,0.0,-1.2469,-1.2434,0.0,0.0,0.0,0.0,0.0,0.0,0.0,0.0,0.0,0.0,0.0,0.0,0.0,0.0,-0.8177,-0.8866,0.0,0.0,0.0,0.0,0.0,-1.2861,-1.3152,-1.3176,-1.2905,-1.3152,-1.3766,-1.4698,-1.4422,-1.5085,-1.6466,-1.5942,-1.5854,-1.6095,-1.5832,-1.57,-1.5678,-1.5354,-1.5208,-1.5231,-1.5499,-1.582,-1.6139,-1.6402,-1.65,-1.65,0.0,0.0,0.0,0.0,0.0,0.0,0.0,-1.0833,0.0,-1.1583,0.0,-1.069,-1.0352,-0.9666,-0.9098,-0.8831,0.0,-0.8891,-0.9138,-0.8918,-0.8891,-0.9144,-0.8911,-0.8804,-0.8804,-0.8804,0.0,0.0,0.0,0.0,0.0,0.0,0.0,0.0,0.0,0.0,0.0,-1.2642,-1.2905,-1.2881,-1.2798,-1.2774,-1.2691,-1.1956,-1.1665,-1.169,-1.1765,-1.2212,-1.2774,-1.2881,-1.2905,-1.2905,-1.2905,-1.2905,-1.2905,-1.2905,-1.2905,-1.2905,-1.2905,-1.2905,-1.2905,-1.2905,-1.2832,-1.2774,-1.2774,-1.27,-1.2652,-1.2749,-1.2236,-1.203,0.0,0.0,0.0,0.0,0.0,0.0,0.0,0.0,0.0,0.0,0.0,0.0,0.0,0.0,0.0,0.0,0.0,0.0,0.0,0.0,0.0,-1.2861,-1.3481,-1.3552,-1.3017,-1.3552,-1.4097,-1.4698,-1.4097,-1.4664,-1.6228,-1.5175,-1.4994,-1.5454,-1.4926,-1.4698,-1.4698,-1.4606,-1.4629,-1.4744,-1.5276,-1.5588,-1.5776,-1.6315,-1.65,-1.65,0.0,0.0,0.0,0.0,0.0,-0.9347,-0.9738,-1.0122,-1.0293,-1.0098,-1.0175,-1.0032,-0.9487,-0.9294,-0.9098,-0.8831,-0.8804,0.0,0.0,0.0,0.0,-0.8878,-0.8838,-0.8804,-0.8804,-0.8804,-0.8804,0.0,0.0,0.0,0.0,0.0,0.0,0.0,0.0,0.0,-1.2725,-1.2856,0.0,-1.2856,-1.2236,-1.1996,-1.1922,-1.1241,-1.099,-1.104,-1.1591,-1.1888,-1.208,-1.2691,-1.2905,-1.2905,-1.2905,-1.2905,-1.2905,-1.2905,-1.2905,-1.2905,-1.2905,-1.2905,-1.2905,-1.2905,-1.2452,-1.1996,-1.1996,-1.1575,-1.1325,-1.1873,-1.1898,-1.203,-1.2774,0.0,0.0,0.0,0.0,0.0,0.0,0.0,0.0,0.0,0.0,0.0,0.0,0.0,0.0,0.0,0.0,0.0,0.0,0.0,0.0,0.0,-1.3481,0.0,0.0,0.0,-1.4097,-1.4698,-1.4097,-1.4236,-1.4994,-1.4789,-1.4755,-1.4858,-1.4744,-1.4698,-1.4663,-1.4167,-1.426,-1.4698,-1.4812,-1.5466,-1.6358,-1.6457,-1.65,-1.65,0.0,0.0,0.0,0.0,0.0,0.0,0.0,-1.0285,0.0,-0.9769,-0.9539,-0.9304,-0.9018,-0.8991,-0.8931,-0.8818,-0.8804,-0.8804,-0.8804,-0.8804,-0.8804,-0.8804,-0.8804,0.0,-0.8804,-0.8804,-0.8804,-0.8804,0.0,0.0,-0.8804,0.0,0.0,0.0,0.0,-1.1907,0.0,0.0,0.0,-1.2881,-1.2501,-1.2138,-1.174,-1.1065,-1.0788,-1.0838,-1.1166,-1.1491,-1.1922,-1.2642,-1.2905,-1.2822,-1.2452,-1.232,-1.232,-1.232,-1.232,-1.2403,-1.2798,-1.2905,-1.2905,-1.2905,-1.2344,-1.1789,-1.1789,-1.1291,-1.099,-1.1665,-1.1516,-1.15,-1.2187,-1.2632,0.0,0.0,0.0,0.0,0.0,0.0,0.0,0.0,0.0,0.0,0.0,0.0,0.0,0.0,0.0,0.0,0.0,0.0,0.0,0.0,0.0,0.0,0.0,0.0,-1.3956,-1.4236,-1.3624,-1.3802,-1.4686,-1.4048,-1.3954,-1.4213,-1.3907,-1.3776,-1.3752,-1.3443,-1.3695,-1.426,-1.4583,-1.5242,-1.6073,-1.638,-1.65,-1.65,0.0,-0.9903,0.0,0.0,-0.998,0.0,-1.0439,-1.0445,-1.0265,-0.9826,-0.9319,-0.8965,-0.8905,-0.8844,-0.8804,-0.8804,-0.8804,-0.8804,-0.8804,-0.8804,-0.8804,-0.8804,-0.8804,-0.8804,-0.8804,-0.8804,-0.8804,0.0,0.0,0.0,0.0,0.0,0.0,0.0,0.0,0.0,0.0,0.0,-1.2544,-1.2652,-1.2372,-1.1891,-1.1291,-1.0636,-1.0364,-1.0415,-1.0686,-1.1141,-1.1715,-1.2608,-1.2798,-1.2559,-1.1972,-1.169,-1.1616,-1.1765,-1.1789,-1.1972,-1.2691,-1.2905,-1.2905,-1.2905,-1.2246,-1.1591,-1.1591,-1.1065,-1.0788,-1.1441,-1.1416,-1.14,-1.1947,-1.2501,0.0,0.0,0.0,0.0,0.0,0.0,0.0,0.0,0.0,0.0,0.0,0.0,0.0,0.0,0.0,0.0,0.0,0.0,0.0,0.0,0.0,-1.3576,-1.3113,0.0,-1.3792,-1.3802,-1.32,-1.3406,-1.4294,-1.3344,-1.3152,-1.3576,-1.3104,-1.2968,-1.3079,-1.3079,-1.3529,-1.4226,-1.471,-1.5253,-1.5842,-1.6315,-1.65,-1.65,0.0,0.0,0.0,0.0,0.0,0.0,-1.0187,-0.9933,-0.984,-1.0047,-0.98,-0.9499,-0.9204,-0.8938,-0.8804,-0.8804,-0.8804,-0.8804,-0.8804,-0.8804,-0.8804,-0.8804,-0.8804,-0.8804,-0.8804,-0.8804,-0.8804,0.0,0.0,-0.9038,0.0,0.0,0.0,0.0,0.0,0.0,0.0,-1.1241,-1.1359,-1.1801,-1.0584,-1.0038,-0.9909,-0.9237,-0.8982,-0.9133,-1.0364,-1.0838,-1.1099,-1.2437,-1.2452,-1.1898,-1.1814,-1.1391,-1.1015,-1.1616,-1.1789,-1.1972,-1.2691,-1.2905,-1.2905,-1.2905,-1.1891,-1.0889,-1.0889,-1.0364,-1.009,-1.0762,-1.1866,-1.2725,-1.2798,-1.2856,-1.2881,0.0,0.0,0.0,0.0,0.0,0.0,0.0,0.0,0.0,0.0,-0.9326,0.0,0.0,0.0,0.0,0.0,0.0,0.0,-1.2895,0.0,-1.3768,-1.3708,-1.3768,-1.3792,-1.3802,-1.32,-1.2954,-1.3065,-1.2954,-1.2929,-1.2968,-1.2929,-1.3214,-1.3708,-1.3708,-1.4388,-1.5432,-1.5499,-1.5886,-1.6423,-1.6466,-1.65,-1.65,0.0,0.0,0.0,0.0,0.0,0.0,0.0,-1.0247,-0.9987,-1.01,-0.9559,-0.9112,-0.8964,-0.8878,-0.8804,-0.8804,-0.8804,-0.8804,-0.8804,-0.8804,-0.8804,-0.8804,-0.8804,-0.8804,-0.8804,-0.8804,-0.8804,0.0,0.0,0.0,0.0,0.0,0.0,0.0,0.0,-1.0559,-1.1191,-1.0914,-1.0948,-1.1149,-1.0618,-1.0167,-0.9762,-0.951,-0.9413,-0.9458,-1.002,-1.0712,-1.1491,-1.2055,-1.2055,-1.174,-1.1341,-1.0737,-1.0236,-1.0517,-1.0889,-1.1341,-1.2055,-1.2559,-1.2798,-1.2344,-1.15,-1.0686,-1.0287,-0.9987,-0.9987,-1.0661,-1.1575,-1.2246,-1.223,-1.19,-1.1642,-1.1642,0.0,0.0,0.0,0.0,0.0,0.0,0.0,0.0,0.0,0.0,0.0,0.0,0.0,0.0,0.0,0.0,0.0,-1.2895,0.0,-1.3262,-1.3262,-1.3262,-1.3262,-1.3262,-1.3017,-1.2905,-1.2905,-1.2905,-1.2905,-1.2929,-1.3286,-1.3576,-1.3815,-1.419,-1.4846,-1.561,-1.561,-1.5974,-1.65,-1.65,-1.65,-1.65,-1.1724,0.0,-1.1015,0.0,-1.0708,-1.0488,-1.0815,-1.0441,-1.0057,-1.0,-0.9372,-0.8904,-0.8904,-0.8858,-0.8804,-0.8804,-0.8804,-0.8804,-0.8804,-0.8804,-0.8804,-0.8804,-0.8804,0.0,-0.8804,-0.8804,-0.8804,-0.8804,-0.9071,0.0,0.0,0.0,0.0,0.0,-0.9517,-0.9891,-1.0491,-1.0287,-1.0346,-1.0491,-1.0287,-0.9917,-0.9517,-0.9517,-0.9517,-0.9536,-0.9744,-1.0415,-1.1241,-1.1441,-1.1366,-1.1166,-1.0889,-1.0192,-0.9536,-0.9736,-1.0141,-1.0636,-1.1316,-1.1882,-1.2147,-1.1649,-1.099,-1.044,-1.0167,-1.009,-1.0346,-1.1225,-1.1625,-1.1789,-1.1792,-1.125,-1.0864,-1.1065,0.0,0.0,0.0,0.0,0.0,0.0,-1.0269,-1.0496,-1.0775,0.0,0.0,0.0,0.0,0.0,0.0,0.0,0.0,0.0,0.0,0.0,-1.2905,-1.2905,-1.2905,-1.2905,-1.2905,-1.2905,-1.2905,-1.2905,-1.2905,-1.292,-1.3552,-1.3792,-1.3839,-1.4445,-1.4949,-1.5343,-1.5343,-1.571,-1.6238,-1.6238,-1.6358,-1.6466,-1.2291,-1.2058,-1.1799,-1.1435,-1.1176,-1.0889,-1.064,-1.0307,-1.0013,-0.9726,-0.9397,-0.9211,-0.9211,-0.8951,-0.8804,-0.8804,-0.8804,-0.8804,-0.8804,-0.8804,-0.8804,0.0,0.0,-0.8804,-0.8804,-0.8804,-0.8804,-0.8804,0.0,0.0,-0.8811,0.0,-0.8811,-0.8804,-0.8804,-0.9185,-0.9762,-0.9113,-0.9211,-0.9762,-0.908,-0.8804,-0.8804,-0.8804,-0.8804,-0.891,-0.9562,-0.9814,-0.9917,-1.0593,-1.0364,-0.9935,-1.0585,-0.9891,-0.8936,-0.9614,-0.9814,-0.9961,-1.0644,-1.0813,-1.0813,-1.0813,-1.032,-0.9987,-1.0644,-1.0788,-1.1174,-1.2593,-1.2295,-1.1789,-1.1789,-1.1266,-1.1015,-1.169,0.0,0.0,0.0,0.0,0.0,0.0,-1.1366,-1.1789,-1.178,0.0,0.0,0.0,0.0,0.0,0.0,0.0,0.0,-1.2895,-1.2905,0.0,-1.2905,-1.2905,-1.2905,-1.2905,-1.2905,-1.2905,-1.2905,-1.2905,-1.2905,-1.292,-1.3552,-1.3792,-1.3839,-1.4445,-1.4698,-1.4698,-1.4698,-1.5085,-1.561,-1.561,-1.5986,-1.6402,-1.1784,-1.163,-1.1416,-1.0955,-1.0787,-1.07,-1.0606,-1.0171,-0.9786,-0.9722,-0.9252,-0.8918,-0.8918,-0.8864,-0.8804,0.0,-0.8804,-0.8804,0.0,-0.8804,-0.8804,-0.8804,-0.8804,-0.8804,-0.8804,-0.8804,-0.8804,-0.8804,0.0,0.0,0.0,-0.9078,-0.8971,-0.8804,-0.8804,-0.891,-0.9113,-0.8883,-0.8936,-0.9113,-0.8883,-0.8804,-0.8804,-0.8804,-0.8804,-0.8831,-0.9035,-0.9413,-0.984,-1.0038,-0.9961,-0.984,-1.0038,-0.951,-0.8831,-0.9061,-0.9439,-0.984,-1.0064,-1.044,-1.0686,-1.0236,-0.9961,-0.9865,-1.0064,-1.0466,-1.0922,-1.1384,-1.0922,-1.044,-1.044,-0.9891,-0.9814,-1.0939,-1.0939,0.0,0.0,0.0,0.0,0.0,-1.1266,-1.15,-1.2461,-1.232,0.0,0.0,0.0,0.0,0.0,0.0,0.0,0.0,-1.2905,0.0,-1.2905,-1.2905,-1.2905,-1.2905,-1.2905,-1.2905,-1.2905,-1.2905,-1.2905,-1.292,-1.3552,-1.3792,-1.3839,-1.4445,-1.4698,-1.4698,-1.4698,-1.4812,-1.5039,-1.5454,-1.572,-1.5864,-1.1509,-1.1516,-1.141,-1.0854,-1.0754,-1.072,-1.0613,-1.0278,-1.0003,-0.986,-0.9432,-0.9098,-0.8951,-0.8871,0.0,-0.8804,-0.8804,-0.8804,-0.8804,-0.8804,-0.8804,-0.8804,-0.8804,-0.8804,-0.8804,-0.8804,0.0,-0.8804,-0.8958,-0.9051,-0.9051,-0.9051,-0.8951,-0.8804,-0.8804,-0.8804,-0.8804,-0.8804,-0.8804,-0.8804,-0.8804,-0.8804,-0.8804,-0.8804,-0.8804,-0.8804,-0.8804,-0.9061,-0.9413,-0.9413,-0.9413,-0.9413,-0.9413,-0.9133,-0.8804,-0.8804,-0.908,-0.9413,-0.9413,-0.9736,-0.9943,-0.9543,-0.9614,-0.9865,-1.0115,-1.0491,-1.0788,-1.0788,-1.0269,-0.9891,-1.0141,-0.964,-0.9614,-1.0965,-1.1191,-1.1416,-1.2113,0.0,0.0,0.0,0.0,0.0,0.0,-1.2064,-1.204,0.0,0.0,0.0,0.0,0.0,0.0,-1.2895,-1.2905,-1.2905,-1.2905,-1.2905,-1.2905,-1.2905,-1.2905,-1.2905,-1.2905,-1.2905,-1.2905,-1.292,-1.3552,-1.3661,-1.3505,-1.4097,-1.4224,-1.4025,-1.4025,-1.4294,-1.4744,-1.5118,-1.541,-1.5565,-1.1535,-1.1663,-1.1698,0.0,-1.0975,-1.0901,-1.0633,-1.0573,-1.0452,-1.0127,-0.9833,-0.9539,-0.9211,-0.8944,-0.8804,-0.8804,0.0,0.0,-0.8804,-0.8804,-0.8804,-0.8804,-0.8804,-0.8804,-0.8804,-0.8804,-0.8804,-0.8804,-0.8804,-0.8804,-0.8804,-0.8804,-0.8804,-0.8804,-0.8804,-0.8804,-0.8804,-0.8804,-0.8804,-0.8804,-0.8804,-0.8804,-0.8804,-0.8804,-0.8804,-0.8804,-0.8804,-0.8804,-0.8804,-0.8804,-0.8804,-0.8804,-0.8804,-0.8804,-0.8804,-0.8804,-0.8804,-0.8804,-0.8804,-0.8804,-0.8804,-0.8804,-0.9316,-0.9961,-1.0542,-1.0686,-1.0712,-1.0661,-1.0167,-0.9935,-1.0618,-1.0218,-1.0244,-1.1591,-1.1789,-1.2055,-1.2798,-1.2856,0.0,0.0,0.0,0.0,-1.1801,-1.1731,-1.1838,0.0,0.0,0.0,0.0,0.0,-1.2461,-1.2895,-1.2905,-1.2905,-1.2905,-1.2905,-1.2905,-1.2905,-1.2905,-1.2905,-1.2905,-1.2905,-1.2905,-1.2929,-1.3481,-1.342,-1.2954,-1.3505,-1.3396,-1.2905,-1.2905,-1.361,-1.4629,-1.4629,-1.5017,-1.5454,0.0,0.0,-1.1416,-1.1056,-1.0841,-1.0673,-1.06,-1.0367,-1.012,-0.9826,-0.9526,-0.9204,-0.8911,-0.8844,-0.8804,-0.8804,-0.8804,-0.8804,-0.8804,-0.8804,-0.8804,-0.8804,-0.8804,-0.8804,-0.8804,-0.8804,-0.8804,-0.8804,-0.8804,-0.8804,-0.8804,-0.8804,-0.8804,-0.8804,-0.8804,-0.8804,-0.8804,-0.8804,-0.8804,-0.8804,-0.8804,-0.8804,-0.8804,-0.8804,-0.8804,-0.8804,-0.8804,-0.8804,-0.8804,-0.8804,-0.8804,-0.8804,-0.8804,-0.8804,-0.8804,-0.8804,-0.8804,-0.8804,-0.8804,-0.8804,-0.8804,-0.8804,-0.9316,-0.9718,-0.9361,-0.9666,-0.9891,-0.9387,-0.9133,-0.9237,-0.9909,-0.9917,-1.0244,-1.1591,-1.1789,-1.2055,-1.2798,-1.2427,-1.1996,0.0,-1.0889,-1.0669,-1.1699,-1.1057,-1.1182,0.0,0.0,0.0,-1.2715,-1.2725,-1.2798,-1.2905,-1.2905,-1.2905,-1.2905,-1.2905,-1.2905,-1.2905,-1.2905,-1.2905,-1.2905,-1.2905,-1.2905,-1.2905,-1.3065,-1.3041,-1.2905,-1.3065,-1.3041,-1.2905,-1.2905,-1.3358,-1.4003,-1.4003,-1.4388,-1.4835,-1.175,-1.165,-1.1496,-1.1062,-1.0894,-1.0747,-1.0613,-1.0452,-1.0214,-0.992,-0.9626,-0.9304,-0.9011,-0.8858,-0.8804,-0.8804,-0.8804,-0.8804,-0.8804,-0.8804,-0.8804,-0.8804,-0.8804,-0.8804,-0.8804,-0.8804,-0.8804,-0.8804,-0.8804,-0.8804,-0.8804,-0.8804,-0.8804,-0.8804,-0.8804,-0.8804,-0.8804,-0.8804,-0.8804,-0.8804,-0.8804,-0.8804,-0.8804,-0.8804,-0.8804,-0.8804,-0.8804,-0.8804,-0.8804,-0.8804,-0.8804,-0.8804,-0.8804,-0.8804,-0.8804,-0.8804,-0.8804,-0.8804,-0.8804,-0.8804,-0.8883,-0.9185,-0.9309,-0.9335,-0.9256,-0.9309,-0.9335,-0.9263,-0.9008,-0.9185,-1.0491,-1.0466,-1.072,-1.2089,-1.2295,-1.2452,-1.2847,-1.227,-1.169,-1.1391,-1.044,-1.0218,-1.1241,-1.0814,-1.1064,-1.2483,-1.2549,0.0,-1.2578,-1.2773,-1.2905,-1.2905,-1.2905,-1.2905,-1.2905,-1.2905,-1.2905,-1.2905,-1.2905,-1.2905,-1.2905,-1.2905,-1.2905,-1.2905,-1.2905,-1.2905,-1.2905,-1.2905,-1.2905,-1.2905,-1.2905,-1.3262,-1.3815,-1.412,-1.4236,-1.4283,-1.1399,-1.1545,-1.1631,-1.1136,-1.0982,-1.0842,-1.0626,-1.0553,-1.0419,-1.0087,-0.98,-0.9506,-0.9178,-0.8931,-0.8804,-0.8804,-0.8804,-0.8804,-0.8804,-0.8804,-0.8804,-0.8804,-0.8804,-0.8804,-0.8804,-0.8804,-0.8804,-0.8804,-0.8804,-0.8804,-0.8804,-0.8804,-0.8804,-0.8804,-0.8804,-0.8804,-0.8804,-0.8804,-0.8804,-0.8804,-0.8804,-0.8804,-0.8804,-0.8804,-0.8804,-0.8804,-0.8804,-0.8804,-0.8804,-0.8804,-0.8804,-0.8804,-0.8804,-0.8804,-0.8804,-0.8804,-0.8804,-0.8804,-0.8804,-0.8804,-0.8929,-0.9517,-0.9211,-0.8962,-0.951,-0.9211,-0.8982,-0.9666,-0.9335,-0.9536,-1.1441,-1.1341,-1.1375,-1.27,-1.2905,-1.2905,-1.2905,0.0,-1.1441,-1.0864,-1.0115,-0.9961,-1.0745,-1.0747,-1.116,-1.2227,-1.2607,-1.2646,-1.232,-1.2676,-1.2905,-1.2905,-1.2905,-1.2905,-1.2905,-1.2905,-1.2905,-1.2905,-1.2905,-1.2905,-1.2905,-1.2905,-1.2905,-1.2905,-1.2905,-1.2905,-1.2905,-1.2905,-1.2905,-1.2905,-1.2905,-1.331,-1.398,-1.4317,-1.4224,-1.398,-1.0863,-1.1032,-1.1176,-1.1295,-1.0955,-1.064,-1.06,-1.0347,-1.008,-0.9786,-0.9464,-0.9171,-0.8905,-0.8831,-0.8804,-0.8804,-0.8804,-0.8804,-0.8804,-0.8804,-0.8804,-0.8804,-0.8804,-0.8804,-0.8804,-0.8804,-0.8804,-0.8804,-0.8804,-0.8804,-0.8804,-0.8804,-0.8804,-0.8804,-0.8804,-0.8804,-0.8804,-0.8804,-0.8804,-0.8804,-0.8804,-0.8804,-0.8804,-0.8804,-0.8804,-0.8804,-0.8804,-0.8804,-0.8804,-0.8804,-0.8804,-0.8804,-0.8804,-0.8804,-0.8804,-0.8804,-0.8804,-0.8804,-0.8804,-0.8804,-0.8831,-0.8936,-0.8883,-0.8831,-0.8929,-0.8883,-0.8982,-0.9666,-0.971,-1.009,-1.1541,-1.1715,-1.1922,-1.2774,-1.2905,-1.2905,-1.2905,0.0,-1.0914,-1.0813,-0.9718,-0.9439,-1.0686,-1.05,-1.0995,-1.2657,-1.25,-1.2461,-1.2764,-1.2866,-1.2905,-1.2905,-1.2905,-1.2905,-1.2905,-1.2905,-1.2905,-1.2905,-1.2905,-1.2905,-1.2905,-1.2905,-1.2905,-1.2905,-1.2905,-1.2905,-1.2905,-1.2905,-1.2905,-1.2905,-1.2905,-1.3586,-1.4445,-1.3525,-1.3776,-1.4433,-1.0583,-1.0934,-1.1223,-1.1196,-1.0874,-1.0539,-1.0347,-1.0207,-0.9923,-0.9477,-0.9297,-0.9098,-0.8838,-0.8804,-0.8804,-0.8804,-0.8804,-0.8804,-0.8804,-0.8804,-0.8804,-0.8804,-0.8804,-0.8804,-0.8804,-0.8804,-0.8804,-0.8804,-0.8804,-0.8804,-0.8804,-0.8804,-0.8804,-0.8804,-0.8804,-0.8804,-0.8804,-0.8804,-0.8804,-0.8804,-0.8804,-0.8804,-0.8804,-0.8804,-0.8804,-0.8804,-0.8804,-0.8804,-0.8804,-0.8804,-0.8804,-0.8804,-0.8804,-0.8804,-0.8804,-0.8804,-0.8804,-0.8804,-0.8804,-0.8804,-0.8804,-0.8804,-0.8804,-0.8804,-0.8804,-0.9087,-0.9543,-1.0192,-1.0338,-1.0771,-1.2138,-1.208,-1.2055,-1.2774,-1.2905,0.0,-1.2905,-1.199,-1.1341,-1.1334,-1.0474,-1.0261,-1.1241,-1.0839,-1.1168,-1.2788,-1.2329,-1.2243,-1.2871,-1.2905,-1.2905,-1.2905,-1.2905,-1.2905,-1.2905,-1.2905,-1.2905,-1.2905,-1.2905,-1.2905,-1.2905,-1.2905,-1.2905,-1.2905,-1.2905,-1.2905,-1.2905,-1.2905,-1.2905,-1.2905,-1.2905,-1.3248,-1.3705,-1.3467,-1.3539,-1.3705,-0.9702,-1.0345,-1.0867,-1.0718,-1.0431,-1.0245,-1.021,-0.989,-0.9568,-0.9336,-0.9198,-0.9031,-0.8831,-0.8804,-0.8804,-0.8804,-0.8804,-0.8804,-0.8804,-0.8804,-0.8804,-0.8804,-0.8804,-0.8804,-0.8804,-0.8804,-0.8804,-0.8804,-0.8804,-0.8804,-0.8804,-0.8804,-0.8804,-0.8804,-0.8804,-0.8804,-0.8804,-0.8804,-0.8804,-0.8804,-0.8804,-0.8804,-0.8804,-0.8804,-0.8804,-0.8804,-0.8804,-0.8804,-0.8804,-0.8804,-0.8804,-0.8804,-0.8804,-0.8804,-0.8804,-0.8804,-0.8804,-0.8804,-0.8804,-0.8804,-0.8804,-0.8804,-0.8804,-0.8804,-0.8804,-0.9211,-0.9762,-1.044,-1.0568,-1.0948,-1.2181,-1.1965,-1.1798,-1.2535,0.0,-1.2691,-1.2881,-1.227,-1.1798,-1.1792,-1.1082,-1.0838,-1.1491,-1.0965,-1.1074,-1.2314,-1.203,-1.2055,-1.2608,-1.2798,-1.2905,-1.2905,-1.2905,-1.2905,-1.2905,-1.2905,-1.2905,-1.2905,-1.2905,-1.2905,-1.2905,-1.2905,-1.2905,-1.2905,-1.2905,-1.2905,-1.2905,-1.2905,-1.2905,-1.2905,-1.2905,-1.2992,-1.3152,-1.3467,-1.3396,-1.3152,-0.7517,-0.8576,-0.9527,-0.9747,-0.943,-0.9445,-1.0425,-0.9288,-0.8673,-0.9562,-0.9178,-0.8831,-0.8811,-0.8804,-0.8804,-0.8804,-0.8804,-0.8804,-0.8804,-0.8804,-0.8804,-0.8804,-0.8804,-0.8804,-0.8804,-0.8804,-0.8804,-0.8804,-0.8804,-0.8804,-0.8804,-0.8804,-0.8804,-0.8804,-0.8804,-0.8804,-0.8804,-0.8804,-0.8804,-0.8804,-0.8804,-0.8804,-0.8804,-0.8804,-0.8804,-0.8804,-0.8804,-0.8804,-0.8804,-0.8804,-0.8804,-0.8804,-0.8804,-0.8804,-0.8804,-0.8804,-0.8804,-0.8804,-0.8804,-0.8804,-0.8804,-0.8804,-0.8804,-0.8804,-0.8804,-0.8831,-0.9061,-0.9736,-0.9865,-1.009,-1.0821,-1.0914,-1.1091,-1.1765,0.0,0.0,-1.2798,-1.227,-1.1789,-1.1789,-1.0661,-1.0141,-1.0813,-1.0269,-1.0167,-1.0897,-1.1491,-1.1814,-1.1888,-1.2525,-1.2905,-1.2905,-1.2905,-1.2905,-1.2905,-1.2905,-1.2905,-1.2905,-1.2905,-1.2905,-1.2905,-1.2905,-1.2905,-1.2905,-1.2905,-1.2905,-1.2905,-1.2905,-1.2905,-1.2905,-1.2905,-1.3238,-1.3661,-1.3152,-1.3286,-1.3661,-0.7085,-0.7976,-0.8717,-0.8663,-0.8956,-0.9045,-0.8621,-0.8498,-0.8441,-0.8469,-0.8259,-0.8295,-0.8752,-0.8804,-0.8804,-0.8804,-0.8374,-0.8129,-0.8129,-0.8129,-0.8321,-0.8785,-0.8804,-0.8804,-0.8804,-0.8804,-0.8804,-0.8804,-0.8804,-0.8804,-0.8804,-0.8804,-0.8804,-0.8804,-0.8804,-0.8804,-0.8804,-0.8804,-0.8804,-0.8804,-0.8804,-0.8804,-0.8804,-0.8804,-0.8804,-0.8804,-0.8804,-0.8804,-0.8804,-0.8804,-0.8804,-0.8804,-0.8804,-0.8804,-0.8804,-0.8804,-0.8804,-0.8804,-0.8804,-0.8804,-0.8804,-0.8804,-0.8804,-0.8804,-0.8804,-0.9106,-0.9484,-0.9736,-1.0141,-1.0491,-1.0737,-1.0788,-1.0889,-1.1141,0.0,-1.1888,-1.2187,-1.2369,-1.2476,-1.2476,-1.1625,-1.1141,-1.1391,-1.044,-1.0236,-1.1341,-1.1266,-1.155,-1.2452,-1.2749,-1.2905,-1.2905,-1.2905,-1.2905,-1.2905,-1.2905,-1.2905,-1.2905,-1.2905,-1.2905,-1.2905,-1.2905,-1.2905,-1.2905,-1.2905,-1.2905,-1.2905,-1.2905,-1.2905,-1.2905,-1.2905,-1.3041,-1.3214,-1.2968,-1.3041,-1.3214,-0.6844,-0.7382,-0.7802,-0.7624,-0.8035,-0.8191,-0.7598,-0.7623,-0.769,-0.7577,-0.7655,-0.7883,-0.8401,-0.8672,-0.8699,-0.848,-0.7996,-0.7589,-0.7369,-0.7563,-0.8023,-0.8778,-0.8804,-0.8804,-0.8804,-0.8804,-0.8804,-0.8804,-0.8804,-0.8804,-0.8804,-0.8804,-0.8804,-0.8804,-0.8804,-0.8804,-0.8804,-0.8804,-0.8804,-0.8804,-0.8804,-0.8804,-0.8804,-0.8804,-0.8804,-0.8804,-0.8804,-0.8804,-0.8804,-0.8804,-0.8804,-0.8804,-0.8804,-0.8804,-0.8804,-0.8804,-0.8804,-0.8804,-0.8804,-0.8804,-0.8804,-0.8804,-0.8804,-0.8804,-0.8804,-0.9159,-0.9491,-0.9491,-0.9865,-1.0167,-1.0167,-1.0167,-1.0244,-1.044,-1.0864,-1.1316,-1.174,-1.2236,-1.2632,-1.2881,-1.2064,-1.1491,-1.1491,-1.0261,-0.9961,-1.1091,-1.0939,-1.1409,-1.2822,-1.2905,-1.2905,-1.2905,-1.2905,-1.2798,-1.2559,-1.2559,-1.2559,-1.2559,-1.2329,-1.223,-1.2255,-1.2461,-1.2559,-1.2559,-1.2798,-1.2905,-1.2905,-1.2905,-1.2905,-1.2905,-1.2905,-1.2905,-1.2905,-1.2905,-1.2905,-1.2905,-0.6564,-0.6687,-0.6687,-0.6687,-0.6538,-0.6763,-0.7824,-0.6731,-0.6154,-0.717,-0.7527,-0.7696,-0.7696,-0.8342,-0.848,-0.775,-0.7696,-0.7369,-0.6642,-0.7289,-0.8023,-0.8778,-0.8804,-0.8804,-0.8804,-0.8804,-0.8804,-0.8804,-0.8804,-0.8804,-0.8804,-0.8804,-0.8804,-0.8804,-0.8804,-0.8804,-0.8804,-0.8804,-0.8804,-0.8804,-0.8804,-0.8804,-0.8804,-0.8804,-0.8804,-0.8804,-0.8804,-0.8804,-0.8804,-0.8804,-0.8804,-0.8804,-0.8804,-0.8804,-0.8804,-0.8804,-0.8804,-0.8804,-0.8804,-0.8804,-0.8804,-0.8804,-0.8804,-0.8804,-0.8804,-0.8804,-0.8804,-0.8804,-0.8804,-0.8804,-0.8804,-0.8804,-0.9008,-0.9692,-0.9788,-1.0261,-1.1616,-1.1789,-1.208,-1.2798,-1.1658,-1.0788,-1.0788,-0.9588,-0.9087,-0.9744,-1.044,-1.1434,-1.2832,-1.2905,-1.2905,-1.2881,-1.2881,-1.2535,-1.1789,-1.1789,-1.1789,-1.1789,-1.1116,-1.0788,-1.0813,-1.1491,-1.1789,-1.1839,-1.2559,-1.2881,-1.2881,-1.2881,-1.2881,-1.2881,-1.2905,-1.2905,-1.2905,-1.2905,-1.2905,-1.2905,-0.5881,-0.5782,-0.5782,-0.5782,-0.6257,-0.6451,-0.6033,-0.6026,-0.6108,-0.6238,-0.6197,-0.6362,-0.6885,-0.7128,-0.7155,-0.6939,-0.6443,-0.6281,-0.6588,-0.6804,-0.7482,-0.8752,-0.8804,-0.8804,-0.8804,-0.8804,-0.8804,-0.8804,-0.8289,-0.8295,-0.8778,-0.8262,-0.8295,-0.8804,-0.8804,-0.8804,-0.8804,-0.8804,-0.8804,-0.8804,-0.8804,-0.8804,-0.8804,-0.8804,-0.8804,-0.8804,-0.8804,-0.8804,-0.8804,-0.8804,-0.8804,-0.8804,-0.8804,-0.8804,-0.8804,-0.8804,-0.8804,-0.8804,-0.8804,-0.8804,-0.8804,-0.8804,-0.8804,-0.8804,-0.8804,-0.8804,-0.8804,-0.8804,-0.8804,-0.8804,-0.8804,-0.8804,-0.8857,-0.9061,-0.9891,-1.0644,-1.104,-1.194,-1.2452,-1.2163,-1.135,-1.0618,-1.0141,-0.9309,-0.9087,-0.9744,-1.0864,-1.1907,-1.2856,-1.2905,-1.2666,-1.2129,-1.2129,-1.1798,-1.1116,-1.1566,-1.1566,-1.1091,-1.0889,-1.0788,-1.0813,-1.1491,-1.1541,-1.1141,-1.1832,-1.1857,-1.1459,-1.1931,-1.2129,-1.2187,-1.2691,-1.2905,-1.2905,-1.2905,-1.2905,-1.2832,-0.6028,-0.562,-0.5395,-0.5395,-0.5848,-0.5952,-0.5216,-0.5432,-0.5598,-0.5397,-0.5441,-0.5678,-0.6118,-0.6421,-0.6514,-0.6294,-0.5643,-0.5684,-0.6663,-0.6714,-0.7334,-0.8732,-0.8804,-0.8804,-0.8804,-0.8804,-0.8646,-0.8374,-0.8209,-0.8209,-0.8374,-0.8209,-0.8374,-0.8804,-0.8804,-0.8804,-0.8804,-0.8804,-0.8804,-0.8804,-0.8804,-0.8804,-0.8804,-0.8804,-0.8804,-0.8804,-0.8804,-0.8804,-0.8752,-0.8454,-0.8374,-0.8427,-0.8699,-0.8804,-0.8804,-0.8804,-0.8804,-0.8831,-0.8918,-0.8951,-0.8951,-0.8951,-0.8865,-0.8804,-0.8804,-0.8804,-0.8804,-0.8804,-0.8898,-0.8918,-0.8831,-0.8871,-0.8911,-0.8824,-0.9491,-1.0185,-1.0745,-1.1309,-1.1717,-1.1789,-1.0965,-1.0244,-0.984,-0.9185,-0.9185,-1.0141,-1.1191,-1.2129,-1.2847,-1.2608,-1.2393,-1.2236,-1.169,-1.1216,-1.0788,-1.0939,-1.0813,-1.0389,-1.0141,-1.002,-1.0038,-1.0686,-1.0788,-1.044,-1.1116,-1.1166,-1.0838,-1.1241,-1.1391,-1.1466,-1.2187,-1.2452,-1.251,-1.2798,-1.2725,-1.2403,-0.6588,-0.5943,-0.5395,-0.5395,-0.5395,-0.5347,-0.514,-0.4999,-0.4884,-0.4731,-0.5144,-0.5447,-0.543,-0.6028,-0.6258,-0.5752,-0.5221,-0.5475,-0.6805,-0.6904,-0.7478,-0.8738,-0.8804,-0.8804,-0.8804,-0.8725,-0.8374,-0.7696,-0.8315,-0.8295,-0.7723,-0.8401,-0.8725,-0.8804,-0.8804,-0.8804,-0.8804,-0.8725,-0.8699,-0.8699,-0.8699,-0.8699,-0.8699,-0.8778,-0.8804,-0.8778,-0.8725,-0.8699,-0.8586,-0.791,-0.7696,-0.783,-0.856,-0.8804,-0.8804,-0.8804,-0.8804,-0.8871,-0.9131,-0.9211,-0.9217,-0.9244,-0.9058,-0.8878,-0.8851,-0.8824,-0.8824,-0.8871,-0.9044,-0.9138,-0.8931,-0.9071,-0.9164,-0.8925,-0.8938,-0.9387,-1.059,-1.0314,-1.0399,-1.1519,-1.0614,-0.9851,-0.9799,-0.9242,-0.9399,-1.0618,-1.1292,-1.1993,-1.2749,-1.2163,-1.208,-1.27,-1.1484,-1.0737,-1.0618,-1.0012,-0.971,-0.9718,-0.908,-0.8804,-0.8831,-0.9484,-0.9762,-0.9736,-1.0415,-1.0686,-1.0644,-1.0695,-1.0712,-1.0788,-1.1441,-1.1715,-1.1789,-1.2535,-1.2344,-1.169,-0.5815,-0.5524,-0.5395,-0.5395,-0.5395,-0.5385,-0.5351,-0.5182,-0.5002,-0.4891,-0.4959,-0.4975,-0.488,-0.5097,-0.5217,-0.5104,-0.4988,-0.5475,-0.6805,-0.6904,-0.7478,-0.8738,-0.8804,-0.8804,-0.8804,-0.8235,-0.7857,-0.7696,-0.7289,-0.7289,-0.7696,-0.7857,-0.8235,-0.8804,-0.8804,-0.8804,-0.8752,-0.8182,-0.7937,-0.7937,-0.7937,-0.7937,-0.7996,-0.8593,-0.8804,-0.8725,-0.8156,-0.7937,-0.791,-0.775,-0.7696,-0.783,-0.856,-0.8804,-0.8804,-0.8804,-0.8804,-0.8871,-0.9131,-0.9211,-0.9264,-0.9526,-0.9539,-0.9432,-0.9171,-0.8944,-0.8938,-0.9399,-0.9331,-0.9264,-0.9466,-0.9546,-0.9566,-0.9506,-0.996,-1.0335,-1.0394,-1.093,-1.113,-1.0673,-1.0556,-1.0311,-0.9769,-0.9578,-0.9653,-0.9981,-1.0388,-1.104,-1.199,-1.1898,-1.1641,-1.1275,-1.0965,-1.0287,-0.9237,-0.9087,-0.9008,-0.9008,-0.8857,-0.8804,-0.8831,-0.9484,-0.951,-0.9061,-0.9718,-0.971,-0.9283,-0.9788,-1.0012,-1.009,-1.0737,-1.1015,-1.1091,-1.1798,-1.16,-1.0939,-0.5557,-0.5395,-0.5395,-0.5395,-0.5395,-0.5371,-0.526,-0.5182,-0.5049,-0.4908,-0.4887,-0.486,-0.4809,-0.487,-0.4914,-0.4982,-0.4988,-0.544,-0.651,-0.6953,-0.7538,-0.8327,-0.8761,-0.8757,-0.8295,-0.7563,-0.7182,-0.7182,-0.7128,-0.7155,-0.7182,-0.7883,-0.8427,-0.8804,-0.8804,-0.8804,-0.8752,-0.8017,-0.7696,-0.7696,-0.7696,-0.7696,-0.7777,-0.8507,-0.8804,-0.8699,-0.7969,-0.7257,-0.6767,-0.7477,-0.7477,-0.7369,-0.8454,-0.8804,-0.8838,-0.8944,-0.8984,-0.9078,-0.9511,-0.963,-0.967,-0.9853,-0.9886,-0.9813,-0.9519,-0.9332,-0.9312,-0.9619,-0.9673,-0.9637,-0.9679,-0.9793,-0.9846,-0.9735,-0.9991,-1.0294,-1.0485,-1.0632,-1.0676,-1.0505,-1.0336,-1.0106,-0.9737,-0.9715,-0.986,-1.0198,-1.0272,-1.0681,-1.1524,-1.1116,-1.0838,-1.0788,-1.0192,-0.9666,-0.929,-0.9098,-0.8984,-0.8984,-0.8871,-0.8804,-0.8804,-0.9159,-0.9133,-0.8831,-0.9159,-0.914,-0.8831,-0.9185,-0.9309,-0.9413,-1.0415,-1.0788,-1.0914,-1.1965,-1.1683,-1.0686,-0.5557,-0.5395,-0.5395,-0.5395,-0.5395,-0.5351,-0.5189,-0.5137,-0.5086,-0.4941,-0.4979,-0.4986,-0.4928,-0.4924,-0.4972,-0.509,-0.51,-0.5399,-0.6114,-0.6857,-0.7426,-0.7711,-0.8407,-0.8401,-0.7542,-0.6804,-0.6421,-0.6421,-0.7155,-0.7208,-0.6642,-0.8103,-0.8804,-0.8804,-0.8672,-0.8619,-0.8566,-0.7691,-0.7316,-0.7337,-0.745,-0.7503,-0.7616,-0.848,-0.8725,-0.8507,-0.7777,-0.6578,-0.5542,-0.6875,-0.6907,-0.6674,-0.8211,-0.8691,-0.8777,-0.9176,-0.9291,-0.9404,-0.9943,-0.9992,-0.9938,-1.0119,-1.0065,-0.9945,-0.9857,-0.9789,-0.9742,-0.9842,-0.9987,-1.006,-0.9896,-1.0033,-1.0114,-0.9903,-0.9863,-1.0041,-1.0523,-1.0167,-1.0041,-1.0545,-1.0174,-0.9842,-0.9766,-0.9836,-1.0043,-1.0501,-1.0375,-1.0532,-1.1169,-1.0413,-1.0184,-1.0707,-0.9649,-0.9262,-0.9694,-0.9357,-0.9237,-0.9284,-0.9072,-0.8931,-0.8878,-0.8831,-0.8804,-0.8804,-0.8804,-0.8804,-0.8804,-0.8804,-0.8804,-0.8936,-1.0141,-1.0644,-1.0771,-1.195,-1.1692,-1.0695,-0.5428,-0.5395,-0.5395,-0.5395,-0.5395,-0.5388,-0.5365,-0.5361,-0.5274,-0.509,-0.5216,-0.5283,-0.5086,-0.5069,-0.5076,-0.5096,-0.51,-0.5356,-0.5977,-0.6259,-0.6576,-0.7009,-0.7159,-0.7055,-0.6756,-0.6036,-0.5651,-0.5651,-0.6394,-0.6696,-0.6642,-0.8103,-0.8804,-0.8778,-0.8129,-0.7857,-0.775,-0.6384,-0.5783,-0.5842,-0.6502,-0.675,-0.6885,-0.8262,-0.8401,-0.775,-0.702,-0.585,-0.4763,-0.5542,-0.5733,-0.595,-0.7733,-0.8287,-0.8447,-0.9361,-0.9626,-0.9699,-0.9997,-0.9547,-0.9223,-1.0271,-0.9958,-0.9591,-1.0322,-1.0077,-0.9856,-1.0372,-1.0267,-1.018,-1.0432,-1.0506,-1.0519,-1.0479,-1.0472,-1.0416,-1.0208,-1.0335,-1.0409,-1.0201,-1.0373,-1.0372,-1.0087,-1.0325,-1.0288,-0.9865,-1.0021,-1.0316,-1.0769,-1.066,-1.0504,-1.0382,-1.0193,-0.9848,-0.9288,-0.9218,-0.9344,-0.9626,-0.9586,-0.9432,-0.9144,-0.8898,-0.8804,-0.8804,-0.8804,-0.8804,-0.8804,-0.8804,-0.8804,-0.8883,-0.964,-0.9935,-0.9961,-1.0149,-1.0474,-1.0618,-0.5395,-0.5395,-0.5395,-0.5395,-0.5395,-0.5395,-0.5395,-0.5395,-0.5371,-0.527,-0.5351,-0.5368,-0.5267,-0.5111,-0.5012,-0.5093,-0.5026,-0.5178,-0.5629,-0.6173,-0.646,-0.6411,-0.6856,-0.6958,-0.6598,-0.5869,-0.5515,-0.5515,-0.5814,-0.5982,-0.6009,-0.7503,-0.7969,-0.7584,-0.767,-0.7477,-0.702,-0.595,-0.5515,-0.5569,-0.6312,-0.6588,-0.6723,-0.7777,-0.799,-0.7563,-0.6389,-0.5332,-0.4598,-0.5273,-0.5515,-0.5736,-0.7063,-0.748,-0.7608,-0.8283,-0.8824,-0.915,-0.8984,-0.8991,-0.9084,-0.9131,-0.9236,-0.9402,-0.9786,-1.0166,-1.0472,-1.0573,-1.0613,-1.0595,-1.06,-1.0854,-1.0989,-1.0861,-1.0834,-1.0755,-1.0621,-1.0722,-1.0787,-1.0621,-1.0722,-1.072,-1.0425,-1.0512,-1.0486,-1.0224,-1.0134,-1.0174,-1.0358,-1.0219,-1.0094,-0.996,-0.9481,-0.9317,-0.9486,-0.914,-0.9303,-0.9927,-0.9927,-0.9773,-0.9486,-0.9352,-0.9205,-0.9024,-0.9024,-0.8931,-0.8804,-0.8804,-0.8804,-0.891,-0.9935,-1.0593,-1.0864,-1.0491,-1.032,-1.0167]}]]